| time (UTC) | temp F | wind direction | speed MPH | gust MPH | rain 1hr in | rain 24hr in | rain mn in | humidity % | barometer mb |
| 20260906150904 | 90 | 300 | 4.0 | 8.0 | 0.00 | 0.00 | 0.00 | 46 | 1019.4 |
| 20260906150804 | 90 | 298 | 4.0 | 8.0 | 0.00 | 0.00 | 0.00 | 45 | 1019.4 |
| 20260906150704 | 90 | 298 | 4.0 | 8.0 | 0.00 | 0.00 | 0.00 | 45 | 1019.5 |
| 20260906150604 | 90 | 299 | 4.0 | 8.0 | 0.00 | 0.00 | 0.00 | 44 | 1019.5 |
| 20260906150503 | 90 | 298 | 4.0 | 8.0 | 0.00 | 0.00 | 0.00 | 44 | 1019.5 |
| 20260906150404 | 90 | 299 | 4.0 | 8.0 | 0.00 | 0.00 | 0.00 | 44 | 1019.4 |
| 20260906150304 | 90 | 299 | 3.0 | 10.0 | 0.00 | 0.00 | 0.00 | 44 | 1019.4 |
| 20260906150203 | 90 | 297 | 4.0 | 10.0 | 0.00 | 0.00 | 0.00 | 44 | 1019.5 |
| 20260906150104 | 90 | 296 | 3.0 | 10.0 | 0.00 | 0.00 | 0.00 | 43 | 1019.5 |
| 20260906150003 | 90 | 296 | 3.0 | 10.0 | 0.00 | 0.00 | 0.00 | 43 | 1019.5 |
| 20260906145903 | 90 | 295 | 3.0 | 10.0 | 0.00 | 0.00 | 0.00 | 43 | 1019.4 |
| 20260906145803 | 90 | 296 | 3.0 | 10.0 | 0.00 | 0.00 | 0.00 | 43 | 1019.4 |
| 20260906145703 | 90 | 296 | 3.0 | 10.0 | 0.00 | 0.00 | 0.00 | 43 | 1019.4 |
| 20260906145603 | 90 | 296 | 3.0 | 10.0 | 0.00 | 0.00 | 0.00 | 43 | 1019.4 |
| 20260906145503 | 90 | 295 | 2.0 | 10.0 | 0.00 | 0.00 | 0.00 | 42 | 1019.5 |
| 20260906145403 | 90 | 295 | 2.0 | 10.0 | 0.00 | 0.00 | 0.00 | 42 | 1019.4 |
| 20260906145306 | 90 | 296 | 2.0 | 9.0 | 0.00 | 0.00 | 0.00 | 43 | 1019.4 |
| 20260906145203 | 90 | 297 | 2.0 | 7.0 | 0.00 | 0.00 | 0.00 | 43 | 1019.4 |
| 20260906145103 | 91 | 296 | 2.0 | 7.0 | 0.00 | 0.00 | 0.00 | 43 | 1019.4 |
| 20260906145003 | 91 | 295 | 2.0 | 7.0 | 0.00 | 0.00 | 0.00 | 42 | 1019.6 |
| 20260906144903 | 91 | 295 | 3.0 | 10.0 | 0.00 | 0.00 | 0.00 | 42 | 1019.5 |
| 20260906144803 | 91 | 295 | 3.0 | 10.0 | 0.00 | 0.00 | 0.00 | 42 | 1019.4 |
| 20260906144703 | 91 | 298 | 3.0 | 10.0 | 0.00 | 0.00 | 0.00 | 42 | 1019.3 |
| 20260906144603 | 91 | 297 | 3.0 | 10.0 | 0.00 | 0.00 | 0.00 | 42 | 1019.4 |
| 20260906144503 | 91 | 296 | 3.0 | 10.0 | 0.00 | 0.00 | 0.00 | 42 | 1019.3 |
| 20260906144403 | 91 | 295 | 3.0 | 10.0 | 0.00 | 0.00 | 0.00 | 41 | 1019.4 |
| 20260906144303 | 91 | 296 | 3.0 | 10.0 | 0.00 | 0.00 | 0.00 | 41 | 1019.3 |
| 20260906144204 | 91 | 297 | 3.0 | 10.0 | 0.00 | 0.00 | 0.00 | 42 | 1019.3 |
| 20260906144104 | 91 | 298 | 3.0 | 10.0 | 0.00 | 0.00 | 0.00 | 41 | 1019.4 |
| 20260906144004 | 91 | 299 | 3.0 | 10.0 | 0.00 | 0.00 | 0.00 | 41 | 1019.4 |
| 20260906143904 | 91 | 300 | 3.0 | 9.0 | 0.00 | 0.00 | 0.00 | 41 | 1019.4 |
| 20260906143804 | 91 | 300 | 3.0 | 9.0 | 0.00 | 0.00 | 0.00 | 41 | 1019.3 |
| 20260906143704 | 91 | 298 | 3.0 | 9.0 | 0.00 | 0.00 | 0.00 | 41 | 1019.3 |
| 20260906143604 | 91 | 298 | 3.0 | 9.0 | 0.00 | 0.00 | 0.00 | 41 | 1019.3 |
| 20260906143504 | 91 | 301 | 3.0 | 9.0 | 0.00 | 0.00 | 0.00 | 41 | 1019.4 |
| 20260906143404 | 91 | 302 | 3.0 | 9.0 | 0.00 | 0.00 | 0.00 | 40 | 1019.3 |
| 20260906143304 | 91 | 302 | 3.0 | 9.0 | 0.00 | 0.00 | 0.00 | 40 | 1019.4 |
| 20260906143204 | 91 | 302 | 3.0 | 7.0 | 0.00 | 0.00 | 0.00 | 41 | 1019.3 |
| 20260906143104 | 91 | 302 | 3.0 | 7.0 | 0.00 | 0.00 | 0.00 | 41 | 1019.3 |
| 20260906143003 | 91 | 302 | 2.0 | 7.0 | 0.00 | 0.00 | 0.00 | 41 | 1019.3 |
| 20260906142904 | 91 | 303 | 3.0 | 8.0 | 0.00 | 0.00 | 0.00 | 41 | 1019.3 |
| 20260906142804 | 91 | 303 | 2.0 | 8.0 | 0.00 | 0.00 | 0.00 | 40 | 1019.4 |
| 20260906142704 | 91 | 304 | 2.0 | 8.0 | 0.00 | 0.00 | 0.00 | 40 | 1019.3 |
| 20260906142604 | 91 | 306 | 2.0 | 8.0 | 0.00 | 0.00 | 0.00 | 40 | 1019.2 |
| 20260906142503 | 92 | 303 | 2.0 | 8.0 | 0.00 | 0.00 | 0.00 | 40 | 1019.3 |
| 20260906142403 | 91 | 300 | 2.0 | 8.0 | 0.00 | 0.00 | 0.00 | 40 | 1019.4 |
| 20260906142306 | 92 | 301 | 2.0 | 8.0 | 0.00 | 0.00 | 0.00 | 40 | 1019.3 |
| 20260906142203 | 91 | 299 | 2.0 | 8.0 | 0.00 | 0.00 | 0.00 | 40 | 1019.3 |
| 20260906142103 | 91 | 297 | 2.0 | 8.0 | 0.00 | 0.00 | 0.00 | 40 | 1019.3 |
| 20260906142003 | 92 | 296 | 2.0 | 8.0 | 0.00 | 0.00 | 0.00 | 40 | 1019.3 |
| 20260906141903 | 92 | 293 | 2.0 | 6.0 | 0.00 | 0.00 | 0.00 | 40 | 1019.3 |
| 20260906141803 | 92 | 293 | 2.0 | 6.0 | 0.00 | 0.00 | 0.00 | 40 | 1019.3 |
| 20260906141703 | 92 | 294 | 2.0 | 7.0 | 0.00 | 0.00 | 0.00 | 40 | 1019.2 |
| 20260906141603 | 92 | 293 | 2.0 | 7.0 | 0.00 | 0.00 | 0.00 | 40 | 1019.3 |
| 20260906141503 | 92 | 295 | 2.0 | 7.0 | 0.00 | 0.00 | 0.00 | 40 | 1019.3 |
| 20260906141403 | 92 | 294 | 3.0 | 9.0 | 0.00 | 0.00 | 0.00 | 40 | 1019.3 |
| 20260906141303 | 92 | 296 | 3.0 | 9.0 | 0.00 | 0.00 | 0.00 | 40 | 1019.3 |
| 20260906141203 | 92 | 298 | 3.0 | 9.0 | 0.00 | 0.00 | 0.00 | 39 | 1019.3 |
| 20260906141104 | 91 | 300 | 3.0 | 9.0 | 0.00 | 0.00 | 0.00 | 39 | 1019.3 |
| 20260906141004 | 91 | 300 | 3.0 | 9.0 | 0.00 | 0.00 | 0.00 | 39 | 1019.4 |
| 20260906140904 | 92 | 300 | 3.0 | 9.0 | 0.00 | 0.00 | 0.00 | 39 | 1019.3 |
| 20260906140804 | 92 | 300 | 4.0 | 9.0 | 0.00 | 0.00 | 0.00 | 39 | 1019.3 |
| 20260906140704 | 92 | 300 | 4.0 | 9.0 | 0.00 | 0.00 | 0.00 | 39 | 1019.2 |
| 20260906140604 | 92 | 298 | 4.0 | 9.0 | 0.00 | 0.00 | 0.00 | 39 | 1019.3 |
| 20260906140504 | 92 | 297 | 4.0 | 9.0 | 0.00 | 0.00 | 0.00 | 39 | 1019.3 |
| 20260906140404 | 92 | 298 | 3.0 | 7.0 | 0.00 | 0.00 | 0.00 | 39 | 1019.2 |
| 20260906140304 | 92 | 296 | 3.0 | 7.0 | 0.00 | 0.00 | 0.00 | 38 | 1019.2 |
| 20260906140204 | 92 | 294 | 3.0 | 7.0 | 0.00 | 0.00 | 0.00 | 38 | 1019.2 |
| 20260906140104 | 92 | 293 | 3.0 | 7.0 | 0.00 | 0.00 | 0.00 | 39 | 1019.3 |
| 20260906140004 | 92 | 292 | 3.0 | 13.0 | 0.00 | 0.00 | 0.00 | 39 | 1019.2 |
| 20260906135904 | 92 | 294 | 3.0 | 13.0 | 0.00 | 0.00 | 0.00 | 39 | 1019.3 |
| 20260906135803 | 92 | 296 | 3.0 | 13.0 | 0.00 | 0.00 | 0.00 | 38 | 1019.3 |
| 20260906135703 | 92 | 297 | 3.0 | 13.0 | 0.00 | 0.00 | 0.00 | 38 | 1019.3 |
| 20260906135603 | 92 | 297 | 3.0 | 13.0 | 0.00 | 0.00 | 0.00 | 38 | 1019.2 |
| 20260906135503 | 92 | 298 | 3.0 | 13.0 | 0.00 | 0.00 | 0.00 | 38 | 1019.2 |
| 20260906135403 | 92 | 298 | 3.0 | 13.0 | 0.00 | 0.00 | 0.00 | 39 | 1019.2 |
| 20260906135306 | 92 | 300 | 3.0 | 13.0 | 0.00 | 0.00 | 0.00 | 38 | 1019.3 |
| 20260906135203 | 92 | 299 | 3.0 | 13.0 | 0.00 | 0.00 | 0.00 | 38 | 1019.3 |
| 20260906135103 | 92 | 300 | 3.0 | 13.0 | 0.00 | 0.00 | 0.00 | 38 | 1019.3 |
| 20260906135003 | 92 | 302 | 3.0 | 9.0 | 0.00 | 0.00 | 0.00 | 39 | 1019.3 |
| 20260906134903 | 92 | 300 | 3.0 | 7.0 | 0.00 | 0.00 | 0.00 | 39 | 1019.4 |
| 20260906134803 | 92 | 298 | 3.0 | 10.0 | 0.00 | 0.00 | 0.00 | 39 | 1019.3 |
| 20260906134703 | 92 | 297 | 3.0 | 10.0 | 0.00 | 0.00 | 0.00 | 39 | 1019.2 |
| 20260906134603 | 92 | 298 | 3.0 | 10.0 | 0.00 | 0.00 | 0.00 | 39 | 1019.3 |
| 20260906134503 | 92 | 298 | 3.0 | 10.0 | 0.00 | 0.00 | 0.00 | 39 | 1019.3 |
| 20260906134403 | 92 | 298 | 2.0 | 10.0 | 0.00 | 0.00 | 0.00 | 39 | 1019.3 |
| 20260906134303 | 92 | 298 | 2.0 | 10.0 | 0.00 | 0.00 | 0.00 | 39 | 1019.1 |
| 20260906134203 | 92 | 299 | 2.0 | 10.0 | 0.00 | 0.00 | 0.00 | 39 | 1019.1 |
| 20260906134103 | 92 | 299 | 2.0 | 10.0 | 0.00 | 0.00 | 0.00 | 39 | 1019.0 |
| 20260906134003 | 92 | 298 | 2.0 | 10.0 | 0.00 | 0.00 | 0.00 | 39 | 1019.1 |
| 20260906133903 | 92 | 297 | 2.0 | 10.0 | 0.00 | 0.00 | 0.00 | 39 | 1019.0 |
| 20260906133803 | 92 | 297 | 2.0 | 7.0 | 0.00 | 0.00 | 0.00 | 39 | 1019.0 |
| 20260906133704 | 92 | 300 | 2.0 | 7.0 | 0.00 | 0.00 | 0.00 | 39 | 1019.1 |
| 20260906133604 | 92 | 298 | 2.0 | 7.0 | 0.00 | 0.00 | 0.00 | 39 | 1019.0 |
| 20260906133504 | 92 | 297 | 2.0 | 8.0 | 0.00 | 0.00 | 0.00 | 39 | 1019.2 |
| 20260906133404 | 92 | 298 | 2.0 | 8.0 | 0.00 | 0.00 | 0.00 | 39 | 1019.2 |
| 20260906133304 | 92 | 299 | 3.0 | 9.0 | 0.00 | 0.00 | 0.00 | 39 | 1019.3 |
| 20260906133204 | 92 | 297 | 4.0 | 9.0 | 0.00 | 0.00 | 0.00 | 39 | 1019.2 |
| 20260906133103 | 92 | 296 | 4.0 | 9.0 | 0.00 | 0.00 | 0.00 | 39 | 1019.2 |
| 20260906133004 | 92 | 297 | 4.0 | 9.0 | 0.00 | 0.00 | 0.00 | 38 | 1019.3 |
| 20260906132903 | 92 | 299 | 4.0 | 9.0 | 0.00 | 0.00 | 0.00 | 39 | 1019.2 |
| 20260906132803 | 92 | 299 | 4.0 | 9.0 | 0.00 | 0.00 | 0.00 | 39 | 1019.1 |
| 20260906132703 | 92 | 298 | 4.0 | 9.0 | 0.00 | 0.00 | 0.00 | 40 | 1019.1 |
| 20260906132603 | 92 | 298 | 4.0 | 9.0 | 0.00 | 0.00 | 0.00 | 40 | 1019.1 |
| 20260906132504 | 92 | 298 | 4.0 | 9.0 | 0.00 | 0.00 | 0.00 | 40 | 1019.2 |
| 20260906132403 | 92 | 297 | 4.0 | 9.0 | 0.00 | 0.00 | 0.00 | 39 | 1019.3 |
| 20260906132306 | 92 | 296 | 3.0 | 8.0 | 0.00 | 0.00 | 0.00 | 40 | 1019.2 |
| 20260906132203 | 92 | 297 | 3.0 | 8.0 | 0.00 | 0.00 | 0.00 | 40 | 1019.3 |
| 20260906132103 | 92 | 297 | 3.0 | 8.0 | 0.00 | 0.00 | 0.00 | 40 | 1019.3 |
| 20260906132003 | 92 | 297 | 3.0 | 8.0 | 0.00 | 0.00 | 0.00 | 40 | 1019.2 |
| 20260906131903 | 92 | 295 | 2.0 | 8.0 | 0.00 | 0.00 | 0.00 | 40 | 1019.1 |
| 20260906131803 | 92 | 296 | 2.0 | 8.0 | 0.00 | 0.00 | 0.00 | 40 | 1019.2 |
| 20260906131703 | 92 | 296 | 2.0 | 8.0 | 0.00 | 0.00 | 0.00 | 40 | 1019.3 |
| 20260906131603 | 92 | 299 | 1.0 | 8.0 | 0.00 | 0.00 | 0.00 | 40 | 1019.2 |
| 20260906131503 | 92 | 299 | 1.0 | 8.0 | 0.00 | 0.00 | 0.00 | 40 | 1019.2 |
| 20260906131404 | 92 | 305 | 1.0 | 6.0 | 0.00 | 0.00 | 0.00 | 40 | 1019.3 |
| 20260906131304 | 92 | 307 | 1.0 | 6.0 | 0.00 | 0.00 | 0.00 | 40 | 1019.3 |
| 20260906131204 | 92 | 307 | 1.0 | 6.0 | 0.00 | 0.00 | 0.00 | 40 | 1019.3 |
| 20260906131104 | 92 | 309 | 1.0 | 6.0 | 0.00 | 0.00 | 0.00 | 41 | 1019.3 |
| 20260906131004 | 92 | 295 | 2.0 | 8.0 | 0.00 | 0.00 | 0.00 | 41 | 1019.4 |
| 20260906130904 | 92 | 296 | 2.0 | 11.0 | 0.00 | 0.00 | 0.00 | 41 | 1019.3 |
| 20260906130804 | 91 | 295 | 2.0 | 11.0 | 0.00 | 0.00 | 0.00 | 41 | 1019.1 |
| 20260906130704 | 91 | 295 | 2.0 | 11.0 | 0.00 | 0.00 | 0.00 | 41 | 1019.1 |
| 20260906130604 | 91 | 295 | 2.0 | 11.0 | 0.00 | 0.00 | 0.00 | 41 | 1019.2 |
| 20260906130504 | 91 | 296 | 3.0 | 11.0 | 0.00 | 0.00 | 0.00 | 40 | 1019.2 |
| 20260906130404 | 91 | 300 | 3.0 | 11.0 | 0.00 | 0.00 | 0.00 | 41 | 1019.3 |
| 20260906130304 | 91 | 303 | 3.0 | 11.0 | 0.00 | 0.00 | 0.00 | 41 | 1019.3 |
| 20260906130203 | 91 | 302 | 3.0 | 11.0 | 0.00 | 0.00 | 0.00 | 41 | 1019.2 |
| 20260906130103 | 91 | 305 | 2.0 | 11.0 | 0.00 | 0.00 | 0.00 | 41 | 1019.3 |
| 20260906130004 | 91 | 313 | 2.0 | 11.0 | 0.00 | 0.00 | 0.00 | 43 | 1019.3 |
| 20260906125903 | 90 | 310 | 2.0 | 7.0 | 0.00 | 0.00 | 0.00 | 43 | 1019.3 |
| 20260906125803 | 90 | 307 | 2.0 | 7.0 | 0.00 | 0.00 | 0.00 | 43 | 1019.3 |
| 20260906125703 | 90 | 307 | 2.0 | 7.0 | 0.00 | 0.00 | 0.00 | 44 | 1019.2 |
| 20260906125603 | 90 | 306 | 2.0 | 7.0 | 0.00 | 0.00 | 0.00 | 45 | 1019.3 |
| 20260906125503 | 90 | 305 | 2.0 | 7.0 | 0.00 | 0.00 | 0.00 | 47 | 1019.3 |
| 20260906125403 | 90 | 315 | 2.0 | 7.0 | 0.00 | 0.00 | 0.00 | 49 | 1019.3 |
| 20260906125306 | 90 | 305 | 2.0 | 7.0 | 0.00 | 0.00 | 0.00 | 52 | 1019.3 |
| 20260906125203 | 90 | 320 | 2.0 | 7.0 | 0.00 | 0.00 | 0.00 | 52 | 1019.3 |
| 20260906125103 | 90 | 335 | 2.0 | 7.0 | 0.00 | 0.00 | 0.00 | 50 | 1019.3 |
| 20260906125003 | 90 | 316 | 2.0 | 7.0 | 0.00 | 0.00 | 0.00 | 49 | 1019.3 |
| 20260906124903 | 90 | 350 | 2.0 | 7.0 | 0.00 | 0.00 | 0.00 | 48 | 1019.3 |
| 20260906124803 | 90 | 59 | 2.0 | 7.0 | 0.00 | 0.00 | 0.00 | 45 | 1019.4 |
| 20260906124703 | 90 | 7 | 2.0 | 7.0 | 0.00 | 0.00 | 0.00 | 46 | 1019.5 |
| 20260906124603 | 90 | 102 | 2.0 | 7.0 | 0.00 | 0.00 | 0.00 | 47 | 1019.4 |
| 20260906124503 | 90 | 112 | 2.0 | 7.0 | 0.00 | 0.00 | 0.00 | 50 | 1019.3 |
| 20260906124403 | 90 | 127 | 2.0 | 7.0 | 0.00 | 0.00 | 0.00 | 52 | 1019.4 |
| 20260906124303 | 90 | 130 | 2.0 | 7.0 | 0.00 | 0.00 | 0.00 | 51 | 1019.4 |
| 20260906124203 | 90 | 228 | 2.0 | 9.0 | 0.00 | 0.00 | 0.00 | 53 | 1019.4 |
| 20260906124103 | 90 | 209 | 2.0 | 9.0 | 0.00 | 0.00 | 0.00 | 53 | 1019.3 |
| 20260906124004 | 90 | 252 | 2.0 | 9.0 | 0.00 | 0.00 | 0.00 | 51 | 1019.3 |
| 20260906123904 | 90 | 290 | 2.0 | 9.0 | 0.00 | 0.00 | 0.00 | 51 | 1019.4 |
| 20260906123804 | 90 | 300 | 2.0 | 9.0 | 0.00 | 0.00 | 0.00 | 49 | 1019.4 |
| 20260906123704 | 90 | 319 | 2.0 | 9.0 | 0.00 | 0.00 | 0.00 | 51 | 1019.4 |
| 20260906123604 | 90 | 307 | 2.0 | 9.0 | 0.00 | 0.00 | 0.00 | 54 | 1019.4 |
| 20260906123504 | 90 | 323 | 2.0 | 9.0 | 0.00 | 0.00 | 0.00 | 56 | 1019.4 |
| 20260906123404 | 90 | 70 | 2.0 | 9.0 | 0.00 | 0.00 | 0.00 | 55 | 1019.4 |
| 20260906123304 | 90 | 122 | 2.0 | 9.0 | 0.00 | 0.00 | 0.00 | 55 | 1019.5 |
| 20260906123204 | 90 | 119 | 2.0 | 7.0 | 0.00 | 0.00 | 0.00 | 55 | 1019.6 |
| 20260906123104 | 90 | 122 | 2.0 | 7.0 | 0.00 | 0.00 | 0.00 | 55 | 1019.5 |
| 20260906123004 | 90 | 207 | 2.0 | 9.0 | 0.00 | 0.00 | 0.00 | 56 | 1019.5 |
| 20260906122904 | 90 | 298 | 2.0 | 9.0 | 0.00 | 0.00 | 0.00 | 56 | 1019.3 |
| 20260906122804 | 90 | 293 | 2.0 | 9.0 | 0.00 | 0.00 | 0.00 | 55 | 1019.5 |
| 20260906122704 | 90 | 286 | 2.0 | 9.0 | 0.00 | 0.00 | 0.00 | 56 | 1019.5 |
| 20260906122604 | 90 | 288 | 2.0 | 9.0 | 0.00 | 0.00 | 0.00 | 56 | 1019.4 |
| 20260906122504 | 90 | 294 | 2.0 | 9.0 | 0.00 | 0.00 | 0.00 | 56 | 1019.3 |
| 20260906122404 | 90 | 294 | 2.0 | 9.0 | 0.00 | 0.00 | 0.00 | 55 | 1019.4 |
| 20260906122306 | 90 | 298 | 2.0 | 9.0 | 0.00 | 0.00 | 0.00 | 54 | 1019.3 |
| 20260906122204 | 91 | 299 | 2.0 | 9.0 | 0.00 | 0.00 | 0.00 | 54 | 1019.3 |
| 20260906122103 | 91 | 301 | 2.0 | 13.0 | 0.00 | 0.00 | 0.00 | 53 | 1019.3 |
| 20260906122004 | 91 | 302 | 2.0 | 13.0 | 0.00 | 0.00 | 0.00 | 53 | 1019.3 |
| 20260906121903 | 91 | 304 | 2.0 | 13.0 | 0.00 | 0.00 | 0.00 | 53 | 1019.3 |
| 20260906121803 | 91 | 302 | 3.0 | 13.0 | 0.00 | 0.00 | 0.00 | 53 | 1019.3 |
| 20260906121703 | 91 | 304 | 3.0 | 13.0 | 0.00 | 0.00 | 0.00 | 53 | 1019.3 |
| 20260906121603 | 91 | 303 | 2.0 | 13.0 | 0.00 | 0.00 | 0.00 | 51 | 1019.3 |
| 20260906121503 | 91 | 303 | 2.0 | 13.0 | 0.00 | 0.00 | 0.00 | 51 | 1019.4 |
| 20260906121403 | 92 | 305 | 2.0 | 13.0 | 0.00 | 0.00 | 0.00 | 51 | 1019.3 |
| 20260906121303 | 92 | 307 | 2.0 | 13.0 | 0.00 | 0.00 | 0.00 | 51 | 1019.3 |
| 20260906121203 | 92 | 307 | 2.0 | 13.0 | 0.00 | 0.00 | 0.00 | 50 | 1019.4 |
| 20260906121103 | 92 | 305 | 1.0 | 9.0 | 0.00 | 0.00 | 0.00 | 49 | 1019.5 |
| 20260906121003 | 92 | 298 | 1.0 | 9.0 | 0.00 | 0.00 | 0.00 | 46 | 1019.6 |
| 20260906120903 | 92 | 285 | 1.0 | 9.0 | 0.00 | 0.00 | 0.00 | 45 | 1019.6 |
| 20260906120803 | 92 | 269 | 1.0 | 9.0 | 0.00 | 0.00 | 0.00 | 47 | 1019.6 |
| 20260906120703 | 92 | 261 | 1.0 | 6.0 | 0.00 | 0.00 | 0.00 | 47 | 1019.4 |
| 20260906120603 | 92 | 258 | 1.0 | 6.0 | 0.00 | 0.00 | 0.00 | 45 | 1019.4 |
| 20260906120503 | 92 | 226 | 1.0 | 6.0 | 0.00 | 0.00 | 0.00 | 44 | 1019.4 |
| 20260906120403 | 92 | 157 | 1.0 | 6.0 | 0.00 | 0.00 | 0.00 | 44 | 1019.4 |
| 20260906120303 | 92 | 143 | 1.0 | 6.0 | 0.00 | 0.00 | 0.00 | 48 | 1019.4 |
| 20260906120204 | 93 | 138 | 1.0 | 5.0 | 0.00 | 0.00 | 0.00 | 47 | 1019.3 |
| 20260906120104 | 93 | 136 | 1.0 | 5.0 | 0.00 | 0.00 | 0.00 | 45 | 1019.4 |
| 20260906120004 | 93 | 123 | 1.0 | 5.0 | 0.00 | 0.00 | 0.00 | 43 | 1019.4 |
| 20260906115904 | 93 | 270 | 1.0 | 7.0 | 0.00 | 0.00 | 0.00 | 41 | 1019.2 |
| 20260906115804 | 93 | 283 | 1.0 | 9.0 | 0.00 | 0.00 | 0.00 | 42 | 1019.3 |
| 20260906115704 | 93 | 285 | 1.0 | 9.0 | 0.00 | 0.00 | 0.00 | 43 | 1019.6 |
| 20260906115604 | 93 | 287 | 1.0 | 9.0 | 0.00 | 0.00 | 0.00 | 43 | 1019.6 |
| 20260906115504 | 93 | 290 | 1.0 | 9.0 | 0.00 | 0.00 | 0.00 | 42 | 1019.6 |
| 20260906115404 | 93 | 293 | 2.0 | 9.0 | 0.00 | 0.00 | 0.00 | 41 | 1019.6 |
| 20260906115306 | 93 | 293 | 2.0 | 9.0 | 0.00 | 0.00 | 0.00 | 40 | 1019.6 |
| 20260906115204 | 93 | 293 | 2.0 | 9.0 | 0.00 | 0.00 | 0.00 | 40 | 1019.6 |
| 20260906115104 | 93 | 294 | 2.0 | 9.0 | 0.00 | 0.00 | 0.00 | 39 | 1019.5 |
| 20260906115004 | 93 | 292 | 2.0 | 9.0 | 0.00 | 0.00 | 0.00 | 40 | 1019.5 |
| 20260906114904 | 92 | 293 | 1.0 | 9.0 | 0.00 | 0.00 | 0.00 | 40 | 1019.6 |
| 20260906114804 | 92 | 302 | 1.0 | 7.0 | 0.00 | 0.00 | 0.00 | 40 | 1019.6 |
| 20260906114704 | 92 | 297 | 1.0 | 7.0 | 0.00 | 0.00 | 0.00 | 40 | 1019.5 |
| 20260906114603 | 92 | 304 | 1.0 | 7.0 | 0.00 | 0.00 | 0.00 | 40 | 1019.6 |
| 20260906114504 | 92 | 306 | 1.0 | 7.0 | 0.00 | 0.00 | 0.00 | 43 | 1019.6 |
| 20260906114403 | 92 | 310 | 1.0 | 6.0 | 0.00 | 0.00 | 0.00 | 42 | 1019.5 |
| 20260906114303 | 92 | 302 | 1.0 | 6.0 | 0.00 | 0.00 | 0.00 | 40 | 1019.5 |
| 20260906114203 | 92 | 301 | 2.0 | 6.0 | 0.00 | 0.00 | 0.00 | 39 | 1019.6 |
| 20260906114103 | 92 | 296 | 2.0 | 7.0 | 0.00 | 0.00 | 0.00 | 39 | 1019.7 |
| 20260906114003 | 92 | 297 | 2.0 | 7.0 | 0.00 | 0.00 | 0.00 | 39 | 1019.7 |
| 20260906113903 | 92 | 297 | 2.0 | 7.0 | 0.00 | 0.00 | 0.00 | 38 | 1019.6 |
| 20260906113803 | 92 | 295 | 2.0 | 7.0 | 0.00 | 0.00 | 0.00 | 39 | 1019.4 |
| 20260906113704 | 92 | 298 | 2.0 | 7.0 | 0.00 | 0.00 | 0.00 | 39 | 1019.5 |
| 20260906113603 | 92 | 293 | 2.0 | 7.0 | 0.00 | 0.00 | 0.00 | 39 | 1019.4 |
| 20260906113503 | 92 | 296 | 2.0 | 7.0 | 0.00 | 0.00 | 0.00 | 39 | 1019.4 |
| 20260906113403 | 92 | 296 | 3.0 | 7.0 | 0.00 | 0.00 | 0.00 | 39 | 1019.4 |
| 20260906113303 | 92 | 298 | 3.0 | 7.0 | 0.00 | 0.00 | 0.00 | 39 | 1019.5 |
| 20260906113203 | 92 | 298 | 2.0 | 7.0 | 0.00 | 0.00 | 0.00 | 40 | 1019.5 |
| 20260906113103 | 92 | 302 | 2.0 | 10.0 | 0.00 | 0.00 | 0.00 | 40 | 1019.6 |
| 20260906113003 | 92 | 303 | 3.0 | 10.0 | 0.00 | 0.00 | 0.00 | 40 | 1019.4 |
| 20260906112903 | 92 | 303 | 3.0 | 10.0 | 0.00 | 0.00 | 0.00 | 40 | 1019.5 |
| 20260906112803 | 92 | 301 | 3.0 | 10.0 | 0.00 | 0.00 | 0.00 | 40 | 1019.6 |
| 20260906112703 | 92 | 300 | 4.0 | 10.0 | 0.00 | 0.00 | 0.00 | 40 | 1019.6 |
| 20260906112603 | 92 | 300 | 4.0 | 10.0 | 0.00 | 0.00 | 0.00 | 40 | 1019.5 |
| 20260906112503 | 92 | 299 | 4.0 | 10.0 | 0.00 | 0.00 | 0.00 | 40 | 1019.5 |
| 20260906112403 | 92 | 299 | 4.0 | 10.0 | 0.00 | 0.00 | 0.00 | 40 | 1019.5 |
| 20260906112306 | 92 | 298 | 4.0 | 10.0 | 0.00 | 0.00 | 0.00 | 40 | 1019.5 |
| 20260906112203 | 92 | 299 | 4.0 | 10.0 | 0.00 | 0.00 | 0.00 | 40 | 1019.5 |
| 20260906112103 | 92 | 298 | 4.0 | 9.0 | 0.00 | 0.00 | 0.00 | 40 | 1019.6 |
| 20260906112003 | 92 | 297 | 3.0 | 9.0 | 0.00 | 0.00 | 0.00 | 40 | 1019.5 |
| 20260906111903 | 92 | 299 | 3.0 | 9.0 | 0.00 | 0.00 | 0.00 | 41 | 1019.5 |
| 20260906111803 | 91 | 301 | 3.0 | 9.0 | 0.00 | 0.00 | 0.00 | 40 | 1019.4 |
| 20260906111703 | 91 | 302 | 3.0 | 9.0 | 0.00 | 0.00 | 0.00 | 40 | 1019.6 |
| 20260906111603 | 91 | 303 | 3.0 | 9.0 | 0.00 | 0.00 | 0.00 | 40 | 1019.6 |
| 20260906111503 | 91 | 305 | 3.0 | 9.0 | 0.00 | 0.00 | 0.00 | 40 | 1019.6 |
| 20260906111403 | 91 | 305 | 3.0 | 9.0 | 0.00 | 0.00 | 0.00 | 40 | 1019.5 |
| 20260906111303 | 91 | 305 | 4.0 | 11.0 | 0.00 | 0.00 | 0.00 | 40 | 1019.6 |
| 20260906111203 | 91 | 305 | 3.0 | 11.0 | 0.00 | 0.00 | 0.00 | 41 | 1019.7 |
| 20260906111103 | 91 | 304 | 3.0 | 11.0 | 0.00 | 0.00 | 0.00 | 41 | 1019.6 |
| 20260906111003 | 91 | 304 | 3.0 | 11.0 | 0.00 | 0.00 | 0.00 | 41 | 1019.6 |
| 20260906110903 | 91 | 302 | 3.0 | 11.0 | 0.00 | 0.00 | 0.00 | 41 | 1019.7 |
| 20260906110803 | 91 | 302 | 4.0 | 11.0 | 0.00 | 0.00 | 0.00 | 41 | 1019.6 |
| 20260906110703 | 91 | 302 | 4.0 | 13.0 | 0.00 | 0.00 | 0.00 | 41 | 1019.6 |
| 20260906110603 | 91 | 302 | 4.0 | 13.0 | 0.00 | 0.00 | 0.00 | 42 | 1019.7 |
| 20260906110503 | 91 | 300 | 4.0 | 13.0 | 0.00 | 0.00 | 0.00 | 42 | 1019.6 |
| 20260906110403 | 91 | 301 | 5.0 | 13.0 | 0.00 | 0.00 | 0.00 | 42 | 1019.6 |
| 20260906110303 | 91 | 300 | 5.0 | 13.0 | 0.00 | 0.00 | 0.00 | 42 | 1019.5 |
| 20260906110203 | 91 | 300 | 5.0 | 13.0 | 0.00 | 0.00 | 0.00 | 42 | 1019.6 |
| 20260906110103 | 91 | 301 | 4.0 | 13.0 | 0.00 | 0.00 | 0.00 | 42 | 1019.6 |
| 20260906110003 | 91 | 299 | 5.0 | 13.0 | 0.00 | 0.00 | 0.00 | 42 | 1019.6 |
| 20260906105903 | 91 | 301 | 5.0 | 13.0 | 0.00 | 0.00 | 0.00 | 41 | 1019.6 |
| 20260906105803 | 91 | 301 | 5.0 | 13.0 | 0.00 | 0.00 | 0.00 | 41 | 1019.6 |
| 20260906105703 | 91 | 300 | 5.0 | 13.0 | 0.00 | 0.00 | 0.00 | 42 | 1019.7 |
| 20260906105604 | 91 | 300 | 4.0 | 13.0 | 0.00 | 0.00 | 0.00 | 42 | 1019.6 |
| 20260906105504 | 91 | 300 | 4.0 | 13.0 | 0.00 | 0.00 | 0.00 | 42 | 1019.7 |
| 20260906105404 | 91 | 299 | 4.0 | 13.0 | 0.00 | 0.00 | 0.00 | 43 | 1019.7 |
| 20260906105306 | 91 | 297 | 4.0 | 13.0 | 0.00 | 0.00 | 0.00 | 43 | 1019.7 |
| 20260906105204 | 91 | 297 | 4.0 | 13.0 | 0.00 | 0.00 | 0.00 | 43 | 1019.7 |
| 20260906105104 | 91 | 298 | 4.0 | 13.0 | 0.00 | 0.00 | 0.00 | 42 | 1019.6 |
| 20260906105004 | 91 | 299 | 4.0 | 13.0 | 0.00 | 0.00 | 0.00 | 42 | 1019.7 |
| 20260906104904 | 91 | 298 | 4.0 | 13.0 | 0.00 | 0.00 | 0.00 | 43 | 1019.7 |
| 20260906104804 | 91 | 297 | 4.0 | 10.0 | 0.00 | 0.00 | 0.00 | 43 | 1019.7 |
| 20260906104704 | 91 | 297 | 4.0 | 10.0 | 0.00 | 0.00 | 0.00 | 43 | 1019.6 |
| 20260906104604 | 91 | 297 | 4.0 | 12.0 | 0.00 | 0.00 | 0.00 | 43 | 1019.7 |
| 20260906104504 | 91 | 299 | 4.0 | 12.0 | 0.00 | 0.00 | 0.00 | 43 | 1019.7 |
| 20260906104404 | 91 | 299 | 5.0 | 12.0 | 0.00 | 0.00 | 0.00 | 42 | 1019.7 |
| 20260906104304 | 91 | 300 | 5.0 | 12.0 | 0.00 | 0.00 | 0.00 | 43 | 1019.7 |
| 20260906104204 | 91 | 301 | 5.0 | 12.0 | 0.00 | 0.00 | 0.00 | 43 | 1019.7 |
| 20260906104104 | 91 | 301 | 5.0 | 12.0 | 0.00 | 0.00 | 0.00 | 42 | 1019.7 |
| 20260906104004 | 91 | 301 | 5.0 | 12.0 | 0.00 | 0.00 | 0.00 | 42 | 1019.8 |
| 20260906103904 | 91 | 300 | 5.0 | 12.0 | 0.00 | 0.00 | 0.00 | 42 | 1019.7 |
| 20260906103804 | 91 | 302 | 5.0 | 12.0 | 0.00 | 0.00 | 0.00 | 41 | 1019.6 |
| 20260906103704 | 91 | 304 | 5.0 | 12.0 | 0.00 | 0.00 | 0.00 | 42 | 1019.7 |
| 20260906103604 | 91 | 304 | 5.0 | 11.0 | 0.00 | 0.00 | 0.00 | 42 | 1019.6 |
| 20260906103504 | 91 | 303 | 5.0 | 11.0 | 0.00 | 0.00 | 0.00 | 42 | 1019.6 |
| 20260906103404 | 91 | 304 | 5.0 | 11.0 | 0.00 | 0.00 | 0.00 | 42 | 1019.7 |
| 20260906103304 | 91 | 304 | 4.0 | 11.0 | 0.00 | 0.00 | 0.00 | 42 | 1019.7 |
| 20260906103204 | 91 | 304 | 4.0 | 11.0 | 0.00 | 0.00 | 0.00 | 42 | 1019.6 |
| 20260906103104 | 91 | 303 | 4.0 | 11.0 | 0.00 | 0.00 | 0.00 | 42 | 1019.6 |
| 20260906103004 | 91 | 303 | 4.0 | 11.0 | 0.00 | 0.00 | 0.00 | 42 | 1019.7 |
| 20260906102904 | 91 | 304 | 3.0 | 11.0 | 0.00 | 0.00 | 0.00 | 42 | 1019.7 |
| 20260906102804 | 91 | 303 | 3.0 | 11.0 | 0.00 | 0.00 | 0.00 | 42 | 1019.9 |
| 20260906102704 | 91 | 300 | 3.0 | 8.0 | 0.00 | 0.00 | 0.00 | 42 | 1019.9 |
| 20260906102604 | 91 | 302 | 2.0 | 9.0 | 0.00 | 0.00 | 0.00 | 42 | 1019.7 |
| 20260906102504 | 91 | 302 | 2.0 | 9.0 | 0.00 | 0.00 | 0.00 | 42 | 1019.6 |
| 20260906102404 | 91 | 302 | 2.0 | 9.0 | 0.00 | 0.00 | 0.00 | 43 | 1019.6 |
| 20260906102306 | 90 | 304 | 2.0 | 9.0 | 0.00 | 0.00 | 0.00 | 43 | 1019.7 |
| 20260906102204 | 90 | 303 | 2.0 | 9.0 | 0.00 | 0.00 | 0.00 | 42 | 1019.8 |
| 20260906102104 | 90 | 303 | 2.0 | 9.0 | 0.00 | 0.00 | 0.00 | 42 | 1019.7 |
| 20260906102004 | 90 | 302 | 2.0 | 9.0 | 0.00 | 0.00 | 0.00 | 42 | 1019.7 |
| 20260906101904 | 90 | 303 | 2.0 | 9.0 | 0.00 | 0.00 | 0.00 | 42 | 1019.7 |
| 20260906101804 | 90 | 303 | 3.0 | 9.0 | 0.00 | 0.00 | 0.00 | 42 | 1019.8 |
| 20260906101703 | 90 | 302 | 3.0 | 13.0 | 0.00 | 0.00 | 0.00 | 42 | 1019.8 |
| 20260906101603 | 90 | 301 | 3.0 | 13.0 | 0.00 | 0.00 | 0.00 | 42 | 1019.8 |
| 20260906101504 | 90 | 301 | 4.0 | 13.0 | 0.00 | 0.00 | 0.00 | 42 | 1019.9 |
| 20260906101404 | 90 | 301 | 4.0 | 13.0 | 0.00 | 0.00 | 0.00 | 42 | 1019.9 |
| 20260906101303 | 90 | 299 | 4.0 | 13.0 | 0.00 | 0.00 | 0.00 | 42 | 1020.0 |
| 20260906101204 | 90 | 299 | 4.0 | 13.0 | 0.00 | 0.00 | 0.00 | 42 | 1019.9 |
| 20260906101103 | 90 | 300 | 4.0 | 13.0 | 0.00 | 0.00 | 0.00 | 42 | 1020.0 |
| 20260906101004 | 90 | 298 | 4.0 | 13.0 | 0.00 | 0.00 | 0.00 | 42 | 1019.9 |
| 20260906100903 | 90 | 297 | 5.0 | 13.0 | 0.00 | 0.00 | 0.00 | 42 | 1019.9 |
| 20260906100804 | 90 | 296 | 4.0 | 13.0 | 0.00 | 0.00 | 0.00 | 42 | 1019.9 |
| 20260906100703 | 90 | 295 | 4.0 | 10.0 | 0.00 | 0.00 | 0.00 | 43 | 1019.9 |
| 20260906100603 | 90 | 295 | 4.0 | 12.0 | 0.00 | 0.00 | 0.00 | 43 | 1020.0 |
| 20260906100504 | 90 | 295 | 5.0 | 12.0 | 0.00 | 0.00 | 0.00 | 43 | 1019.9 |
| 20260906100403 | 90 | 296 | 5.0 | 13.0 | 0.00 | 0.00 | 0.00 | 43 | 1019.9 |
| 20260906100304 | 90 | 296 | 5.0 | 13.0 | 0.00 | 0.00 | 0.00 | 43 | 1020.0 |
| 20260906100203 | 90 | 296 | 6.0 | 13.0 | 0.00 | 0.00 | 0.00 | 43 | 1020.0 |
| 20260906100103 | 90 | 296 | 6.0 | 13.0 | 0.00 | 0.00 | 0.00 | 43 | 1020.0 |
| 20260906100004 | 90 | 298 | 5.0 | 13.0 | 0.00 | 0.00 | 0.00 | 43 | 1020.1 |
| 20260906095903 | 90 | 299 | 5.0 | 13.0 | 0.00 | 0.00 | 0.00 | 43 | 1020.1 |
| 20260906095803 | 90 | 300 | 5.0 | 13.0 | 0.00 | 0.00 | 0.00 | 43 | 1020.1 |
| 20260906095704 | 90 | 301 | 6.0 | 13.0 | 0.00 | 0.00 | 0.00 | 44 | 1020.0 |
| 20260906095603 | 90 | 301 | 5.0 | 13.0 | 0.00 | 0.00 | 0.00 | 44 | 1020.0 |
| 20260906095503 | 90 | 302 | 5.0 | 13.0 | 0.00 | 0.00 | 0.00 | 43 | 1020.1 |
| 20260906095404 | 90 | 300 | 5.0 | 13.0 | 0.00 | 0.00 | 0.00 | 43 | 1020.0 |
| 20260906095306 | 90 | 300 | 5.0 | 11.0 | 0.00 | 0.00 | 0.00 | 44 | 1019.9 |
| 20260906095203 | 90 | 300 | 5.0 | 11.0 | 0.00 | 0.00 | 0.00 | 45 | 1020.0 |
| 20260906095104 | 90 | 300 | 5.0 | 11.0 | 0.00 | 0.00 | 0.00 | 45 | 1020.1 |
| 20260906095003 | 89 | 299 | 5.0 | 11.0 | 0.00 | 0.00 | 0.00 | 45 | 1020.1 |
| 20260906094903 | 89 | 300 | 6.0 | 11.0 | 0.00 | 0.00 | 0.00 | 45 | 1020.0 |
| 20260906094803 | 89 | 299 | 6.0 | 11.0 | 0.00 | 0.00 | 0.00 | 45 | 1020.0 |
| 20260906094703 | 89 | 299 | 6.0 | 11.0 | 0.00 | 0.00 | 0.00 | 45 | 1019.9 |
| 20260906094604 | 89 | 299 | 6.0 | 11.0 | 0.00 | 0.00 | 0.00 | 45 | 1019.9 |
| 20260906094504 | 89 | 299 | 6.0 | 11.0 | 0.00 | 0.00 | 0.00 | 45 | 1019.9 |
| 20260906094403 | 89 | 300 | 6.0 | 11.0 | 0.00 | 0.00 | 0.00 | 45 | 1019.9 |
| 20260906094303 | 89 | 300 | 6.0 | 11.0 | 0.00 | 0.00 | 0.00 | 45 | 1019.9 |
| 20260906094203 | 89 | 299 | 6.0 | 11.0 | 0.00 | 0.00 | 0.00 | 45 | 1020.0 |
| 20260906094103 | 89 | 302 | 5.0 | 11.0 | 0.00 | 0.00 | 0.00 | 45 | 1020.0 |
| 20260906094003 | 89 | 301 | 6.0 | 12.0 | 0.00 | 0.00 | 0.00 | 45 | 1020.2 |
| 20260906093903 | 89 | 300 | 6.0 | 12.0 | 0.00 | 0.00 | 0.00 | 45 | 1020.0 |
| 20260906093803 | 89 | 301 | 6.0 | 12.0 | 0.00 | 0.00 | 0.00 | 45 | 1020.0 |
| 20260906093703 | 89 | 300 | 6.0 | 12.0 | 0.00 | 0.00 | 0.00 | 46 | 1020.1 |
| 20260906093603 | 89 | 300 | 6.0 | 12.0 | 0.00 | 0.00 | 0.00 | 47 | 1020.1 |
| 20260906093503 | 89 | 301 | 6.0 | 12.0 | 0.00 | 0.00 | 0.00 | 47 | 1020.1 |
| 20260906093403 | 89 | 300 | 6.0 | 12.0 | 0.00 | 0.00 | 0.00 | 47 | 1020.1 |
| 20260906093303 | 89 | 300 | 6.0 | 12.0 | 0.00 | 0.00 | 0.00 | 47 | 1020.1 |
| 20260906093203 | 89 | 301 | 6.0 | 12.0 | 0.00 | 0.00 | 0.00 | 47 | 1020.0 |
| 20260906093103 | 89 | 299 | 6.0 | 12.0 | 0.00 | 0.00 | 0.00 | 47 | 1020.0 |
| 20260906093003 | 88 | 300 | 6.0 | 12.0 | 0.00 | 0.00 | 0.00 | 47 | 1020.1 |
| 20260906092903 | 88 | 301 | 6.0 | 12.0 | 0.00 | 0.00 | 0.00 | 47 | 1020.2 |
| 20260906092803 | 88 | 299 | 5.0 | 11.0 | 0.00 | 0.00 | 0.00 | 47 | 1020.2 |
| 20260906092703 | 88 | 299 | 5.0 | 11.0 | 0.00 | 0.00 | 0.00 | 48 | 1020.2 |
| 20260906092603 | 88 | 299 | 5.0 | 11.0 | 0.00 | 0.00 | 0.00 | 49 | 1020.1 |
| 20260906092503 | 88 | 298 | 5.0 | 13.0 | 0.00 | 0.00 | 0.00 | 49 | 1020.2 |
| 20260906092403 | 88 | 300 | 6.0 | 14.0 | 0.00 | 0.00 | 0.00 | 49 | 1020.3 |
| 20260906092306 | 88 | 301 | 6.0 | 14.0 | 0.00 | 0.00 | 0.00 | 49 | 1020.2 |
| 20260906092203 | 88 | 301 | 6.0 | 14.0 | 0.00 | 0.00 | 0.00 | 49 | 1020.3 |
| 20260906092103 | 88 | 300 | 6.0 | 14.0 | 0.00 | 0.00 | 0.00 | 49 | 1020.2 |
| 20260906092003 | 88 | 300 | 6.0 | 14.0 | 0.00 | 0.00 | 0.00 | 50 | 1020.2 |
| 20260906091903 | 88 | 300 | 7.0 | 14.0 | 0.00 | 0.00 | 0.00 | 50 | 1020.3 |
| 20260906091803 | 88 | 300 | 7.0 | 14.0 | 0.00 | 0.00 | 0.00 | 50 | 1020.3 |
| 20260906091703 | 88 | 301 | 7.0 | 14.0 | 0.00 | 0.00 | 0.00 | 50 | 1020.3 |
| 20260906091603 | 88 | 301 | 6.0 | 14.0 | 0.00 | 0.00 | 0.00 | 50 | 1020.3 |
| 20260906091503 | 88 | 301 | 6.0 | 14.0 | 0.00 | 0.00 | 0.00 | 50 | 1020.3 |
| 20260906091403 | 88 | 300 | 6.0 | 12.0 | 0.00 | 0.00 | 0.00 | 50 | 1020.3 |
| 20260906091303 | 88 | 299 | 6.0 | 12.0 | 0.00 | 0.00 | 0.00 | 49 | 1020.2 |
| 20260906091203 | 88 | 299 | 5.0 | 12.0 | 0.00 | 0.00 | 0.00 | 50 | 1020.3 |
| 20260906091103 | 88 | 300 | 5.0 | 12.0 | 0.00 | 0.00 | 0.00 | 50 | 1020.3 |
| 20260906091003 | 88 | 299 | 5.0 | 12.0 | 0.00 | 0.00 | 0.00 | 50 | 1020.3 |
| 20260906090903 | 88 | 298 | 5.0 | 11.0 | 0.00 | 0.00 | 0.00 | 50 | 1020.4 |
| 20260906090803 | 88 | 299 | 5.0 | 11.0 | 0.00 | 0.00 | 0.00 | 50 | 1020.4 |
| 20260906090703 | 88 | 300 | 5.0 | 11.0 | 0.00 | 0.00 | 0.00 | 51 | 1020.4 |
| 20260906090603 | 88 | 299 | 5.0 | 11.0 | 0.00 | 0.00 | 0.00 | 51 | 1020.4 |
| 20260906090503 | 88 | 299 | 5.0 | 11.0 | 0.00 | 0.00 | 0.00 | 53 | 1020.3 |
| 20260906090403 | 88 | 298 | 5.0 | 12.0 | 0.00 | 0.00 | 0.00 | 54 | 1020.3 |
| 20260906090303 | 88 | 298 | 6.0 | 13.0 | 0.00 | 0.00 | 0.00 | 54 | 1020.4 |
| 20260906090203 | 87 | 298 | 6.0 | 13.0 | 0.00 | 0.00 | 0.00 | 54 | 1020.4 |
| 20260906090103 | 87 | 299 | 6.0 | 13.0 | 0.00 | 0.00 | 0.00 | 54 | 1020.4 |
| 20260906090003 | 87 | 299 | 6.0 | 13.0 | 0.00 | 0.00 | 0.00 | 54 | 1020.4 |
| 20260906085903 | 87 | 301 | 6.0 | 13.0 | 0.00 | 0.00 | 0.00 | 54 | 1020.4 |
| 20260906085803 | 87 | 300 | 5.0 | 13.0 | 0.00 | 0.00 | 0.00 | 54 | 1020.3 |
| 20260906085703 | 87 | 301 | 5.0 | 13.0 | 0.00 | 0.00 | 0.00 | 54 | 1020.3 |
| 20260906085603 | 87 | 302 | 5.0 | 13.0 | 0.00 | 0.00 | 0.00 | 54 | 1020.2 |
| 20260906085503 | 87 | 303 | 5.0 | 13.0 | 0.00 | 0.00 | 0.00 | 55 | 1020.2 |
| 20260906085403 | 87 | 304 | 5.0 | 13.0 | 0.00 | 0.00 | 0.00 | 55 | 1020.2 |
| 20260906085306 | 87 | 304 | 5.0 | 10.0 | 0.00 | 0.00 | 0.00 | 55 | 1020.2 |
| 20260906085203 | 87 | 305 | 4.0 | 10.0 | 0.00 | 0.00 | 0.00 | 55 | 1020.2 |
| 20260906085103 | 87 | 304 | 4.0 | 10.0 | 0.00 | 0.00 | 0.00 | 55 | 1020.2 |
| 20260906085003 | 87 | 302 | 4.0 | 10.0 | 0.00 | 0.00 | 0.00 | 56 | 1020.2 |
| 20260906084903 | 87 | 300 | 4.0 | 11.0 | 0.00 | 0.00 | 0.00 | 57 | 1020.2 |
| 20260906084803 | 87 | 300 | 4.0 | 11.0 | 0.00 | 0.00 | 0.00 | 57 | 1020.1 |
| 20260906084705 | 87 | 300 | 4.0 | 11.0 | 0.00 | 0.00 | 0.00 | 57 | 1020.2 |
| 20260906084604 | 87 | 301 | 4.0 | 11.0 | 0.00 | 0.00 | 0.00 | 56 | 1020.2 |
| 20260906084504 | 87 | 300 | 4.0 | 11.0 | 0.00 | 0.00 | 0.00 | 57 | 1020.2 |
| 20260906084404 | 87 | 301 | 4.0 | 11.0 | 0.00 | 0.00 | 0.00 | 57 | 1020.2 |
| 20260906084304 | 87 | 302 | 4.0 | 11.0 | 0.00 | 0.00 | 0.00 | 57 | 1020.2 |
| 20260906084204 | 87 | 302 | 4.0 | 11.0 | 0.00 | 0.00 | 0.00 | 57 | 1020.3 |
| 20260906084104 | 87 | 302 | 5.0 | 11.0 | 0.00 | 0.00 | 0.00 | 57 | 1020.3 |
| 20260906084004 | 87 | 304 | 5.0 | 13.0 | 0.00 | 0.00 | 0.00 | 57 | 1020.2 |
| 20260906083904 | 87 | 304 | 5.0 | 13.0 | 0.00 | 0.00 | 0.00 | 57 | 1020.3 |
| 20260906083804 | 87 | 303 | 5.0 | 13.0 | 0.00 | 0.00 | 0.00 | 57 | 1020.2 |
| 20260906083704 | 87 | 303 | 5.0 | 13.0 | 0.00 | 0.00 | 0.00 | 57 | 1020.3 |
| 20260906083604 | 87 | 302 | 5.0 | 13.0 | 0.00 | 0.00 | 0.00 | 58 | 1020.3 |
| 20260906083504 | 87 | 301 | 5.0 | 13.0 | 0.00 | 0.00 | 0.00 | 58 | 1020.3 |
| 20260906083404 | 87 | 301 | 5.0 | 13.0 | 0.00 | 0.00 | 0.00 | 58 | 1020.3 |
| 20260906083304 | 87 | 300 | 6.0 | 13.0 | 0.00 | 0.00 | 0.00 | 58 | 1020.3 |
| 20260906083204 | 87 | 300 | 5.0 | 13.0 | 0.00 | 0.00 | 0.00 | 58 | 1020.3 |
| 20260906083104 | 87 | 299 | 5.0 | 13.0 | 0.00 | 0.00 | 0.00 | 59 | 1020.3 |
| 20260906083004 | 87 | 297 | 5.0 | 10.0 | 0.00 | 0.00 | 0.00 | 59 | 1020.2 |
| 20260906082904 | 87 | 297 | 5.0 | 10.0 | 0.00 | 0.00 | 0.00 | 59 | 1020.1 |
| 20260906082804 | 87 | 297 | 5.0 | 10.0 | 0.00 | 0.00 | 0.00 | 59 | 1020.2 |
| 20260906082704 | 87 | 297 | 5.0 | 10.0 | 0.00 | 0.00 | 0.00 | 59 | 1020.2 |
| 20260906082604 | 87 | 297 | 5.0 | 10.0 | 0.00 | 0.00 | 0.00 | 59 | 1020.2 |
| 20260906082504 | 87 | 297 | 5.0 | 10.0 | 0.00 | 0.00 | 0.00 | 59 | 1020.1 |
| 20260906082404 | 87 | 296 | 5.0 | 10.0 | 0.00 | 0.00 | 0.00 | 59 | 1020.2 |
| 20260906082306 | 87 | 298 | 5.0 | 10.0 | 0.00 | 0.00 | 0.00 | 59 | 1020.2 |
| 20260906082204 | 87 | 297 | 5.0 | 10.0 | 0.00 | 0.00 | 0.00 | 59 | 1020.2 |
| 20260906082104 | 87 | 298 | 5.0 | 10.0 | 0.00 | 0.00 | 0.00 | 59 | 1020.1 |
| 20260906082004 | 87 | 300 | 5.0 | 9.0 | 0.00 | 0.00 | 0.00 | 59 | 1020.1 |
| 20260906081904 | 87 | 299 | 5.0 | 9.0 | 0.00 | 0.00 | 0.00 | 59 | 1020.1 |
| 20260906081804 | 87 | 299 | 5.0 | 9.0 | 0.00 | 0.00 | 0.00 | 59 | 1020.2 |
| 20260906081704 | 87 | 299 | 5.0 | 9.0 | 0.00 | 0.00 | 0.00 | 59 | 1020.2 |
| 20260906081604 | 87 | 299 | 5.0 | 9.0 | 0.00 | 0.00 | 0.00 | 59 | 1020.2 |
| 20260906081504 | 87 | 300 | 4.0 | 10.0 | 0.00 | 0.00 | 0.00 | 59 | 1020.3 |
| 20260906081404 | 87 | 302 | 4.0 | 10.0 | 0.00 | 0.00 | 0.00 | 59 | 1020.2 |
| 20260906081304 | 87 | 302 | 4.0 | 10.0 | 0.00 | 0.00 | 0.00 | 59 | 1020.2 |
| 20260906081204 | 87 | 302 | 4.0 | 10.0 | 0.00 | 0.00 | 0.00 | 60 | 1020.3 |
| 20260906081104 | 87 | 301 | 4.0 | 10.0 | 0.00 | 0.00 | 0.00 | 60 | 1020.1 |
| 20260906081004 | 87 | 299 | 4.0 | 10.0 | 0.00 | 0.00 | 0.00 | 60 | 1020.2 |
| 20260906080903 | 87 | 301 | 3.0 | 10.0 | 0.00 | 0.00 | 0.00 | 60 | 1020.2 |
| 20260906080804 | 87 | 301 | 3.0 | 10.0 | 0.00 | 0.00 | 0.00 | 60 | 1020.3 |
| 20260906080703 | 87 | 300 | 3.0 | 10.0 | 0.00 | 0.00 | 0.00 | 61 | 1020.3 |
| 20260906080604 | 87 | 301 | 4.0 | 10.0 | 0.00 | 0.00 | 0.00 | 61 | 1020.4 |
| 20260906080503 | 87 | 302 | 4.0 | 10.0 | 0.00 | 0.00 | 0.00 | 61 | 1020.2 |
| 20260906080404 | 87 | 301 | 4.0 | 10.0 | 0.00 | 0.00 | 0.00 | 61 | 1020.3 |
| 20260906080303 | 87 | 300 | 4.0 | 10.0 | 0.00 | 0.00 | 0.00 | 61 | 1020.2 |
| 20260906080203 | 87 | 300 | 3.0 | 10.0 | 0.00 | 0.00 | 0.00 | 61 | 1020.1 |
| 20260906080104 | 87 | 300 | 4.0 | 10.0 | 0.00 | 0.00 | 0.00 | 61 | 1020.1 |
| 20260906080004 | 87 | 302 | 3.0 | 10.0 | 0.00 | 0.00 | 0.00 | 61 | 1020.1 |
| 20260906075904 | 87 | 303 | 4.0 | 10.0 | 0.00 | 0.00 | 0.00 | 61 | 1020.0 |
| 20260906075804 | 86 | 303 | 4.0 | 10.0 | 0.00 | 0.00 | 0.00 | 61 | 1020.1 |
| 20260906075703 | 86 | 303 | 4.0 | 10.0 | 0.00 | 0.00 | 0.00 | 61 | 1020.2 |
| 20260906075603 | 86 | 302 | 4.0 | 10.0 | 0.00 | 0.00 | 0.00 | 61 | 1020.1 |
| 20260906075503 | 86 | 300 | 4.0 | 9.0 | 0.00 | 0.00 | 0.00 | 62 | 1020.1 |
| 20260906075403 | 86 | 299 | 4.0 | 9.0 | 0.00 | 0.00 | 0.00 | 62 | 1020.0 |
| 20260906075306 | 86 | 300 | 4.0 | 9.0 | 0.00 | 0.00 | 0.00 | 62 | 1020.2 |
| 20260906075203 | 86 | 300 | 4.0 | 9.0 | 0.00 | 0.00 | 0.00 | 62 | 1020.2 |
| 20260906075103 | 86 | 299 | 5.0 | 12.0 | 0.00 | 0.00 | 0.00 | 62 | 1020.2 |
| 20260906075004 | 86 | 299 | 5.0 | 12.0 | 0.00 | 0.00 | 0.00 | 62 | 1020.2 |
| 20260906074903 | 86 | 297 | 5.0 | 12.0 | 0.00 | 0.00 | 0.00 | 62 | 1020.2 |
| 20260906074803 | 86 | 297 | 5.0 | 12.0 | 0.00 | 0.00 | 0.00 | 62 | 1020.2 |
| 20260906074703 | 86 | 296 | 5.0 | 12.0 | 0.00 | 0.00 | 0.00 | 63 | 1020.3 |
| 20260906074603 | 86 | 295 | 5.0 | 12.0 | 0.00 | 0.00 | 0.00 | 63 | 1020.2 |
| 20260906074503 | 86 | 295 | 5.0 | 12.0 | 0.00 | 0.00 | 0.00 | 63 | 1020.1 |
| 20260906074403 | 86 | 296 | 6.0 | 12.0 | 0.00 | 0.00 | 0.00 | 63 | 1020.1 |
| 20260906074303 | 86 | 296 | 6.0 | 12.0 | 0.00 | 0.00 | 0.00 | 63 | 1020.1 |
| 20260906074203 | 86 | 295 | 5.0 | 12.0 | 0.00 | 0.00 | 0.00 | 62 | 1020.2 |
| 20260906074103 | 86 | 295 | 5.0 | 12.0 | 0.00 | 0.00 | 0.00 | 63 | 1020.1 |
| 20260906074003 | 86 | 294 | 5.0 | 11.0 | 0.00 | 0.00 | 0.00 | 63 | 1020.1 |
| 20260906073903 | 86 | 295 | 4.0 | 9.0 | 0.00 | 0.00 | 0.00 | 63 | 1020.1 |
| 20260906073803 | 86 | 295 | 4.0 | 9.0 | 0.00 | 0.00 | 0.00 | 63 | 1020.1 |
| 20260906073703 | 86 | 294 | 4.0 | 9.0 | 0.00 | 0.00 | 0.00 | 63 | 1020.1 |
| 20260906073603 | 86 | 295 | 4.0 | 9.0 | 0.00 | 0.00 | 0.00 | 63 | 1020.1 |
| 20260906073503 | 86 | 296 | 4.0 | 8.0 | 0.00 | 0.00 | 0.00 | 64 | 1020.2 |
| 20260906073403 | 86 | 295 | 4.0 | 10.0 | 0.00 | 0.00 | 0.00 | 64 | 1020.2 |
| 20260906073303 | 86 | 294 | 4.0 | 10.0 | 0.00 | 0.00 | 0.00 | 64 | 1020.1 |
| 20260906073203 | 86 | 296 | 4.0 | 10.0 | 0.00 | 0.00 | 0.00 | 64 | 1020.1 |
| 20260906073103 | 86 | 297 | 5.0 | 10.0 | 0.00 | 0.00 | 0.00 | 64 | 1020.1 |
| 20260906073003 | 86 | 297 | 5.0 | 10.0 | 0.00 | 0.00 | 0.00 | 64 | 1020.1 |
| 20260906072903 | 86 | 297 | 5.0 | 10.0 | 0.00 | 0.00 | 0.00 | 64 | 1020.1 |
| 20260906072803 | 86 | 297 | 5.0 | 13.0 | 0.00 | 0.00 | 0.00 | 64 | 1020.1 |
| 20260906072703 | 86 | 298 | 6.0 | 13.0 | 0.00 | 0.00 | 0.00 | 64 | 1020.1 |
| 20260906072603 | 86 | 298 | 6.0 | 13.0 | 0.00 | 0.00 | 0.00 | 64 | 1020.2 |
| 20260906072503 | 86 | 299 | 6.0 | 13.0 | 0.00 | 0.00 | 0.00 | 64 | 1020.2 |
| 20260906072403 | 86 | 300 | 6.0 | 13.0 | 0.00 | 0.00 | 0.00 | 64 | 1020.1 |
| 20260906072306 | 86 | 300 | 6.0 | 13.0 | 0.00 | 0.00 | 0.00 | 65 | 1020.2 |
| 20260906072203 | 86 | 299 | 6.0 | 13.0 | 0.00 | 0.00 | 0.00 | 64 | 1020.1 |
| 20260906072103 | 86 | 299 | 6.0 | 13.0 | 0.00 | 0.00 | 0.00 | 65 | 1020.1 |
| 20260906072003 | 86 | 300 | 6.0 | 13.0 | 0.00 | 0.00 | 0.00 | 65 | 1020.1 |
| 20260906071903 | 86 | 300 | 6.0 | 13.0 | 0.00 | 0.00 | 0.00 | 65 | 1020.2 |
| 20260906071803 | 86 | 299 | 6.0 | 11.0 | 0.00 | 0.00 | 0.00 | 65 | 1020.1 |
| 20260906071703 | 85 | 300 | 5.0 | 11.0 | 0.00 | 0.00 | 0.00 | 65 | 1020.2 |
| 20260906071603 | 86 | 299 | 6.0 | 13.0 | 0.00 | 0.00 | 0.00 | 65 | 1020.3 |
| 20260906071503 | 86 | 299 | 6.0 | 13.0 | 0.00 | 0.00 | 0.00 | 65 | 1020.2 |
| 20260906071403 | 86 | 299 | 5.0 | 13.0 | 0.00 | 0.00 | 0.00 | 65 | 1020.2 |
| 20260906071303 | 85 | 300 | 6.0 | 13.0 | 0.00 | 0.00 | 0.00 | 65 | 1020.1 |
| 20260906071203 | 85 | 301 | 6.0 | 13.0 | 0.00 | 0.00 | 0.00 | 65 | 1020.0 |
| 20260906071103 | 85 | 301 | 6.0 | 13.0 | 0.00 | 0.00 | 0.00 | 65 | 1020.0 |
| 20260906071003 | 85 | 301 | 6.0 | 13.0 | 0.00 | 0.00 | 0.00 | 65 | 1020.1 |
| 20260906070903 | 85 | 303 | 6.0 | 13.0 | 0.00 | 0.00 | 0.00 | 65 | 1020.2 |
| 20260906070803 | 85 | 303 | 6.0 | 13.0 | 0.00 | 0.00 | 0.00 | 65 | 1020.0 |
| 20260906070703 | 85 | 304 | 6.0 | 13.0 | 0.00 | 0.00 | 0.00 | 65 | 1019.9 |
| 20260906070603 | 85 | 306 | 6.0 | 12.0 | 0.00 | 0.00 | 0.00 | 65 | 1019.8 |
| 20260906070503 | 85 | 305 | 6.0 | 12.0 | 0.00 | 0.00 | 0.00 | 65 | 1019.9 |
| 20260906070403 | 85 | 304 | 6.0 | 12.0 | 0.00 | 0.00 | 0.00 | 65 | 1019.8 |
| 20260906070303 | 85 | 303 | 6.0 | 11.0 | 0.00 | 0.00 | 0.00 | 65 | 1019.8 |
| 20260906070203 | 85 | 303 | 6.0 | 11.0 | 0.00 | 0.00 | 0.00 | 65 | 1019.9 |
| 20260906070003 | 85 | 302 | 7.0 | 13.0 | 0.00 | 0.00 | 0.00 | 65 | 1019.9 |
| 20260906065903 | 86 | 302 | 6.0 | 13.0 | 0.00 | 0.00 | 0.00 | 65 | 1019.9 |
| 20260906065803 | 86 | 302 | 6.0 | 13.0 | 0.00 | 0.00 | 0.00 | 65 | 1019.8 |
| 20260906065703 | 86 | 301 | 6.0 | 13.0 | 0.00 | 0.00 | 0.00 | 65 | 1019.9 |
| 20260906065603 | 86 | 299 | 6.0 | 13.0 | 0.00 | 0.00 | 0.00 | 65 | 1019.8 |
| 20260906065503 | 86 | 300 | 6.0 | 13.0 | 0.00 | 0.00 | 0.00 | 65 | 1019.7 |
| 20260906065403 | 86 | 301 | 5.0 | 13.0 | 0.00 | 0.00 | 0.00 | 65 | 1019.7 |
| 20260906065305 | 86 | 301 | 5.0 | 13.0 | 0.00 | 0.00 | 0.00 | 65 | 1019.7 |
| 20260906065203 | 86 | 301 | 5.0 | 13.0 | 0.00 | 0.00 | 0.00 | 66 | 1019.8 |
| 20260906065103 | 86 | 299 | 5.0 | 13.0 | 0.00 | 0.00 | 0.00 | 66 | 1019.7 |
| 20260906065003 | 86 | 300 | 5.0 | 11.0 | 0.00 | 0.00 | 0.00 | 66 | 1019.7 |
| 20260906064903 | 86 | 300 | 5.0 | 11.0 | 0.00 | 0.00 | 0.00 | 67 | 1019.7 |
| 20260906064803 | 86 | 298 | 5.0 | 11.0 | 0.00 | 0.00 | 0.00 | 67 | 1019.7 |
| 20260906064703 | 86 | 298 | 5.0 | 11.0 | 0.00 | 0.00 | 0.00 | 67 | 1019.7 |
| 20260906064603 | 86 | 298 | 5.0 | 11.0 | 0.00 | 0.00 | 0.00 | 67 | 1019.7 |
| 20260906064503 | 86 | 298 | 5.0 | 11.0 | 0.00 | 0.00 | 0.00 | 67 | 1019.7 |
| 20260906064403 | 86 | 298 | 5.0 | 11.0 | 0.00 | 0.00 | 0.00 | 67 | 1019.7 |
| 20260906064303 | 86 | 299 | 5.0 | 11.0 | 0.00 | 0.00 | 0.00 | 67 | 1019.7 |
| 20260906064204 | 86 | 299 | 5.0 | 11.0 | 0.00 | 0.00 | 0.00 | 67 | 1019.7 |
| 20260906064104 | 86 | 299 | 5.0 | 11.0 | 0.00 | 0.00 | 0.00 | 67 | 1019.7 |
| 20260906064004 | 86 | 300 | 4.0 | 11.0 | 0.00 | 0.00 | 0.00 | 68 | 1019.7 |
| 20260906063904 | 86 | 301 | 5.0 | 11.0 | 0.00 | 0.00 | 0.00 | 68 | 1019.7 |
| 20260906063804 | 86 | 300 | 5.0 | 11.0 | 0.00 | 0.00 | 0.00 | 68 | 1019.6 |
| 20260906063704 | 86 | 300 | 5.0 | 11.0 | 0.00 | 0.00 | 0.00 | 68 | 1019.7 |
| 20260906063604 | 86 | 299 | 5.0 | 11.0 | 0.00 | 0.00 | 0.00 | 68 | 1019.7 |
| 20260906063504 | 86 | 298 | 5.0 | 11.0 | 0.00 | 0.00 | 0.00 | 68 | 1019.7 |
| 20260906063404 | 86 | 297 | 5.0 | 11.0 | 0.00 | 0.00 | 0.00 | 68 | 1019.7 |
| 20260906063304 | 85 | 296 | 5.0 | 11.0 | 0.00 | 0.00 | 0.00 | 67 | 1019.7 |
| 20260906063204 | 86 | 297 | 5.0 | 11.0 | 0.00 | 0.00 | 0.00 | 68 | 1019.7 |
| 20260906063104 | 85 | 296 | 4.0 | 8.0 | 0.00 | 0.00 | 0.00 | 68 | 1019.7 |
| 20260906063004 | 85 | 295 | 4.0 | 8.0 | 0.00 | 0.00 | 0.00 | 68 | 1019.6 |
| 20260906062904 | 85 | 294 | 4.0 | 8.0 | 0.00 | 0.00 | 0.00 | 68 | 1019.6 |
| 20260906062804 | 85 | 294 | 4.0 | 8.0 | 0.00 | 0.00 | 0.00 | 68 | 1019.7 |
| 20260906062704 | 85 | 294 | 4.0 | 8.0 | 0.00 | 0.00 | 0.00 | 68 | 1019.7 |
| 20260906062604 | 85 | 295 | 4.0 | 8.0 | 0.00 | 0.00 | 0.00 | 68 | 1019.6 |
| 20260906062504 | 85 | 296 | 3.0 | 7.0 | 0.00 | 0.00 | 0.00 | 69 | 1019.6 |
| 20260906062404 | 85 | 294 | 4.0 | 10.0 | 0.00 | 0.00 | 0.00 | 69 | 1019.5 |
| 20260906062306 | 85 | 294 | 3.0 | 10.0 | 0.00 | 0.00 | 0.00 | 69 | 1019.5 |
| 20260906062204 | 85 | 294 | 3.0 | 10.0 | 0.00 | 0.00 | 0.00 | 69 | 1019.5 |
| 20260906062104 | 85 | 295 | 4.0 | 10.0 | 0.00 | 0.00 | 0.00 | 69 | 1019.6 |
| 20260906062004 | 85 | 296 | 4.0 | 10.0 | 0.00 | 0.00 | 0.00 | 70 | 1019.6 |
| 20260906061904 | 85 | 297 | 4.0 | 10.0 | 0.00 | 0.00 | 0.00 | 70 | 1019.7 |
| 20260906061804 | 85 | 298 | 4.0 | 10.0 | 0.00 | 0.00 | 0.00 | 70 | 1019.7 |
| 20260906061704 | 84 | 298 | 4.0 | 10.0 | 0.00 | 0.00 | 0.00 | 70 | 1019.7 |
| 20260906061604 | 84 | 297 | 4.0 | 10.0 | 0.00 | 0.00 | 0.00 | 70 | 1019.6 |
| 20260906061504 | 84 | 297 | 5.0 | 10.0 | 0.00 | 0.00 | 0.00 | 70 | 1019.6 |
| 20260906061404 | 84 | 300 | 5.0 | 10.0 | 0.00 | 0.00 | 0.00 | 70 | 1019.6 |
| 20260906061304 | 84 | 300 | 5.0 | 10.0 | 0.00 | 0.00 | 0.00 | 70 | 1019.6 |
| 20260906061204 | 84 | 300 | 5.0 | 10.0 | 0.00 | 0.00 | 0.00 | 71 | 1019.6 |
| 20260906061104 | 84 | 300 | 5.0 | 10.0 | 0.00 | 0.00 | 0.00 | 71 | 1019.6 |
| 20260906061004 | 84 | 298 | 5.0 | 10.0 | 0.00 | 0.00 | 0.00 | 71 | 1019.7 |
| 20260906060904 | 84 | 299 | 5.0 | 11.0 | 0.00 | 0.00 | 0.00 | 71 | 1019.7 |
| 20260906060804 | 83 | 299 | 5.0 | 11.0 | 0.00 | 0.00 | 0.00 | 71 | 1019.6 |
| 20260906060704 | 83 | 300 | 5.0 | 11.0 | 0.00 | 0.00 | 0.00 | 72 | 1019.6 |
| 20260906060603 | 83 | 299 | 5.0 | 11.0 | 0.00 | 0.00 | 0.00 | 72 | 1019.7 |
| 20260906060503 | 83 | 299 | 5.0 | 11.0 | 0.00 | 0.00 | 0.00 | 72 | 1019.7 |
| 20260906060403 | 83 | 299 | 5.0 | 11.0 | 0.00 | 0.00 | 0.00 | 73 | 1019.7 |
| 20260906060303 | 83 | 298 | 5.0 | 11.0 | 0.00 | 0.00 | 0.00 | 73 | 1019.6 |
| 20260906060203 | 83 | 298 | 5.0 | 11.0 | 0.00 | 0.00 | 0.00 | 73 | 1019.7 |
| 20260906060103 | 83 | 298 | 5.0 | 11.0 | 0.00 | 0.00 | 0.00 | 73 | 1019.6 |
| 20260906060004 | 82 | 298 | 5.0 | 11.0 | 0.00 | 0.00 | 0.00 | 73 | 1019.6 |
| 20260906055903 | 82 | 297 | 5.0 | 9.0 | 0.00 | 0.00 | 0.00 | 74 | 1019.6 |
| 20260906055803 | 82 | 297 | 4.0 | 9.0 | 0.00 | 0.00 | 0.00 | 74 | 1019.6 |
| 20260906055703 | 82 | 297 | 5.0 | 9.0 | 0.00 | 0.00 | 0.00 | 74 | 1019.6 |
| 20260906055604 | 82 | 297 | 5.0 | 9.0 | 0.00 | 0.00 | 0.00 | 74 | 1019.6 |
| 20260906055503 | 82 | 297 | 5.0 | 9.0 | 0.00 | 0.00 | 0.00 | 74 | 1019.6 |
| 20260906055404 | 82 | 298 | 4.0 | 9.0 | 0.00 | 0.00 | 0.00 | 74 | 1019.6 |
| 20260906055306 | 82 | 299 | 5.0 | 10.0 | 0.00 | 0.00 | 0.00 | 74 | 1019.6 |
| 20260906055204 | 82 | 299 | 4.0 | 10.0 | 0.00 | 0.00 | 0.00 | 74 | 1019.6 |
| 20260906055103 | 81 | 300 | 4.0 | 10.0 | 0.00 | 0.00 | 0.00 | 75 | 1019.6 |
| 20260906055003 | 81 | 301 | 4.0 | 10.0 | 0.00 | 0.00 | 0.00 | 75 | 1019.6 |
| 20260906054903 | 81 | 305 | 5.0 | 10.0 | 0.00 | 0.00 | 0.00 | 75 | 1019.5 |
| 20260906054803 | 81 | 306 | 5.0 | 10.0 | 0.00 | 0.00 | 0.00 | 75 | 1019.5 |
| 20260906054704 | 81 | 305 | 5.0 | 10.0 | 0.00 | 0.00 | 0.00 | 75 | 1019.5 |
| 20260906054603 | 81 | 305 | 5.0 | 10.0 | 0.00 | 0.00 | 0.00 | 75 | 1019.5 |
| 20260906054504 | 81 | 306 | 4.0 | 10.0 | 0.00 | 0.00 | 0.00 | 75 | 1019.5 |
| 20260906054403 | 81 | 304 | 4.0 | 10.0 | 0.00 | 0.00 | 0.00 | 75 | 1019.5 |
| 20260906054303 | 81 | 304 | 4.0 | 10.0 | 0.00 | 0.00 | 0.00 | 75 | 1019.5 |
| 20260906054203 | 81 | 304 | 4.0 | 10.0 | 0.00 | 0.00 | 0.00 | 75 | 1019.4 |
| 20260906054103 | 81 | 303 | 4.0 | 10.0 | 0.00 | 0.00 | 0.00 | 75 | 1019.5 |
| 20260906054003 | 81 | 303 | 4.0 | 10.0 | 0.00 | 0.00 | 0.00 | 75 | 1019.4 |
| 20260906053903 | 81 | 298 | 4.0 | 10.0 | 0.00 | 0.00 | 0.00 | 76 | 1019.4 |
| 20260906053803 | 81 | 297 | 4.0 | 10.0 | 0.00 | 0.00 | 0.00 | 76 | 1019.3 |
| 20260906053703 | 81 | 299 | 3.0 | 10.0 | 0.00 | 0.00 | 0.00 | 76 | 1019.4 |
| 20260906053603 | 81 | 300 | 3.0 | 10.0 | 0.00 | 0.00 | 0.00 | 76 | 1019.4 |
| 20260906053503 | 81 | 299 | 4.0 | 8.0 | 0.00 | 0.00 | 0.00 | 76 | 1019.3 |
| 20260906053403 | 81 | 297 | 4.0 | 11.0 | 0.00 | 0.00 | 0.00 | 76 | 1019.3 |
| 20260906053303 | 81 | 295 | 4.0 | 11.0 | 0.00 | 0.00 | 0.00 | 76 | 1019.4 |
| 20260906053203 | 81 | 295 | 4.0 | 11.0 | 0.00 | 0.00 | 0.00 | 76 | 1019.4 |
| 20260906053103 | 81 | 295 | 4.0 | 11.0 | 0.00 | 0.00 | 0.00 | 76 | 1019.4 |
| 20260906053003 | 81 | 295 | 3.0 | 11.0 | 0.00 | 0.00 | 0.00 | 76 | 1019.5 |
| 20260906052903 | 81 | 294 | 3.0 | 11.0 | 0.00 | 0.00 | 0.00 | 76 | 1019.4 |
| 20260906052803 | 81 | 294 | 4.0 | 11.0 | 0.00 | 0.00 | 0.00 | 76 | 1019.4 |
| 20260906052703 | 81 | 293 | 4.0 | 11.0 | 0.00 | 0.00 | 0.00 | 76 | 1019.3 |
| 20260906052603 | 80 | 292 | 4.0 | 11.0 | 0.00 | 0.00 | 0.00 | 76 | 1019.3 |
| 20260906052503 | 80 | 294 | 3.0 | 11.0 | 0.00 | 0.00 | 0.00 | 76 | 1019.3 |
| 20260906052403 | 80 | 294 | 3.0 | 7.0 | 0.00 | 0.00 | 0.00 | 76 | 1019.3 |
| 20260906052305 | 80 | 296 | 3.0 | 8.0 | 0.00 | 0.00 | 0.00 | 76 | 1019.3 |
| 20260906052203 | 80 | 294 | 3.0 | 8.0 | 0.00 | 0.00 | 0.00 | 76 | 1019.3 |
| 20260906052103 | 80 | 293 | 3.0 | 8.0 | 0.00 | 0.00 | 0.00 | 76 | 1019.2 |
| 20260906052003 | 80 | 293 | 3.0 | 11.0 | 0.00 | 0.00 | 0.00 | 76 | 1019.3 |
| 20260906051903 | 80 | 294 | 3.0 | 11.0 | 0.00 | 0.00 | 0.00 | 76 | 1019.3 |
| 20260906051803 | 80 | 294 | 3.0 | 11.0 | 0.00 | 0.00 | 0.00 | 76 | 1019.3 |
| 20260906051703 | 80 | 294 | 4.0 | 11.0 | 0.00 | 0.00 | 0.00 | 76 | 1019.2 |
| 20260906051603 | 80 | 293 | 3.0 | 11.0 | 0.00 | 0.00 | 0.00 | 76 | 1019.2 |
| 20260906051503 | 80 | 292 | 3.0 | 11.0 | 0.00 | 0.00 | 0.00 | 76 | 1019.2 |
| 20260906051403 | 80 | 291 | 4.0 | 11.0 | 0.00 | 0.00 | 0.00 | 76 | 1019.3 |
| 20260906051303 | 80 | 291 | 3.0 | 11.0 | 0.00 | 0.00 | 0.00 | 76 | 1019.2 |
| 20260906051203 | 80 | 292 | 3.0 | 11.0 | 0.00 | 0.00 | 0.00 | 76 | 1019.2 |
| 20260906051103 | 80 | 293 | 3.0 | 11.0 | 0.00 | 0.00 | 0.00 | 76 | 1019.2 |
| 20260906051003 | 80 | 292 | 3.0 | 6.0 | 0.00 | 0.00 | 0.00 | 76 | 1019.1 |
| 20260906050903 | 80 | 293 | 3.0 | 6.0 | 0.00 | 0.00 | 0.00 | 76 | 1019.3 |
| 20260906050803 | 80 | 292 | 2.0 | 6.0 | 0.00 | 0.00 | 0.00 | 76 | 1019.4 |
| 20260906050703 | 80 | 292 | 3.0 | 6.0 | 0.00 | 0.00 | 0.00 | 76 | 1019.4 |
| 20260906050603 | 80 | 293 | 3.0 | 7.0 | 0.00 | 0.00 | 0.00 | 76 | 1019.5 |
| 20260906050503 | 80 | 294 | 3.0 | 8.0 | 0.00 | 0.00 | 0.00 | 76 | 1019.3 |
| 20260906050403 | 80 | 296 | 3.0 | 8.0 | 0.00 | 0.00 | 0.00 | 76 | 1019.3 |
| 20260906050303 | 80 | 295 | 3.0 | 8.0 | 0.00 | 0.00 | 0.00 | 76 | 1019.3 |
| 20260906050203 | 80 | 296 | 3.0 | 8.0 | 0.00 | 0.00 | 0.00 | 76 | 1019.3 |
| 20260906050003 | 80 | 296 | 3.0 | 10.0 | 0.00 | 0.00 | 0.00 | 76 | 1019.2 |
| 20260906045903 | 80 | 296 | 3.0 | 10.0 | 0.00 | 0.00 | 0.00 | 76 | 1019.3 |
| 20260906045803 | 80 | 295 | 4.0 | 10.0 | 0.00 | 0.00 | 0.00 | 76 | 1019.3 |
| 20260906045703 | 80 | 295 | 4.0 | 10.0 | 0.00 | 0.00 | 0.00 | 76 | 1019.3 |
| 20260906045603 | 80 | 295 | 4.0 | 10.0 | 0.00 | 0.00 | 0.00 | 76 | 1019.3 |
| 20260906045503 | 80 | 294 | 3.0 | 10.0 | 0.00 | 0.00 | 0.00 | 76 | 1019.3 |
| 20260906045403 | 80 | 293 | 3.0 | 10.0 | 0.00 | 0.00 | 0.00 | 76 | 1019.3 |
| 20260906045305 | 80 | 295 | 3.0 | 10.0 | 0.00 | 0.00 | 0.00 | 76 | 1019.3 |
| 20260906045203 | 80 | 293 | 3.0 | 10.0 | 0.00 | 0.00 | 0.00 | 76 | 1019.3 |
| 20260906045103 | 80 | 293 | 3.0 | 10.0 | 0.00 | 0.00 | 0.00 | 76 | 1019.2 |
| 20260906045003 | 80 | 293 | 3.0 | 6.0 | 0.00 | 0.00 | 0.00 | 76 | 1019.3 |
| 20260906044903 | 80 | 293 | 3.0 | 6.0 | 0.00 | 0.00 | 0.00 | 76 | 1019.2 |
| 20260906044803 | 80 | 295 | 3.0 | 6.0 | 0.00 | 0.00 | 0.00 | 76 | 1019.1 |
| 20260906044703 | 80 | 297 | 3.0 | 7.0 | 0.00 | 0.00 | 0.00 | 76 | 1019.2 |
| 20260906044603 | 80 | 297 | 3.0 | 7.0 | 0.00 | 0.00 | 0.00 | 76 | 1019.2 |
| 20260906044503 | 80 | 296 | 3.0 | 7.0 | 0.00 | 0.00 | 0.00 | 76 | 1019.1 |
| 20260906044403 | 80 | 297 | 3.0 | 7.0 | 0.00 | 0.00 | 0.00 | 76 | 1019.1 |
| 20260906044303 | 80 | 296 | 3.0 | 7.0 | 0.00 | 0.00 | 0.00 | 76 | 1019.1 |
| 20260906044203 | 80 | 297 | 3.0 | 7.0 | 0.00 | 0.00 | 0.00 | 76 | 1019.2 |
| 20260906044103 | 80 | 297 | 3.0 | 7.0 | 0.00 | 0.00 | 0.00 | 76 | 1019.1 |
| 20260906044003 | 80 | 297 | 3.0 | 7.0 | 0.00 | 0.00 | 0.00 | 76 | 1019.1 |
| 20260906043903 | 80 | 297 | 3.0 | 7.0 | 0.00 | 0.00 | 0.00 | 76 | 1019.2 |
| 20260906043803 | 80 | 296 | 2.0 | 7.0 | 0.00 | 0.00 | 0.00 | 76 | 1019.1 |
| 20260906043703 | 80 | 296 | 3.0 | 6.0 | 0.00 | 0.00 | 0.00 | 76 | 1019.1 |
| 20260906043603 | 80 | 296 | 3.0 | 7.0 | 0.00 | 0.00 | 0.00 | 76 | 1019.2 |
| 20260906043503 | 80 | 298 | 2.0 | 7.0 | 0.00 | 0.00 | 0.00 | 76 | 1019.2 |
| 20260906043403 | 80 | 296 | 2.0 | 7.0 | 0.00 | 0.00 | 0.00 | 76 | 1019.1 |
| 20260906043303 | 80 | 296 | 2.0 | 7.0 | 0.00 | 0.00 | 0.00 | 76 | 1019.1 |
| 20260906043203 | 80 | 293 | 3.0 | 7.0 | 0.00 | 0.00 | 0.00 | 76 | 1019.2 |
| 20260906043104 | 80 | 293 | 2.0 | 7.0 | 0.00 | 0.00 | 0.00 | 76 | 1019.2 |
| 20260906043004 | 80 | 293 | 3.0 | 7.0 | 0.00 | 0.00 | 0.00 | 76 | 1019.0 |
| 20260906042904 | 80 | 293 | 3.0 | 7.0 | 0.00 | 0.00 | 0.00 | 76 | 1019.1 |
| 20260906042804 | 80 | 292 | 3.0 | 7.0 | 0.00 | 0.00 | 0.00 | 76 | 1019.1 |
| 20260906042704 | 80 | 292 | 3.0 | 7.0 | 0.00 | 0.00 | 0.00 | 76 | 1019.2 |
| 20260906042604 | 80 | 293 | 3.0 | 6.0 | 0.00 | 0.00 | 0.00 | 76 | 1019.1 |
| 20260906042504 | 80 | 292 | 3.0 | 6.0 | 0.00 | 0.00 | 0.00 | 76 | 1019.1 |
| 20260906042404 | 80 | 293 | 3.0 | 6.0 | 0.00 | 0.00 | 0.00 | 76 | 1019.1 |
| 20260906042306 | 80 | 293 | 3.0 | 6.0 | 0.00 | 0.00 | 0.00 | 76 | 1019.1 |
| 20260906042204 | 80 | 293 | 3.0 | 6.0 | 0.00 | 0.00 | 0.00 | 76 | 1019.0 |
| 20260906042104 | 80 | 294 | 3.0 | 6.0 | 0.00 | 0.00 | 0.00 | 76 | 1019.0 |
| 20260906042004 | 80 | 297 | 2.0 | 6.0 | 0.00 | 0.00 | 0.00 | 76 | 1019.2 |
| 20260906041904 | 80 | 298 | 2.0 | 6.0 | 0.00 | 0.00 | 0.00 | 76 | 1019.1 |
| 20260906041804 | 80 | 298 | 2.0 | 6.0 | 0.00 | 0.00 | 0.00 | 76 | 1019.1 |
| 20260906041704 | 80 | 298 | 2.0 | 6.0 | 0.00 | 0.00 | 0.00 | 76 | 1019.0 |
| 20260906041604 | 80 | 297 | 2.0 | 5.0 | 0.00 | 0.00 | 0.00 | 76 | 1019.1 |
| 20260906041504 | 80 | 297 | 2.0 | 5.0 | 0.00 | 0.00 | 0.00 | 76 | 1019.1 |
| 20260906041404 | 80 | 297 | 2.0 | 6.0 | 0.00 | 0.00 | 0.00 | 76 | 1019.1 |
| 20260906041304 | 80 | 297 | 2.0 | 6.0 | 0.00 | 0.00 | 0.00 | 76 | 1019.0 |
| 20260906041204 | 80 | 297 | 3.0 | 6.0 | 0.00 | 0.00 | 0.00 | 76 | 1019.0 |
| 20260906041104 | 80 | 296 | 3.0 | 7.0 | 0.00 | 0.00 | 0.00 | 76 | 1019.0 |
| 20260906041004 | 80 | 295 | 3.0 | 7.0 | 0.00 | 0.00 | 0.00 | 76 | 1019.0 |
| 20260906040904 | 80 | 297 | 4.0 | 7.0 | 0.00 | 0.00 | 0.00 | 76 | 1019.0 |
| 20260906040804 | 80 | 297 | 4.0 | 7.0 | 0.00 | 0.00 | 0.00 | 76 | 1019.0 |
| 20260906040705 | 80 | 295 | 4.0 | 7.0 | 0.00 | 0.00 | 0.00 | 76 | 1019.0 |
| 20260906040604 | 80 | 295 | 4.0 | 7.0 | 0.00 | 0.00 | 0.00 | 76 | 1019.0 |
| 20260906040504 | 80 | 296 | 4.0 | 7.0 | 0.00 | 0.00 | 0.00 | 76 | 1019.1 |
| 20260906040404 | 80 | 296 | 4.0 | 8.0 | 0.00 | 0.00 | 0.00 | 76 | 1019.0 |
| 20260906040304 | 80 | 296 | 4.0 | 8.0 | 0.00 | 0.00 | 0.00 | 76 | 1019.0 |
| 20260906040204 | 80 | 298 | 4.0 | 8.0 | 0.00 | 0.00 | 0.00 | 76 | 1019.0 |
| 20260906040104 | 80 | 299 | 4.0 | 8.0 | 0.00 | 0.00 | 0.00 | 76 | 1019.0 |
| 20260906040004 | 80 | 299 | 4.0 | 8.0 | 0.00 | 0.00 | 0.00 | 76 | 1019.0 |
| 20260906035904 | 80 | 297 | 3.0 | 8.0 | 0.00 | 0.00 | 0.00 | 76 | 1019.0 |
| 20260906035804 | 80 | 296 | 3.0 | 8.0 | 0.00 | 0.00 | 0.00 | 76 | 1019.0 |
| 20260906035704 | 80 | 297 | 3.0 | 8.0 | 0.00 | 0.00 | 0.00 | 76 | 1019.0 |
| 20260906035604 | 80 | 297 | 3.0 | 8.0 | 0.00 | 0.00 | 0.00 | 76 | 1019.0 |
| 20260906035504 | 80 | 298 | 3.0 | 8.0 | 0.00 | 0.00 | 0.00 | 76 | 1019.0 |
| 20260906035404 | 80 | 296 | 3.0 | 7.0 | 0.00 | 0.00 | 0.00 | 76 | 1018.9 |
| 20260906035306 | 80 | 296 | 3.0 | 7.0 | 0.00 | 0.00 | 0.00 | 76 | 1018.9 |
| 20260906035204 | 80 | 294 | 3.0 | 7.0 | 0.00 | 0.00 | 0.00 | 76 | 1018.9 |
| 20260906035104 | 80 | 294 | 3.0 | 7.0 | 0.00 | 0.00 | 0.00 | 76 | 1018.9 |
| 20260906035004 | 80 | 294 | 3.0 | 7.0 | 0.00 | 0.00 | 0.00 | 76 | 1018.9 |
| 20260906034903 | 80 | 296 | 3.0 | 7.0 | 0.00 | 0.00 | 0.00 | 76 | 1018.9 |
| 20260906034804 | 80 | 295 | 3.0 | 7.0 | 0.00 | 0.00 | 0.00 | 76 | 1018.9 |
| 20260906034704 | 80 | 296 | 3.0 | 7.0 | 0.00 | 0.00 | 0.00 | 76 | 1018.9 |
| 20260906034604 | 80 | 297 | 3.0 | 6.0 | 0.00 | 0.00 | 0.00 | 76 | 1018.9 |
| 20260906034503 | 80 | 297 | 3.0 | 8.0 | 0.00 | 0.00 | 0.00 | 76 | 1018.9 |
| 20260906034404 | 80 | 298 | 3.0 | 8.0 | 0.00 | 0.00 | 0.00 | 76 | 1018.9 |
| 20260906034304 | 80 | 298 | 3.0 | 8.0 | 0.00 | 0.00 | 0.00 | 76 | 1018.8 |
| 20260906034203 | 80 | 298 | 3.0 | 8.0 | 0.00 | 0.00 | 0.00 | 76 | 1018.8 |
| 20260906034104 | 80 | 298 | 3.0 | 8.0 | 0.00 | 0.00 | 0.00 | 76 | 1018.8 |
| 20260906034004 | 80 | 298 | 3.0 | 8.0 | 0.00 | 0.00 | 0.00 | 76 | 1018.9 |
| 20260906033903 | 80 | 296 | 3.0 | 8.0 | 0.00 | 0.00 | 0.00 | 76 | 1018.8 |
| 20260906033803 | 80 | 298 | 3.0 | 8.0 | 0.00 | 0.00 | 0.00 | 76 | 1018.8 |
| 20260906033703 | 80 | 297 | 3.0 | 8.0 | 0.00 | 0.00 | 0.00 | 76 | 1018.7 |
| 20260906033603 | 80 | 295 | 2.0 | 8.0 | 0.00 | 0.00 | 0.00 | 76 | 1018.7 |
| 20260906033503 | 80 | 294 | 2.0 | 7.0 | 0.00 | 0.00 | 0.00 | 76 | 1018.8 |
| 20260906033404 | 80 | 294 | 3.0 | 7.0 | 0.00 | 0.00 | 0.00 | 76 | 1018.8 |
| 20260906033303 | 80 | 295 | 2.0 | 7.0 | 0.00 | 0.00 | 0.00 | 76 | 1018.7 |
| 20260906033203 | 80 | 294 | 2.0 | 7.0 | 0.00 | 0.00 | 0.00 | 76 | 1018.8 |
| 20260906033103 | 80 | 293 | 2.0 | 7.0 | 0.00 | 0.00 | 0.00 | 76 | 1018.9 |
| 20260906033003 | 80 | 293 | 2.0 | 7.0 | 0.00 | 0.00 | 0.00 | 76 | 1018.8 |
| 20260906032903 | 80 | 293 | 2.0 | 7.0 | 0.00 | 0.00 | 0.00 | 76 | 1018.8 |
| 20260906032803 | 80 | 294 | 2.0 | 7.0 | 0.00 | 0.00 | 0.00 | 76 | 1018.8 |
| 20260906032703 | 80 | 293 | 3.0 | 7.0 | 0.00 | 0.00 | 0.00 | 76 | 1018.9 |
| 20260906032603 | 80 | 293 | 3.0 | 7.0 | 0.00 | 0.00 | 0.00 | 76 | 1018.8 |
| 20260906032503 | 80 | 293 | 3.0 | 7.0 | 0.00 | 0.00 | 0.00 | 76 | 1018.8 |
| 20260906032403 | 80 | 294 | 3.0 | 7.0 | 0.00 | 0.00 | 0.00 | 76 | 1018.8 |
| 20260906032306 | 80 | 293 | 3.0 | 7.0 | 0.00 | 0.00 | 0.00 | 75 | 1018.8 |
| 20260906032203 | 80 | 293 | 3.0 | 7.0 | 0.00 | 0.00 | 0.00 | 76 | 1018.7 |
| 20260906032103 | 80 | 294 | 3.0 | 7.0 | 0.00 | 0.00 | 0.00 | 76 | 1018.8 |
| 20260906032003 | 80 | 294 | 2.0 | 6.0 | 0.00 | 0.00 | 0.00 | 76 | 1018.9 |
| 20260906031903 | 80 | 295 | 2.0 | 6.0 | 0.00 | 0.00 | 0.00 | 75 | 1018.8 |
| 20260906031803 | 80 | 294 | 2.0 | 6.0 | 0.00 | 0.00 | 0.00 | 75 | 1018.9 |
| 20260906031704 | 80 | 295 | 2.0 | 6.0 | 0.00 | 0.00 | 0.00 | 75 | 1018.8 |
| 20260906031603 | 80 | 295 | 2.0 | 6.0 | 0.00 | 0.00 | 0.00 | 75 | 1018.9 |
| 20260906031503 | 80 | 296 | 2.0 | 6.0 | 0.00 | 0.00 | 0.00 | 75 | 1018.8 |
| 20260906031403 | 80 | 297 | 2.0 | 7.0 | 0.00 | 0.00 | 0.00 | 75 | 1018.9 |
| 20260906031303 | 80 | 298 | 2.0 | 7.0 | 0.00 | 0.00 | 0.00 | 75 | 1018.9 |
| 20260906031203 | 80 | 297 | 2.0 | 7.0 | 0.00 | 0.00 | 0.00 | 75 | 1018.8 |
| 20260906031103 | 80 | 297 | 2.0 | 7.0 | 0.00 | 0.00 | 0.00 | 75 | 1018.8 |
| 20260906031003 | 80 | 297 | 2.0 | 7.0 | 0.00 | 0.00 | 0.00 | 75 | 1018.7 |
| 20260906030903 | 80 | 295 | 1.0 | 7.0 | 0.00 | 0.00 | 0.00 | 75 | 1018.7 |
| 20260906030803 | 80 | 297 | 1.0 | 7.0 | 0.00 | 0.00 | 0.00 | 75 | 1018.7 |
| 20260906030703 | 80 | 300 | 1.0 | 7.0 | 0.00 | 0.00 | 0.00 | 75 | 1018.7 |
| 20260906030603 | 80 | 300 | 1.0 | 7.0 | 0.00 | 0.00 | 0.00 | 75 | 1018.7 |
| 20260906030503 | 80 | 298 | 1.0 | 7.0 | 0.00 | 0.00 | 0.00 | 75 | 1018.7 |
| 20260906030403 | 80 | 297 | 1.0 | 5.0 | 0.00 | 0.00 | 0.00 | 75 | 1018.7 |
| 20260906030303 | 80 | 299 | 1.0 | 5.0 | 0.00 | 0.00 | 0.00 | 75 | 1018.7 |
| 20260906030203 | 80 | 299 | 1.0 | 5.0 | 0.00 | 0.00 | 0.00 | 75 | 1018.8 |
| 20260906030003 | 80 | 298 | 2.0 | 5.0 | 0.00 | 0.00 | 0.00 | 75 | 1018.8 |
| 20260906025903 | 80 | 297 | 2.0 | 5.0 | 0.00 | 0.00 | 0.00 | 75 | 1018.8 |
| 20260906025803 | 80 | 298 | 2.0 | 5.0 | 0.00 | 0.00 | 0.00 | 75 | 1018.9 |
| 20260906025703 | 80 | 296 | 2.0 | 5.0 | 0.00 | 0.00 | 0.00 | 75 | 1018.9 |
| 20260906025603 | 80 | 296 | 2.0 | 5.0 | 0.00 | 0.00 | 0.00 | 75 | 1018.9 |
| 20260906025503 | 80 | 298 | 2.0 | 8.0 | 0.00 | 0.00 | 0.00 | 75 | 1018.9 |
| 20260906025403 | 80 | 296 | 3.0 | 8.0 | 0.00 | 0.00 | 0.00 | 75 | 1018.8 |
| 20260906025306 | 80 | 296 | 3.0 | 8.0 | 0.00 | 0.00 | 0.00 | 75 | 1018.8 |
| 20260906025203 | 80 | 296 | 3.0 | 8.0 | 0.00 | 0.00 | 0.00 | 75 | 1018.8 |
| 20260906025103 | 80 | 295 | 3.0 | 10.0 | 0.00 | 0.00 | 0.00 | 75 | 1018.8 |
| 20260906025003 | 80 | 295 | 3.0 | 10.0 | 0.00 | 0.00 | 0.00 | 75 | 1018.8 |
| 20260906024903 | 80 | 296 | 3.0 | 10.0 | 0.00 | 0.00 | 0.00 | 75 | 1018.8 |
| 20260906024803 | 80 | 297 | 3.0 | 10.0 | 0.00 | 0.00 | 0.00 | 75 | 1018.9 |
| 20260906024703 | 80 | 296 | 3.0 | 10.0 | 0.00 | 0.00 | 0.00 | 75 | 1018.9 |
| 20260906024603 | 80 | 296 | 3.0 | 10.0 | 0.00 | 0.00 | 0.00 | 75 | 1018.9 |
| 20260906024503 | 80 | 294 | 2.0 | 10.0 | 0.00 | 0.00 | 0.00 | 75 | 1018.8 |
| 20260906024403 | 80 | 295 | 2.0 | 10.0 | 0.00 | 0.00 | 0.00 | 75 | 1018.9 |
| 20260906024303 | 80 | 295 | 2.0 | 10.0 | 0.00 | 0.00 | 0.00 | 75 | 1018.9 |
| 20260906024203 | 80 | 295 | 2.0 | 10.0 | 0.00 | 0.00 | 0.00 | 75 | 1018.9 |
| 20260906024103 | 80 | 298 | 1.0 | 6.0 | 0.00 | 0.00 | 0.00 | 75 | 1018.8 |
| 20260906024003 | 80 | 298 | 1.0 | 6.0 | 0.00 | 0.00 | 0.00 | 75 | 1018.9 |
| 20260906023903 | 80 | 297 | 1.0 | 6.0 | 0.00 | 0.00 | 0.00 | 75 | 1018.9 |
| 20260906023803 | 80 | 296 | 2.0 | 8.0 | 0.00 | 0.00 | 0.00 | 75 | 1018.9 |
| 20260906023703 | 80 | 300 | 2.0 | 8.0 | 0.00 | 0.00 | 0.00 | 75 | 1018.9 |
| 20260906023603 | 80 | 300 | 2.0 | 8.0 | 0.00 | 0.00 | 0.00 | 75 | 1018.9 |
| 20260906023503 | 80 | 300 | 2.0 | 8.0 | 0.00 | 0.00 | 0.00 | 75 | 1018.9 |
| 20260906023403 | 80 | 299 | 2.0 | 8.0 | 0.00 | 0.00 | 0.00 | 75 | 1018.9 |
| 20260906023303 | 80 | 298 | 2.0 | 8.0 | 0.00 | 0.00 | 0.00 | 75 | 1018.9 |
| 20260906023203 | 80 | 298 | 2.0 | 8.0 | 0.00 | 0.00 | 0.00 | 75 | 1018.9 |
| 20260906023103 | 80 | 297 | 2.0 | 8.0 | 0.00 | 0.00 | 0.00 | 75 | 1018.9 |
| 20260906023003 | 80 | 297 | 2.0 | 8.0 | 0.00 | 0.00 | 0.00 | 75 | 1018.9 |
| 20260906022903 | 80 | 297 | 3.0 | 8.0 | 0.00 | 0.00 | 0.00 | 75 | 1018.9 |
| 20260906022803 | 80 | 295 | 2.0 | 8.0 | 0.00 | 0.00 | 0.00 | 75 | 1018.9 |
| 20260906022703 | 80 | 293 | 2.0 | 8.0 | 0.00 | 0.00 | 0.00 | 75 | 1018.9 |
| 20260906022603 | 81 | 294 | 2.0 | 8.0 | 0.00 | 0.00 | 0.00 | 75 | 1018.9 |
| 20260906022504 | 81 | 293 | 2.0 | 6.0 | 0.00 | 0.00 | 0.00 | 75 | 1018.8 |
| 20260906022404 | 80 | 293 | 2.0 | 6.0 | 0.00 | 0.00 | 0.00 | 75 | 1018.9 |
| 20260906022306 | 80 | 294 | 2.0 | 6.0 | 0.00 | 0.00 | 0.00 | 75 | 1018.9 |
| 20260906022204 | 80 | 294 | 3.0 | 6.0 | 0.00 | 0.00 | 0.00 | 75 | 1018.9 |
| 20260906022104 | 80 | 294 | 2.0 | 6.0 | 0.00 | 0.00 | 0.00 | 75 | 1018.9 |
| 20260906022004 | 80 | 294 | 2.0 | 6.0 | 0.00 | 0.00 | 0.00 | 75 | 1018.9 |
| 20260906021904 | 81 | 294 | 2.0 | 6.0 | 0.00 | 0.00 | 0.00 | 75 | 1018.9 |
| 20260906021804 | 80 | 294 | 2.0 | 6.0 | 0.00 | 0.00 | 0.00 | 75 | 1018.9 |
| 20260906021704 | 81 | 294 | 2.0 | 6.0 | 0.00 | 0.00 | 0.00 | 75 | 1018.9 |
| 20260906021604 | 81 | 293 | 2.0 | 7.0 | 0.00 | 0.00 | 0.00 | 75 | 1018.9 |
| 20260906021504 | 81 | 292 | 2.0 | 7.0 | 0.00 | 0.00 | 0.00 | 75 | 1018.9 |
| 20260906021404 | 81 | 293 | 2.0 | 7.0 | 0.00 | 0.00 | 0.00 | 75 | 1018.9 |
| 20260906021304 | 81 | 292 | 2.0 | 7.0 | 0.00 | 0.00 | 0.00 | 75 | 1018.8 |
| 20260906021204 | 81 | 293 | 2.0 | 7.0 | 0.00 | 0.00 | 0.00 | 75 | 1018.9 |
| 20260906021104 | 81 | 293 | 2.0 | 7.0 | 0.00 | 0.00 | 0.00 | 75 | 1018.9 |
| 20260906021004 | 81 | 292 | 2.0 | 7.0 | 0.00 | 0.00 | 0.00 | 75 | 1018.8 |
| 20260906020904 | 81 | 292 | 2.0 | 7.0 | 0.00 | 0.00 | 0.00 | 75 | 1018.9 |
| 20260906020804 | 81 | 290 | 1.0 | 7.0 | 0.00 | 0.00 | 0.00 | 75 | 1018.9 |
| 20260906020704 | 81 | 290 | 1.0 | 7.0 | 0.00 | 0.00 | 0.00 | 75 | 1018.8 |
| 20260906020604 | 81 | 287 | 1.0 | 6.0 | 0.00 | 0.00 | 0.00 | 75 | 1018.8 |
| 20260906020504 | 81 | 290 | 1.0 | 6.0 | 0.00 | 0.00 | 0.00 | 75 | 1018.9 |
| 20260906020404 | 81 | 290 | 1.0 | 6.0 | 0.00 | 0.00 | 0.00 | 75 | 1018.9 |
| 20260906020304 | 81 | 289 | 1.0 | 6.0 | 0.00 | 0.00 | 0.00 | 75 | 1018.9 |
| 20260906020204 | 81 | 285 | 1.0 | 4.0 | 0.00 | 0.00 | 0.00 | 75 | 1018.9 |
| 20260906020104 | 81 | 292 | 1.0 | 5.0 | 0.00 | 0.00 | 0.00 | 75 | 1018.9 |
| 20260906020004 | 81 | 292 | 1.0 | 5.0 | 0.00 | 0.00 | 0.00 | 75 | 1018.9 |
| 20260906015904 | 81 | 296 | 1.0 | 5.0 | 0.00 | 0.00 | 0.00 | 75 | 1018.8 |
| 20260906015804 | 81 | 300 | 1.0 | 5.0 | 0.00 | 0.00 | 0.00 | 75 | 1018.9 |
| 20260906015704 | 80 | 300 | 1.0 | 5.0 | 0.00 | 0.00 | 0.00 | 75 | 1018.8 |
| 20260906015604 | 81 | 299 | 1.0 | 5.0 | 0.00 | 0.00 | 0.00 | 75 | 1018.9 |
| 20260906015504 | 81 | 301 | 2.0 | 5.0 | 0.00 | 0.00 | 0.00 | 75 | 1018.9 |
| 20260906015404 | 81 | 302 | 2.0 | 5.0 | 0.00 | 0.00 | 0.00 | 75 | 1018.7 |
| 20260906015306 | 81 | 304 | 1.0 | 5.0 | 0.00 | 0.00 | 0.00 | 75 | 1018.8 |
| 20260906015204 | 81 | 306 | 1.0 | 5.0 | 0.00 | 0.00 | 0.00 | 75 | 1018.9 |
| 20260906015104 | 81 | 309 | 1.0 | 5.0 | 0.00 | 0.00 | 0.00 | 75 | 1018.8 |
| 20260906015004 | 81 | 305 | 1.0 | 6.0 | 0.00 | 0.00 | 0.00 | 75 | 1018.8 |
| 20260906014904 | 81 | 303 | 1.0 | 6.0 | 0.00 | 0.00 | 0.00 | 75 | 1018.9 |
| 20260906014804 | 81 | 301 | 1.0 | 6.0 | 0.00 | 0.00 | 0.00 | 75 | 1018.8 |
| 20260906014704 | 81 | 304 | 1.0 | 6.0 | 0.00 | 0.00 | 0.00 | 75 | 1018.9 |
| 20260906014604 | 81 | 303 | 1.0 | 6.0 | 0.00 | 0.00 | 0.00 | 75 | 1018.9 |
| 20260906014504 | 81 | 298 | 1.0 | 6.0 | 0.00 | 0.00 | 0.00 | 75 | 1018.9 |
| 20260906014404 | 81 | 297 | 1.0 | 6.0 | 0.00 | 0.00 | 0.00 | 75 | 1018.9 |
| 20260906014304 | 81 | 298 | 2.0 | 7.0 | 0.00 | 0.00 | 0.00 | 75 | 1018.9 |
| 20260906014204 | 81 | 298 | 2.0 | 7.0 | 0.00 | 0.00 | 0.00 | 75 | 1018.8 |
| 20260906014104 | 81 | 297 | 2.0 | 7.0 | 0.00 | 0.00 | 0.00 | 75 | 1018.8 |
| 20260906014003 | 81 | 296 | 2.0 | 7.0 | 0.00 | 0.00 | 0.00 | 75 | 1018.8 |
| 20260906013903 | 81 | 296 | 2.0 | 7.0 | 0.00 | 0.00 | 0.00 | 75 | 1018.8 |
| 20260906013804 | 81 | 297 | 2.0 | 7.0 | 0.00 | 0.00 | 0.00 | 75 | 1018.8 |
| 20260906013703 | 81 | 296 | 3.0 | 8.0 | 0.00 | 0.00 | 0.00 | 75 | 1018.8 |
| 20260906013603 | 81 | 296 | 3.0 | 8.0 | 0.00 | 0.00 | 0.00 | 75 | 1018.8 |
| 20260906013503 | 81 | 297 | 3.0 | 8.0 | 0.00 | 0.00 | 0.00 | 75 | 1018.9 |
| 20260906013403 | 81 | 298 | 3.0 | 8.0 | 0.00 | 0.00 | 0.00 | 75 | 1018.9 |
| 20260906013303 | 81 | 298 | 3.0 | 9.0 | 0.00 | 0.00 | 0.00 | 75 | 1018.9 |
| 20260906013203 | 81 | 299 | 3.0 | 9.0 | 0.00 | 0.00 | 0.00 | 75 | 1019.0 |
| 20260906013104 | 81 | 298 | 3.0 | 9.0 | 0.00 | 0.00 | 0.00 | 75 | 1018.9 |
| 20260906013003 | 81 | 299 | 2.0 | 9.0 | 0.00 | 0.00 | 0.00 | 75 | 1018.9 |
| 20260906012903 | 81 | 299 | 2.0 | 9.0 | 0.00 | 0.00 | 0.00 | 75 | 1018.8 |
| 20260906012803 | 81 | 299 | 2.0 | 9.0 | 0.00 | 0.00 | 0.00 | 75 | 1018.9 |
| 20260906012703 | 81 | 304 | 2.0 | 9.0 | 0.00 | 0.00 | 0.00 | 75 | 1018.9 |
| 20260906012603 | 81 | 306 | 2.0 | 9.0 | 0.00 | 0.00 | 0.00 | 75 | 1018.9 |
| 20260906012503 | 81 | 305 | 2.0 | 9.0 | 0.00 | 0.00 | 0.00 | 75 | 1018.9 |
| 20260906012403 | 81 | 300 | 2.0 | 9.0 | 0.00 | 0.00 | 0.00 | 75 | 1018.9 |
| 20260906012306 | 81 | 297 | 3.0 | 6.0 | 0.00 | 0.00 | 0.00 | 75 | 1019.0 |
| 20260906012203 | 81 | 295 | 3.0 | 6.0 | 0.00 | 0.00 | 0.00 | 75 | 1019.0 |
| 20260906012103 | 81 | 294 | 3.0 | 6.0 | 0.00 | 0.00 | 0.00 | 75 | 1018.9 |
| 20260906012003 | 81 | 295 | 3.0 | 6.0 | 0.00 | 0.00 | 0.00 | 75 | 1018.9 |
| 20260906011903 | 81 | 295 | 3.0 | 6.0 | 0.00 | 0.00 | 0.00 | 75 | 1018.9 |
| 20260906011803 | 81 | 295 | 3.0 | 6.0 | 0.00 | 0.00 | 0.00 | 75 | 1019.0 |
| 20260906011703 | 81 | 292 | 3.0 | 6.0 | 0.00 | 0.00 | 0.00 | 75 | 1019.0 |
| 20260906011603 | 81 | 291 | 3.0 | 7.0 | 0.00 | 0.00 | 0.00 | 75 | 1018.9 |
| 20260906011503 | 81 | 292 | 3.0 | 7.0 | 0.00 | 0.00 | 0.00 | 75 | 1018.9 |
| 20260906011403 | 81 | 293 | 3.0 | 8.0 | 0.00 | 0.00 | 0.00 | 75 | 1018.9 |
| 20260906011303 | 81 | 292 | 3.0 | 9.0 | 0.00 | 0.00 | 0.00 | 75 | 1018.8 |
| 20260906011203 | 81 | 293 | 3.0 | 9.0 | 0.00 | 0.00 | 0.00 | 75 | 1018.9 |
| 20260906011103 | 81 | 294 | 3.0 | 9.0 | 0.00 | 0.00 | 0.00 | 75 | 1018.9 |
| 20260906011003 | 81 | 293 | 4.0 | 9.0 | 0.00 | 0.00 | 0.00 | 75 | 1018.9 |
| 20260906010903 | 81 | 293 | 3.0 | 9.0 | 0.00 | 0.00 | 0.00 | 75 | 1018.8 |
| 20260906010803 | 81 | 292 | 4.0 | 9.0 | 0.00 | 0.00 | 0.00 | 75 | 1018.8 |
| 20260906010703 | 81 | 292 | 4.0 | 9.0 | 0.00 | 0.00 | 0.00 | 75 | 1018.8 |
| 20260906010603 | 81 | 294 | 4.0 | 9.0 | 0.00 | 0.00 | 0.00 | 75 | 1018.8 |
| 20260906010503 | 81 | 294 | 4.0 | 9.0 | 0.00 | 0.00 | 0.00 | 75 | 1018.9 |
| 20260906010403 | 81 | 293 | 4.0 | 9.0 | 0.00 | 0.00 | 0.00 | 75 | 1018.8 |
| 20260906010303 | 81 | 294 | 4.0 | 8.0 | 0.00 | 0.00 | 0.00 | 75 | 1018.8 |
| 20260906010203 | 81 | 294 | 4.0 | 8.0 | 0.00 | 0.00 | 0.00 | 75 | 1018.8 |
| 20260906010103 | 81 | 292 | 4.0 | 8.0 | 0.00 | 0.00 | 0.00 | 75 | 1018.8 |
| 20260906010003 | 81 | 292 | 4.0 | 8.0 | 0.00 | 0.00 | 0.00 | 75 | 1018.8 |
| 20260906005903 | 81 | 292 | 4.0 | 8.0 | 0.00 | 0.00 | 0.00 | 75 | 1018.9 |
| 20260906005803 | 81 | 292 | 4.0 | 8.0 | 0.00 | 0.00 | 0.00 | 75 | 1018.9 |
| 20260906005703 | 81 | 293 | 4.0 | 8.0 | 0.00 | 0.00 | 0.00 | 75 | 1018.9 |
| 20260906005603 | 81 | 291 | 3.0 | 7.0 | 0.00 | 0.00 | 0.00 | 75 | 1018.9 |
| 20260906005503 | 81 | 295 | 3.0 | 7.0 | 0.00 | 0.00 | 0.00 | 75 | 1018.8 |
| 20260906005403 | 81 | 294 | 3.0 | 7.0 | 0.00 | 0.00 | 0.00 | 75 | 1018.8 |
| 20260906005306 | 81 | 295 | 3.0 | 8.0 | 0.00 | 0.00 | 0.00 | 75 | 1018.8 |
| 20260906005203 | 81 | 294 | 2.0 | 8.0 | 0.00 | 0.00 | 0.00 | 75 | 1018.9 |
| 20260906005103 | 81 | 296 | 2.0 | 8.0 | 0.00 | 0.00 | 0.00 | 75 | 1018.7 |
| 20260906005003 | 81 | 299 | 2.0 | 8.0 | 0.00 | 0.00 | 0.00 | 75 | 1018.8 |
| 20260906004903 | 81 | 301 | 2.0 | 8.0 | 0.00 | 0.00 | 0.00 | 75 | 1018.7 |
| 20260906004803 | 81 | 300 | 2.0 | 8.0 | 0.00 | 0.00 | 0.00 | 75 | 1018.8 |
| 20260906004703 | 81 | 299 | 2.0 | 8.0 | 0.00 | 0.00 | 0.00 | 75 | 1018.8 |
| 20260906004603 | 81 | 299 | 2.0 | 8.0 | 0.00 | 0.00 | 0.00 | 75 | 1018.8 |
| 20260906004503 | 81 | 297 | 2.0 | 8.0 | 0.00 | 0.00 | 0.00 | 75 | 1018.8 |
| 20260906004403 | 81 | 297 | 3.0 | 8.0 | 0.00 | 0.00 | 0.00 | 75 | 1018.8 |
| 20260906004303 | 81 | 297 | 2.0 | 7.0 | 0.00 | 0.00 | 0.00 | 75 | 1018.9 |
| 20260906004203 | 81 | 297 | 2.0 | 7.0 | 0.00 | 0.00 | 0.00 | 75 | 1018.8 |
| 20260906004103 | 81 | 298 | 2.0 | 7.0 | 0.00 | 0.00 | 0.00 | 75 | 1018.8 |
| 20260906004003 | 81 | 297 | 2.0 | 7.0 | 0.00 | 0.00 | 0.00 | 75 | 1018.8 |
| 20260906003903 | 81 | 299 | 3.0 | 7.0 | 0.00 | 0.00 | 0.00 | 75 | 1018.8 |
| 20260906003803 | 81 | 299 | 2.0 | 7.0 | 0.00 | 0.00 | 0.00 | 75 | 1018.7 |
| 20260906003703 | 81 | 298 | 3.0 | 7.0 | 0.00 | 0.00 | 0.00 | 75 | 1018.8 |
| 20260906003603 | 81 | 298 | 3.0 | 7.0 | 0.00 | 0.00 | 0.00 | 75 | 1018.9 |
| 20260906003503 | 81 | 297 | 3.0 | 7.0 | 0.00 | 0.00 | 0.00 | 75 | 1018.9 |
| 20260906003403 | 81 | 296 | 3.0 | 7.0 | 0.00 | 0.00 | 0.00 | 75 | 1018.8 |
| 20260906003303 | 81 | 298 | 3.0 | 7.0 | 0.00 | 0.00 | 0.00 | 75 | 1018.9 |
| 20260906003203 | 81 | 299 | 3.0 | 7.0 | 0.00 | 0.00 | 0.00 | 75 | 1018.8 |
| 20260906003103 | 81 | 299 | 3.0 | 7.0 | 0.00 | 0.00 | 0.00 | 75 | 1018.9 |
| 20260906003003 | 81 | 299 | 3.0 | 7.0 | 0.00 | 0.00 | 0.00 | 75 | 1018.9 |
| 20260906002903 | 81 | 298 | 2.0 | 7.0 | 0.00 | 0.00 | 0.00 | 75 | 1018.7 |
| 20260906002803 | 81 | 299 | 2.0 | 7.0 | 0.00 | 0.00 | 0.00 | 76 | 1018.9 |
| 20260906002703 | 81 | 299 | 2.0 | 7.0 | 0.00 | 0.00 | 0.00 | 75 | 1018.9 |
| 20260906002603 | 81 | 299 | 2.0 | 7.0 | 0.00 | 0.00 | 0.00 | 76 | 1018.9 |
| 20260906002503 | 81 | 300 | 2.0 | 7.0 | 0.00 | 0.00 | 0.00 | 75 | 1018.8 |
| 20260906002403 | 81 | 302 | 2.0 | 7.0 | 0.00 | 0.00 | 0.00 | 75 | 1018.8 |
| 20260906002305 | 81 | 300 | 2.0 | 7.0 | 0.00 | 0.00 | 0.00 | 76 | 1018.8 |
| 20260906002203 | 81 | 299 | 2.0 | 6.0 | 0.00 | 0.00 | 0.00 | 75 | 1018.8 |
| 20260906002103 | 81 | 299 | 2.0 | 6.0 | 0.00 | 0.00 | 0.00 | 75 | 1018.9 |
| 20260906002003 | 81 | 300 | 2.0 | 6.0 | 0.00 | 0.00 | 0.00 | 76 | 1018.7 |
| 20260906001904 | 81 | 304 | 2.0 | 6.0 | 0.00 | 0.00 | 0.00 | 76 | 1018.8 |
| 20260906001804 | 81 | 301 | 2.0 | 7.0 | 0.00 | 0.00 | 0.00 | 76 | 1018.8 |
| 20260906001704 | 81 | 302 | 2.0 | 7.0 | 0.00 | 0.00 | 0.00 | 76 | 1018.9 |
| 20260906001604 | 81 | 302 | 2.0 | 7.0 | 0.00 | 0.00 | 0.00 | 76 | 1018.9 |
| 20260906001504 | 81 | 302 | 2.0 | 7.0 | 0.00 | 0.00 | 0.00 | 76 | 1018.9 |
| 20260906001404 | 81 | 300 | 2.0 | 7.0 | 0.00 | 0.00 | 0.00 | 76 | 1018.9 |
| 20260906001304 | 81 | 300 | 2.0 | 7.0 | 0.00 | 0.00 | 0.00 | 76 | 1018.9 |
| 20260906001204 | 81 | 300 | 3.0 | 9.0 | 0.00 | 0.00 | 0.00 | 76 | 1018.9 |
| 20260906001104 | 81 | 300 | 3.0 | 9.0 | 0.00 | 0.00 | 0.00 | 76 | 1019.0 |
| 20260906001004 | 81 | 300 | 3.0 | 9.0 | 0.00 | 0.00 | 0.00 | 76 | 1019.1 |
| 20260906000904 | 81 | 296 | 3.0 | 9.0 | 0.00 | 0.00 | 0.00 | 76 | 1019.1 |
| 20260906000804 | 81 | 298 | 3.0 | 9.0 | 0.00 | 0.00 | 0.00 | 76 | 1019.1 |
| 20260906000704 | 81 | 298 | 4.0 | 9.0 | 0.00 | 0.00 | 0.00 | 76 | 1019.0 |
| 20260906000604 | 81 | 298 | 4.0 | 9.0 | 0.00 | 0.00 | 0.00 | 76 | 1019.1 |
| 20260906000504 | 81 | 298 | 4.0 | 9.0 | 0.00 | 0.00 | 0.00 | 76 | 1019.1 |
| 20260906000404 | 81 | 299 | 4.0 | 9.0 | 0.00 | 0.00 | 0.00 | 76 | 1019.2 |
| 20260906000304 | 81 | 298 | 4.0 | 9.0 | 0.00 | 0.00 | 0.00 | 76 | 1019.1 |
| 20260906000204 | 81 | 298 | 4.0 | 8.0 | 0.00 | 0.00 | 0.00 | 76 | 1019.1 |
| 20260906000104 | 81 | 298 | 3.0 | 7.0 | 0.00 | 0.00 | 0.00 | 76 | 1019.1 |
| 20260906000004 | 81 | 298 | 3.0 | 7.0 | 0.00 | 0.00 | 0.00 | 76 | 1019.1 |
| 20260905235904 | 81 | 298 | 3.0 | 7.0 | 0.00 | 0.00 | 0.00 | 76 | 1019.1 |
| 20260905235804 | 81 | 298 | 3.0 | 7.0 | 0.00 | 0.00 | 0.00 | 76 | 1019.2 |
| 20260905235704 | 81 | 298 | 2.0 | 6.0 | 0.00 | 0.00 | 0.00 | 75 | 1019.2 |
| 20260905235604 | 81 | 298 | 2.0 | 6.0 | 0.00 | 0.00 | 0.00 | 76 | 1019.3 |
| 20260905235504 | 81 | 297 | 2.0 | 6.0 | 0.00 | 0.00 | 0.00 | 75 | 1019.2 |
| 20260905235404 | 81 | 298 | 2.0 | 6.0 | 0.00 | 0.00 | 0.00 | 76 | 1019.3 |
| 20260905235306 | 81 | 299 | 1.0 | 6.0 | 0.00 | 0.00 | 0.00 | 75 | 1019.3 |
| 20260905235204 | 81 | 298 | 1.0 | 5.0 | 0.00 | 0.00 | 0.00 | 76 | 1019.2 |
| 20260905235104 | 81 | 297 | 1.0 | 5.0 | 0.00 | 0.00 | 0.00 | 76 | 1019.3 |
| 20260905235004 | 81 | 298 | 1.0 | 5.0 | 0.00 | 0.00 | 0.00 | 76 | 1019.3 |
| 20260905234904 | 81 | 304 | 1.0 | 3.0 | 0.00 | 0.00 | 0.00 | 76 | 1019.2 |
| 20260905234804 | 81 | 305 | 1.0 | 5.0 | 0.00 | 0.00 | 0.00 | 76 | 1019.2 |
| 20260905234704 | 81 | 304 | 1.0 | 5.0 | 0.00 | 0.00 | 0.00 | 76 | 1019.3 |
| 20260905234604 | 81 | 303 | 1.0 | 5.0 | 0.00 | 0.00 | 0.00 | 76 | 1019.3 |
| 20260905234504 | 81 | 302 | 1.0 | 5.0 | 0.00 | 0.00 | 0.00 | 76 | 1019.3 |
| 20260905234404 | 81 | 301 | 1.0 | 5.0 | 0.00 | 0.00 | 0.00 | 76 | 1019.2 |
| 20260905234304 | 81 | 302 | 1.0 | 5.0 | 0.00 | 0.00 | 0.00 | 76 | 1019.3 |
| 20260905234204 | 81 | 300 | 2.0 | 5.0 | 0.00 | 0.00 | 0.00 | 76 | 1019.3 |
| 20260905234104 | 81 | 300 | 2.0 | 6.0 | 0.00 | 0.00 | 0.00 | 76 | 1019.3 |
| 20260905234004 | 81 | 298 | 2.0 | 6.0 | 0.00 | 0.00 | 0.00 | 76 | 1019.3 |
| 20260905233904 | 81 | 297 | 2.0 | 6.0 | 0.00 | 0.00 | 0.00 | 76 | 1019.3 |
| 20260905233804 | 81 | 297 | 2.0 | 6.0 | 0.00 | 0.00 | 0.00 | 76 | 1019.4 |
| 20260905233704 | 81 | 297 | 2.0 | 6.0 | 0.00 | 0.00 | 0.00 | 76 | 1019.3 |
| 20260905233603 | 81 | 297 | 2.0 | 6.0 | 0.00 | 0.00 | 0.00 | 76 | 1019.4 |
| 20260905233503 | 81 | 296 | 2.0 | 6.0 | 0.00 | 0.00 | 0.00 | 76 | 1019.4 |
| 20260905233404 | 81 | 296 | 2.0 | 6.0 | 0.00 | 0.00 | 0.00 | 76 | 1019.4 |
| 20260905233303 | 81 | 297 | 2.0 | 6.0 | 0.00 | 0.00 | 0.00 | 76 | 1019.4 |
| 20260905233203 | 81 | 295 | 2.0 | 6.0 | 0.00 | 0.00 | 0.00 | 76 | 1019.4 |
| 20260905233103 | 81 | 293 | 1.0 | 6.0 | 0.00 | 0.00 | 0.00 | 76 | 1019.4 |
| 20260905233004 | 81 | 295 | 1.0 | 6.0 | 0.00 | 0.00 | 0.00 | 76 | 1019.4 |
| 20260905232903 | 81 | 295 | 1.0 | 6.0 | 0.00 | 0.00 | 0.00 | 76 | 1019.4 |
| 20260905232804 | 81 | 295 | 1.0 | 6.0 | 0.00 | 0.00 | 0.00 | 76 | 1019.4 |
| 20260905232703 | 81 | 294 | 2.0 | 6.0 | 0.00 | 0.00 | 0.00 | 76 | 1019.4 |
| 20260905232604 | 81 | 294 | 2.0 | 6.0 | 0.00 | 0.00 | 0.00 | 76 | 1019.3 |
| 20260905232504 | 81 | 295 | 2.0 | 6.0 | 0.00 | 0.00 | 0.00 | 76 | 1019.5 |
| 20260905232403 | 81 | 295 | 2.0 | 6.0 | 0.00 | 0.00 | 0.00 | 76 | 1019.4 |
| 20260905232306 | 81 | 293 | 2.0 | 5.0 | 0.00 | 0.00 | 0.00 | 76 | 1019.4 |
| 20260905232203 | 81 | 293 | 2.0 | 5.0 | 0.00 | 0.00 | 0.00 | 76 | 1019.5 |
| 20260905232104 | 81 | 293 | 1.0 | 4.0 | 0.00 | 0.00 | 0.00 | 76 | 1019.5 |
| 20260905232004 | 81 | 292 | 1.0 | 4.0 | 0.00 | 0.00 | 0.00 | 76 | 1019.4 |
| 20260905231903 | 81 | 292 | 2.0 | 4.0 | 0.00 | 0.00 | 0.00 | 76 | 1019.4 |
| 20260905231803 | 81 | 292 | 1.0 | 4.0 | 0.00 | 0.00 | 0.00 | 76 | 1019.5 |
| 20260905231703 | 81 | 292 | 1.0 | 4.0 | 0.00 | 0.00 | 0.00 | 76 | 1019.5 |
| 20260905231603 | 81 | 292 | 2.0 | 4.0 | 0.00 | 0.00 | 0.00 | 76 | 1019.4 |
| 20260905231503 | 81 | 292 | 2.0 | 4.0 | 0.00 | 0.00 | 0.00 | 76 | 1019.4 |
| 20260905231403 | 81 | 292 | 1.0 | 3.0 | 0.00 | 0.00 | 0.00 | 76 | 1019.5 |
| 20260905231303 | 81 | 292 | 1.0 | 3.0 | 0.00 | 0.00 | 0.00 | 75 | 1019.4 |
| 20260905231204 | 81 | 292 | 1.0 | 3.0 | 0.00 | 0.00 | 0.00 | 76 | 1019.4 |
| 20260905231003 | 81 | 293 | 1.0 | 6.0 | 0.00 | 0.00 | 0.00 | 75 | 1019.4 |
| 20260905230903 | 81 | 293 | 1.0 | 6.0 | 0.00 | 0.00 | 0.00 | 75 | 1019.4 |
| 20260905230803 | 81 | 293 | 1.0 | 6.0 | 0.00 | 0.00 | 0.00 | 75 | 1019.4 |
| 20260905230703 | 81 | 292 | 1.0 | 3.0 | 0.00 | 0.00 | 0.00 | 75 | 1019.5 |
| 20260905230603 | 81 | 291 | 1.0 | 4.0 | 0.00 | 0.00 | 0.00 | 75 | 1019.5 |
| 20260905230504 | 81 | 291 | 1.0 | 4.0 | 0.00 | 0.00 | 0.00 | 75 | 1019.4 |
| 20260905230404 | 81 | 293 | 1.0 | 4.0 | 0.00 | 0.00 | 0.00 | 76 | 1019.4 |
| 20260905230304 | 81 | 293 | 1.0 | 6.0 | 0.00 | 0.00 | 0.00 | 75 | 1019.5 |
| 20260905230204 | 81 | 292 | 1.0 | 6.0 | 0.00 | 0.00 | 0.00 | 76 | 1019.5 |
| 20260905230104 | 81 | 290 | 1.0 | 6.0 | 0.00 | 0.00 | 0.00 | 75 | 1019.5 |
| 20260905230004 | 81 | 290 | 1.0 | 6.0 | 0.00 | 0.00 | 0.00 | 75 | 1019.6 |
| 20260905225904 | 81 | 291 | 1.0 | 6.0 | 0.00 | 0.00 | 0.00 | 75 | 1019.5 |
| 20260905225804 | 81 | 293 | 1.0 | 6.0 | 0.00 | 0.00 | 0.00 | 75 | 1019.5 |
| 20260905225704 | 81 | 293 | 1.0 | 6.0 | 0.00 | 0.00 | 0.00 | 75 | 1019.5 |
| 20260905225604 | 81 | 294 | 2.0 | 6.0 | 0.00 | 0.00 | 0.00 | 75 | 1019.6 |
| 20260905225504 | 81 | 293 | 2.0 | 6.0 | 0.00 | 0.00 | 0.00 | 75 | 1019.5 |
| 20260905225404 | 81 | 294 | 2.0 | 6.0 | 0.00 | 0.00 | 0.00 | 75 | 1019.6 |
| 20260905225305 | 82 | 295 | 2.0 | 5.0 | 0.00 | 0.00 | 0.00 | 75 | 1019.5 |
| 20260905225204 | 81 | 297 | 2.0 | 5.0 | 0.00 | 0.00 | 0.00 | 75 | 1019.6 |
| 20260905225104 | 81 | 300 | 2.0 | 5.0 | 0.00 | 0.00 | 0.00 | 75 | 1019.5 |
| 20260905225004 | 82 | 300 | 2.0 | 5.0 | 0.00 | 0.00 | 0.00 | 75 | 1019.6 |
| 20260905224904 | 82 | 300 | 2.0 | 7.0 | 0.00 | 0.00 | 0.00 | 75 | 1019.5 |
| 20260905224804 | 82 | 299 | 2.0 | 7.0 | 0.00 | 0.00 | 0.00 | 75 | 1019.6 |
| 20260905224704 | 82 | 298 | 3.0 | 7.0 | 0.00 | 0.00 | 0.00 | 75 | 1019.5 |
| 20260905224604 | 82 | 298 | 3.0 | 7.0 | 0.00 | 0.00 | 0.00 | 75 | 1019.5 |
| 20260905224504 | 82 | 299 | 3.0 | 7.0 | 0.00 | 0.00 | 0.00 | 75 | 1019.5 |
| 20260905224404 | 82 | 298 | 3.0 | 7.0 | 0.00 | 0.00 | 0.00 | 75 | 1019.6 |
| 20260905224306 | 82 | 299 | 2.0 | 7.0 | 0.00 | 0.00 | 0.00 | 74 | 1019.6 |
| 20260905224204 | 82 | 300 | 2.0 | 7.0 | 0.00 | 0.00 | 0.00 | 75 | 1019.6 |
| 20260905224104 | 82 | 300 | 3.0 | 7.0 | 0.00 | 0.00 | 0.00 | 75 | 1019.6 |
| 20260905224004 | 82 | 299 | 3.0 | 7.0 | 0.00 | 0.00 | 0.00 | 75 | 1019.5 |
| 20260905223904 | 82 | 299 | 3.0 | 7.0 | 0.00 | 0.00 | 0.00 | 74 | 1019.5 |
| 20260905223804 | 82 | 298 | 3.0 | 7.0 | 0.00 | 0.00 | 0.00 | 74 | 1019.6 |
| 20260905223704 | 82 | 298 | 3.0 | 7.0 | 0.00 | 0.00 | 0.00 | 74 | 1019.6 |
| 20260905223604 | 82 | 298 | 3.0 | 7.0 | 0.00 | 0.00 | 0.00 | 74 | 1019.6 |
| 20260905223504 | 82 | 298 | 3.0 | 7.0 | 0.00 | 0.00 | 0.00 | 74 | 1019.5 |
| 20260905223404 | 82 | 298 | 3.0 | 7.0 | 0.00 | 0.00 | 0.00 | 74 | 1019.6 |
| 20260905223304 | 82 | 297 | 2.0 | 7.0 | 0.00 | 0.00 | 0.00 | 74 | 1019.6 |
| 20260905223204 | 82 | 296 | 2.0 | 6.0 | 0.00 | 0.00 | 0.00 | 74 | 1019.5 |
| 20260905223104 | 82 | 296 | 3.0 | 6.0 | 0.00 | 0.00 | 0.00 | 74 | 1019.6 |
| 20260905223004 | 82 | 295 | 3.0 | 6.0 | 0.00 | 0.00 | 0.00 | 74 | 1019.7 |
| 20260905222904 | 82 | 297 | 3.0 | 6.0 | 0.00 | 0.00 | 0.00 | 74 | 1019.6 |
| 20260905222804 | 82 | 298 | 3.0 | 6.0 | 0.00 | 0.00 | 0.00 | 74 | 1019.6 |
| 20260905222704 | 82 | 299 | 3.0 | 6.0 | 0.00 | 0.00 | 0.00 | 74 | 1019.5 |
| 20260905222604 | 82 | 299 | 3.0 | 6.0 | 0.00 | 0.00 | 0.00 | 74 | 1019.6 |
| 20260905222504 | 82 | 299 | 3.0 | 6.0 | 0.00 | 0.00 | 0.00 | 74 | 1019.6 |
| 20260905222404 | 82 | 298 | 3.0 | 6.0 | 0.00 | 0.00 | 0.00 | 74 | 1019.6 |
| 20260905222306 | 82 | 298 | 3.0 | 6.0 | 0.00 | 0.00 | 0.00 | 74 | 1019.6 |
| 20260905222204 | 82 | 298 | 3.0 | 6.0 | 0.00 | 0.00 | 0.00 | 74 | 1019.6 |
| 20260905222104 | 82 | 298 | 3.0 | 6.0 | 0.00 | 0.00 | 0.00 | 74 | 1019.6 |
| 20260905222004 | 82 | 299 | 3.0 | 6.0 | 0.00 | 0.00 | 0.00 | 74 | 1019.5 |
| 20260905221904 | 82 | 298 | 3.0 | 6.0 | 0.00 | 0.00 | 0.00 | 73 | 1019.6 |
| 20260905221804 | 82 | 298 | 3.0 | 6.0 | 0.00 | 0.00 | 0.00 | 73 | 1019.6 |
| 20260905221703 | 82 | 299 | 3.0 | 6.0 | 0.00 | 0.00 | 0.00 | 73 | 1019.6 |
| 20260905221604 | 82 | 301 | 3.0 | 6.0 | 0.00 | 0.00 | 0.00 | 73 | 1019.5 |
| 20260905221503 | 82 | 301 | 3.0 | 6.0 | 0.00 | 0.00 | 0.00 | 73 | 1019.6 |
| 20260905221404 | 82 | 301 | 3.0 | 6.0 | 0.00 | 0.00 | 0.00 | 73 | 1019.6 |
| 20260905221303 | 82 | 301 | 3.0 | 6.0 | 0.00 | 0.00 | 0.00 | 73 | 1019.5 |
| 20260905221204 | 82 | 301 | 2.0 | 6.0 | 0.00 | 0.00 | 0.00 | 73 | 1019.6 |
| 20260905221104 | 82 | 301 | 2.0 | 6.0 | 0.00 | 0.00 | 0.00 | 73 | 1019.6 |
| 20260905221003 | 82 | 302 | 2.0 | 6.0 | 0.00 | 0.00 | 0.00 | 73 | 1019.6 |
| 20260905220904 | 82 | 301 | 2.0 | 6.0 | 0.00 | 0.00 | 0.00 | 73 | 1019.6 |
| 20260905220803 | 82 | 300 | 2.0 | 5.0 | 0.00 | 0.00 | 0.00 | 73 | 1019.6 |
| 20260905220703 | 82 | 298 | 2.0 | 5.0 | 0.00 | 0.00 | 0.00 | 72 | 1019.6 |
| 20260905220603 | 82 | 295 | 1.0 | 5.0 | 0.00 | 0.00 | 0.00 | 72 | 1019.5 |
| 20260905220503 | 82 | 292 | 1.0 | 5.0 | 0.00 | 0.00 | 0.00 | 72 | 1019.5 |
| 20260905220403 | 82 | 291 | 1.0 | 4.0 | 0.00 | 0.00 | 0.00 | 72 | 1019.5 |
| 20260905220303 | 82 | 291 | 0.0 | 4.0 | 0.00 | 0.00 | 0.00 | 72 | 1019.6 |
| 20260905220204 | 82 | 291 | 0.0 | 4.0 | 0.00 | 0.00 | 0.00 | 72 | 1019.5 |
| 20260905220104 | 82 | 292 | 0.0 | 4.0 | 0.00 | 0.00 | 0.00 | 72 | 1019.5 |
| 20260905215903 | 82 | 292 | 1.0 | 4.0 | 0.00 | 0.00 | 0.00 | 72 | 1019.4 |
| 20260905215803 | 82 | 292 | 1.0 | 5.0 | 0.00 | 0.00 | 0.00 | 72 | 1019.5 |
| 20260905215703 | 82 | 292 | 1.0 | 5.0 | 0.00 | 0.00 | 0.00 | 72 | 1019.5 |
| 20260905215603 | 82 | 294 | 1.0 | 5.0 | 0.00 | 0.00 | 0.00 | 72 | 1019.5 |
| 20260905215503 | 82 | 293 | 1.0 | 5.0 | 0.00 | 0.00 | 0.00 | 72 | 1019.5 |
| 20260905215403 | 82 | 293 | 1.0 | 5.0 | 0.00 | 0.00 | 0.00 | 72 | 1019.5 |
| 20260905215306 | 82 | 293 | 1.0 | 5.0 | 0.00 | 0.00 | 0.00 | 72 | 1019.5 |
| 20260905215203 | 82 | 293 | 1.0 | 5.0 | 0.00 | 0.00 | 0.00 | 72 | 1019.5 |
| 20260905215103 | 82 | 293 | 1.0 | 5.0 | 0.00 | 0.00 | 0.00 | 72 | 1019.5 |
| 20260905215003 | 82 | 293 | 1.0 | 5.0 | 0.00 | 0.00 | 0.00 | 72 | 1019.5 |
| 20260905214903 | 82 | 293 | 2.0 | 5.0 | 0.00 | 0.00 | 0.00 | 72 | 1019.5 |
| 20260905214803 | 82 | 293 | 1.0 | 5.0 | 0.00 | 0.00 | 0.00 | 72 | 1019.5 |
| 20260905214703 | 82 | 293 | 1.0 | 4.0 | 0.00 | 0.00 | 0.00 | 72 | 1019.5 |
| 20260905214603 | 82 | 291 | 1.0 | 4.0 | 0.00 | 0.00 | 0.00 | 72 | 1019.5 |
| 20260905214503 | 82 | 293 | 1.0 | 5.0 | 0.00 | 0.00 | 0.00 | 72 | 1019.6 |
| 20260905214403 | 82 | 293 | 1.0 | 5.0 | 0.00 | 0.00 | 0.00 | 72 | 1019.5 |
| 20260905214303 | 82 | 294 | 1.0 | 5.0 | 0.00 | 0.00 | 0.00 | 72 | 1019.7 |
| 20260905214203 | 82 | 295 | 1.0 | 5.0 | 0.00 | 0.00 | 0.00 | 72 | 1019.6 |
| 20260905214103 | 82 | 296 | 1.0 | 5.0 | 0.00 | 0.00 | 0.00 | 72 | 1019.6 |
| 20260905214003 | 82 | 297 | 1.0 | 5.0 | 0.00 | 0.00 | 0.00 | 71 | 1019.6 |
| 20260905213903 | 82 | 298 | 1.0 | 5.0 | 0.00 | 0.00 | 0.00 | 71 | 1019.6 |
| 20260905213803 | 82 | 297 | 1.0 | 5.0 | 0.00 | 0.00 | 0.00 | 71 | 1019.6 |
| 20260905213703 | 82 | 298 | 1.0 | 5.0 | 0.00 | 0.00 | 0.00 | 71 | 1019.7 |
| 20260905213603 | 82 | 298 | 2.0 | 5.0 | 0.00 | 0.00 | 0.00 | 71 | 1019.7 |
| 20260905213503 | 82 | 297 | 1.0 | 5.0 | 0.00 | 0.00 | 0.00 | 71 | 1019.8 |
| 20260905213403 | 82 | 296 | 2.0 | 5.0 | 0.00 | 0.00 | 0.00 | 71 | 1019.7 |
| 20260905213303 | 82 | 297 | 2.0 | 6.0 | 0.00 | 0.00 | 0.00 | 71 | 1019.7 |
| 20260905213203 | 82 | 299 | 2.0 | 6.0 | 0.00 | 0.00 | 0.00 | 71 | 1019.7 |
| 20260905213103 | 82 | 297 | 2.0 | 6.0 | 0.00 | 0.00 | 0.00 | 71 | 1019.7 |
| 20260905213005 | 82 | 297 | 2.0 | 6.0 | 0.00 | 0.00 | 0.00 | 71 | 1019.7 |
| 20260905212903 | 82 | 298 | 3.0 | 6.0 | 0.00 | 0.00 | 0.00 | 71 | 1019.6 |
| 20260905212803 | 82 | 298 | 3.0 | 6.0 | 0.00 | 0.00 | 0.00 | 71 | 1019.7 |
| 20260905212703 | 82 | 297 | 3.0 | 6.0 | 0.00 | 0.00 | 0.00 | 71 | 1019.6 |
| 20260905212603 | 82 | 296 | 3.0 | 6.0 | 0.00 | 0.00 | 0.00 | 71 | 1019.7 |
| 20260905212503 | 82 | 296 | 3.0 | 6.0 | 0.00 | 0.00 | 0.00 | 71 | 1019.7 |
| 20260905212403 | 82 | 298 | 3.0 | 6.0 | 0.00 | 0.00 | 0.00 | 71 | 1019.7 |
| 20260905212306 | 82 | 297 | 3.0 | 6.0 | 0.00 | 0.00 | 0.00 | 71 | 1019.7 |
| 20260905212203 | 82 | 296 | 3.0 | 6.0 | 0.00 | 0.00 | 0.00 | 70 | 1019.7 |
| 20260905212103 | 82 | 296 | 3.0 | 6.0 | 0.00 | 0.00 | 0.00 | 70 | 1019.6 |
| 20260905212003 | 82 | 296 | 3.0 | 6.0 | 0.00 | 0.00 | 0.00 | 71 | 1019.6 |
| 20260905211903 | 82 | 296 | 3.0 | 6.0 | 0.00 | 0.00 | 0.00 | 70 | 1019.7 |
| 20260905211803 | 82 | 295 | 3.0 | 6.0 | 0.00 | 0.00 | 0.00 | 70 | 1019.6 |
| 20260905211705 | 82 | 296 | 3.0 | 6.0 | 0.00 | 0.00 | 0.00 | 70 | 1019.6 |
| 20260905211603 | 82 | 297 | 3.0 | 6.0 | 0.00 | 0.00 | 0.00 | 70 | 1019.6 |
| 20260905211503 | 82 | 297 | 3.0 | 6.0 | 0.00 | 0.00 | 0.00 | 70 | 1019.7 |
| 20260905211403 | 82 | 296 | 3.0 | 6.0 | 0.00 | 0.00 | 0.00 | 70 | 1019.7 |
| 20260905211304 | 82 | 296 | 3.0 | 6.0 | 0.00 | 0.00 | 0.00 | 70 | 1019.6 |
| 20260905211203 | 82 | 296 | 3.0 | 6.0 | 0.00 | 0.00 | 0.00 | 70 | 1019.7 |
| 20260905211103 | 82 | 296 | 3.0 | 6.0 | 0.00 | 0.00 | 0.00 | 70 | 1019.7 |
| 20260905211003 | 82 | 296 | 3.0 | 6.0 | 0.00 | 0.00 | 0.00 | 70 | 1019.6 |
| 20260905210903 | 82 | 297 | 3.0 | 5.0 | 0.00 | 0.00 | 0.00 | 70 | 1019.7 |
| 20260905210803 | 82 | 297 | 3.0 | 5.0 | 0.00 | 0.00 | 0.00 | 70 | 1019.6 |
| 20260905210703 | 82 | 298 | 2.0 | 5.0 | 0.00 | 0.00 | 0.00 | 70 | 1019.6 |
| 20260905210603 | 82 | 298 | 3.0 | 7.0 | 0.00 | 0.00 | 0.00 | 70 | 1019.6 |
| 20260905210503 | 82 | 297 | 3.0 | 7.0 | 0.00 | 0.00 | 0.00 | 70 | 1019.6 |
| 20260905210403 | 82 | 298 | 3.0 | 7.0 | 0.00 | 0.00 | 0.00 | 70 | 1019.6 |
| 20260905210303 | 82 | 298 | 3.0 | 7.0 | 0.00 | 0.00 | 0.00 | 70 | 1019.6 |
| 20260905210203 | 82 | 297 | 3.0 | 7.0 | 0.00 | 0.00 | 0.00 | 70 | 1019.6 |
| 20260905210103 | 82 | 297 | 3.0 | 7.0 | 0.00 | 0.00 | 0.00 | 70 | 1019.6 |
| 20260905210003 | 82 | 296 | 3.0 | 7.0 | 0.00 | 0.00 | 0.00 | 70 | 1019.6 |
| 20260905205903 | 82 | 295 | 3.0 | 7.0 | 0.00 | 0.00 | 0.00 | 70 | 1019.6 |
| 20260905205803 | 82 | 295 | 3.0 | 7.0 | 0.00 | 0.00 | 0.00 | 70 | 1019.5 |
| 20260905205704 | 82 | 294 | 3.0 | 7.0 | 0.00 | 0.00 | 0.00 | 70 | 1019.6 |
| 20260905205603 | 82 | 293 | 3.0 | 7.0 | 0.00 | 0.00 | 0.00 | 70 | 1019.5 |
| 20260905205503 | 82 | 295 | 3.0 | 7.0 | 0.00 | 0.00 | 0.00 | 70 | 1019.6 |
| 20260905205403 | 82 | 295 | 3.0 | 7.0 | 0.00 | 0.00 | 0.00 | 70 | 1019.6 |
| 20260905205306 | 82 | 296 | 3.0 | 6.0 | 0.00 | 0.00 | 0.00 | 70 | 1019.7 |
| 20260905205203 | 82 | 298 | 3.0 | 6.0 | 0.00 | 0.00 | 0.00 | 70 | 1019.7 |
| 20260905205103 | 82 | 298 | 3.0 | 7.0 | 0.00 | 0.00 | 0.00 | 70 | 1019.7 |
| 20260905205003 | 83 | 299 | 3.0 | 7.0 | 0.00 | 0.00 | 0.00 | 70 | 1019.7 |
| 20260905204903 | 82 | 301 | 3.0 | 7.0 | 0.00 | 0.00 | 0.00 | 70 | 1019.6 |
| 20260905204803 | 83 | 302 | 3.0 | 7.0 | 0.00 | 0.00 | 0.00 | 70 | 1019.8 |
| 20260905204703 | 83 | 301 | 3.0 | 7.0 | 0.00 | 0.00 | 0.00 | 70 | 1019.7 |
| 20260905204603 | 83 | 301 | 3.0 | 7.0 | 0.00 | 0.00 | 0.00 | 70 | 1019.8 |
| 20260905204503 | 83 | 301 | 3.0 | 7.0 | 0.00 | 0.00 | 0.00 | 70 | 1019.8 |
| 20260905204403 | 83 | 300 | 3.0 | 7.0 | 0.00 | 0.00 | 0.00 | 71 | 1019.8 |
| 20260905204303 | 83 | 298 | 3.0 | 7.0 | 0.00 | 0.00 | 0.00 | 71 | 1019.7 |
| 20260905204203 | 83 | 297 | 3.0 | 7.0 | 0.00 | 0.00 | 0.00 | 71 | 1019.7 |
| 20260905204103 | 83 | 297 | 3.0 | 7.0 | 0.00 | 0.00 | 0.00 | 70 | 1019.7 |
| 20260905204003 | 83 | 296 | 3.0 | 7.0 | 0.00 | 0.00 | 0.00 | 71 | 1019.8 |
| 20260905203903 | 83 | 294 | 3.0 | 6.0 | 0.00 | 0.00 | 0.00 | 70 | 1019.7 |
| 20260905203803 | 83 | 295 | 3.0 | 6.0 | 0.00 | 0.00 | 0.00 | 70 | 1019.7 |
| 20260905203703 | 83 | 296 | 3.0 | 8.0 | 0.00 | 0.00 | 0.00 | 70 | 1019.8 |
| 20260905203603 | 83 | 296 | 3.0 | 8.0 | 0.00 | 0.00 | 0.00 | 70 | 1019.7 |
| 20260905203503 | 83 | 295 | 4.0 | 8.0 | 0.00 | 0.00 | 0.00 | 70 | 1019.7 |
| 20260905203403 | 83 | 295 | 4.0 | 8.0 | 0.00 | 0.00 | 0.00 | 70 | 1019.7 |
| 20260905203303 | 83 | 296 | 4.0 | 8.0 | 0.00 | 0.00 | 0.00 | 70 | 1019.7 |
| 20260905203203 | 83 | 296 | 3.0 | 8.0 | 0.00 | 0.00 | 0.00 | 70 | 1019.7 |
| 20260905203103 | 83 | 295 | 3.0 | 8.0 | 0.00 | 0.00 | 0.00 | 70 | 1019.7 |
| 20260905203003 | 83 | 295 | 3.0 | 8.0 | 0.00 | 0.00 | 0.00 | 70 | 1019.7 |
| 20260905202904 | 83 | 295 | 3.0 | 8.0 | 0.00 | 0.00 | 0.00 | 70 | 1019.8 |
| 20260905202804 | 83 | 295 | 3.0 | 8.0 | 0.00 | 0.00 | 0.00 | 70 | 1019.7 |
| 20260905202704 | 83 | 294 | 3.0 | 7.0 | 0.00 | 0.00 | 0.00 | 71 | 1019.7 |
| 20260905202604 | 83 | 294 | 4.0 | 7.0 | 0.00 | 0.00 | 0.00 | 71 | 1019.7 |
| 20260905202504 | 83 | 295 | 3.0 | 7.0 | 0.00 | 0.00 | 0.00 | 71 | 1019.8 |
| 20260905202404 | 83 | 295 | 3.0 | 7.0 | 0.00 | 0.00 | 0.00 | 71 | 1019.7 |
| 20260905202306 | 83 | 297 | 3.0 | 7.0 | 0.00 | 0.00 | 0.00 | 71 | 1019.7 |
| 20260905202204 | 83 | 296 | 3.0 | 7.0 | 0.00 | 0.00 | 0.00 | 71 | 1019.8 |
| 20260905202104 | 83 | 296 | 4.0 | 7.0 | 0.00 | 0.00 | 0.00 | 71 | 1019.8 |
| 20260905202004 | 83 | 297 | 4.0 | 7.0 | 0.00 | 0.00 | 0.00 | 71 | 1019.8 |
| 20260905201904 | 83 | 296 | 4.0 | 7.0 | 0.00 | 0.00 | 0.00 | 71 | 1019.9 |
| 20260905201804 | 83 | 296 | 4.0 | 7.0 | 0.00 | 0.00 | 0.00 | 71 | 1019.8 |
| 20260905201704 | 83 | 296 | 3.0 | 7.0 | 0.00 | 0.00 | 0.00 | 71 | 1019.9 |
| 20260905201604 | 83 | 297 | 3.0 | 7.0 | 0.00 | 0.00 | 0.00 | 71 | 1019.8 |
| 20260905201504 | 83 | 296 | 3.0 | 7.0 | 0.00 | 0.00 | 0.00 | 71 | 1019.8 |
| 20260905201404 | 83 | 297 | 3.0 | 7.0 | 0.00 | 0.00 | 0.00 | 71 | 1019.9 |
| 20260905201304 | 83 | 294 | 3.0 | 7.0 | 0.00 | 0.00 | 0.00 | 71 | 1019.8 |
| 20260905201204 | 83 | 295 | 3.0 | 7.0 | 0.00 | 0.00 | 0.00 | 71 | 1019.8 |
| 20260905201104 | 83 | 297 | 2.0 | 7.0 | 0.00 | 0.00 | 0.00 | 71 | 1019.9 |
| 20260905201004 | 83 | 297 | 2.0 | 7.0 | 0.00 | 0.00 | 0.00 | 71 | 1019.8 |
| 20260905200904 | 83 | 299 | 2.0 | 5.0 | 0.00 | 0.00 | 0.00 | 71 | 1019.9 |
| 20260905200804 | 83 | 299 | 2.0 | 5.0 | 0.00 | 0.00 | 0.00 | 71 | 1019.7 |
| 20260905200704 | 83 | 299 | 2.0 | 5.0 | 0.00 | 0.00 | 0.00 | 71 | 1019.8 |
| 20260905200604 | 83 | 298 | 2.0 | 6.0 | 0.00 | 0.00 | 0.00 | 71 | 1019.8 |
| 20260905200504 | 83 | 300 | 2.0 | 6.0 | 0.00 | 0.00 | 0.00 | 71 | 1019.8 |
| 20260905200404 | 83 | 300 | 2.0 | 6.0 | 0.00 | 0.00 | 0.00 | 71 | 1019.7 |
| 20260905200304 | 83 | 301 | 2.0 | 6.0 | 0.00 | 0.00 | 0.00 | 71 | 1019.7 |
| 20260905200204 | 83 | 300 | 2.0 | 6.0 | 0.00 | 0.00 | 0.00 | 70 | 1019.8 |
| 20260905200104 | 83 | 299 | 2.0 | 6.0 | 0.00 | 0.00 | 0.00 | 70 | 1019.7 |
| 20260905200004 | 83 | 298 | 2.0 | 6.0 | 0.00 | 0.00 | 0.00 | 70 | 1019.8 |
| 20260905195904 | 83 | 297 | 2.0 | 6.0 | 0.00 | 0.00 | 0.00 | 70 | 1019.7 |
| 20260905195804 | 83 | 297 | 2.0 | 6.0 | 0.00 | 0.00 | 0.00 | 70 | 1019.7 |
| 20260905195704 | 83 | 296 | 2.0 | 6.0 | 0.00 | 0.00 | 0.00 | 70 | 1019.8 |
| 20260905195604 | 83 | 295 | 3.0 | 8.0 | 0.00 | 0.00 | 0.00 | 71 | 1019.7 |
| 20260905195504 | 83 | 294 | 3.0 | 8.0 | 0.00 | 0.00 | 0.00 | 70 | 1019.7 |
| 20260905195404 | 83 | 295 | 3.0 | 8.0 | 0.00 | 0.00 | 0.00 | 70 | 1019.7 |
| 20260905195306 | 83 | 294 | 3.0 | 8.0 | 0.00 | 0.00 | 0.00 | 70 | 1019.7 |
| 20260905195204 | 83 | 294 | 3.0 | 8.0 | 0.00 | 0.00 | 0.00 | 71 | 1019.7 |
| 20260905195104 | 83 | 294 | 3.0 | 8.0 | 0.00 | 0.00 | 0.00 | 70 | 1019.8 |
| 20260905195004 | 83 | 294 | 3.0 | 8.0 | 0.00 | 0.00 | 0.00 | 70 | 1019.7 |
| 20260905194904 | 83 | 295 | 4.0 | 8.0 | 0.00 | 0.00 | 0.00 | 70 | 1019.6 |
| 20260905194804 | 83 | 294 | 4.0 | 8.0 | 0.00 | 0.00 | 0.00 | 70 | 1019.7 |
| 20260905194704 | 83 | 295 | 3.0 | 8.0 | 0.00 | 0.00 | 0.00 | 71 | 1019.8 |
| 20260905194604 | 83 | 297 | 3.0 | 7.0 | 0.00 | 0.00 | 0.00 | 70 | 1019.7 |
| 20260905194504 | 83 | 296 | 3.0 | 7.0 | 0.00 | 0.00 | 0.00 | 70 | 1019.7 |
| 20260905194404 | 83 | 297 | 3.0 | 7.0 | 0.00 | 0.00 | 0.00 | 70 | 1019.7 |
| 20260905194304 | 83 | 297 | 3.0 | 7.0 | 0.00 | 0.00 | 0.00 | 70 | 1019.7 |
| 20260905194204 | 83 | 297 | 3.0 | 7.0 | 0.00 | 0.00 | 0.00 | 70 | 1019.7 |
| 20260905194103 | 83 | 298 | 3.0 | 7.0 | 0.00 | 0.00 | 0.00 | 70 | 1019.7 |
| 20260905194004 | 83 | 299 | 3.0 | 7.0 | 0.00 | 0.00 | 0.00 | 70 | 1019.7 |
| 20260905193904 | 83 | 299 | 3.0 | 7.0 | 0.00 | 0.00 | 0.00 | 70 | 1019.9 |
| 20260905193804 | 83 | 300 | 3.0 | 7.0 | 0.00 | 0.00 | 0.00 | 70 | 1019.7 |
| 20260905193703 | 83 | 299 | 3.0 | 7.0 | 0.00 | 0.00 | 0.00 | 70 | 1019.7 |
| 20260905193604 | 83 | 298 | 3.0 | 7.0 | 0.00 | 0.00 | 0.00 | 70 | 1019.8 |
| 20260905193504 | 83 | 298 | 3.0 | 7.0 | 0.00 | 0.00 | 0.00 | 70 | 1019.7 |
| 20260905193404 | 83 | 297 | 3.0 | 7.0 | 0.00 | 0.00 | 0.00 | 70 | 1019.8 |
| 20260905193304 | 83 | 298 | 3.0 | 7.0 | 0.00 | 0.00 | 0.00 | 70 | 1019.7 |
| 20260905193203 | 83 | 298 | 3.0 | 7.0 | 0.00 | 0.00 | 0.00 | 70 | 1019.7 |
| 20260905193103 | 83 | 297 | 3.0 | 7.0 | 0.00 | 0.00 | 0.00 | 70 | 1019.7 |
| 20260905193003 | 83 | 298 | 3.0 | 7.0 | 0.00 | 0.00 | 0.00 | 70 | 1019.7 |
| 20260905192903 | 83 | 298 | 3.0 | 7.0 | 0.00 | 0.00 | 0.00 | 70 | 1019.7 |
| 20260905192804 | 83 | 299 | 3.0 | 7.0 | 0.00 | 0.00 | 0.00 | 71 | 1019.7 |
| 20260905192704 | 83 | 300 | 2.0 | 7.0 | 0.00 | 0.00 | 0.00 | 70 | 1019.6 |
| 20260905192603 | 83 | 300 | 2.0 | 7.0 | 0.00 | 0.00 | 0.00 | 70 | 1019.6 |
| 20260905192504 | 83 | 300 | 2.0 | 7.0 | 0.00 | 0.00 | 0.00 | 70 | 1019.6 |
| 20260905192403 | 83 | 300 | 2.0 | 7.0 | 0.00 | 0.00 | 0.00 | 70 | 1019.6 |
| 20260905192306 | 83 | 299 | 2.0 | 7.0 | 0.00 | 0.00 | 0.00 | 70 | 1019.5 |
| 20260905192203 | 83 | 298 | 2.0 | 6.0 | 0.00 | 0.00 | 0.00 | 70 | 1019.6 |
| 20260905192103 | 83 | 300 | 2.0 | 6.0 | 0.00 | 0.00 | 0.00 | 70 | 1019.6 |
| 20260905192004 | 83 | 300 | 2.0 | 6.0 | 0.00 | 0.00 | 0.00 | 70 | 1019.6 |
| 20260905191903 | 83 | 301 | 2.0 | 6.0 | 0.00 | 0.00 | 0.00 | 70 | 1019.6 |
| 20260905191803 | 83 | 300 | 2.0 | 7.0 | 0.00 | 0.00 | 0.00 | 70 | 1019.6 |
| 20260905191703 | 83 | 299 | 3.0 | 8.0 | 0.00 | 0.00 | 0.00 | 70 | 1019.6 |
| 20260905191603 | 83 | 298 | 3.0 | 8.0 | 0.00 | 0.00 | 0.00 | 70 | 1019.5 |
| 20260905191504 | 83 | 298 | 3.0 | 8.0 | 0.00 | 0.00 | 0.00 | 70 | 1019.5 |
| 20260905191403 | 83 | 298 | 3.0 | 8.0 | 0.00 | 0.00 | 0.00 | 70 | 1019.5 |
| 20260905191303 | 83 | 298 | 3.0 | 8.0 | 0.00 | 0.00 | 0.00 | 70 | 1019.6 |
| 20260905191203 | 83 | 298 | 3.0 | 8.0 | 0.00 | 0.00 | 0.00 | 70 | 1019.6 |
| 20260905191103 | 83 | 298 | 3.0 | 8.0 | 0.00 | 0.00 | 0.00 | 70 | 1019.6 |
| 20260905191003 | 83 | 297 | 3.0 | 8.0 | 0.00 | 0.00 | 0.00 | 71 | 1019.6 |
| 20260905190903 | 83 | 296 | 3.0 | 8.0 | 0.00 | 0.00 | 0.00 | 70 | 1019.7 |
| 20260905190803 | 83 | 296 | 3.0 | 8.0 | 0.00 | 0.00 | 0.00 | 70 | 1019.6 |
| 20260905190703 | 83 | 296 | 3.0 | 7.0 | 0.00 | 0.00 | 0.00 | 70 | 1019.6 |
| 20260905190603 | 83 | 296 | 3.0 | 7.0 | 0.00 | 0.00 | 0.00 | 70 | 1019.5 |
| 20260905190503 | 83 | 295 | 3.0 | 7.0 | 0.00 | 0.00 | 0.00 | 70 | 1019.5 |
| 20260905190403 | 83 | 295 | 3.0 | 7.0 | 0.00 | 0.00 | 0.00 | 70 | 1019.5 |
| 20260905190303 | 83 | 295 | 4.0 | 7.0 | 0.00 | 0.00 | 0.00 | 70 | 1019.5 |
| 20260905190203 | 83 | 295 | 3.0 | 7.0 | 0.00 | 0.00 | 0.00 | 70 | 1019.3 |
| 20260905190103 | 83 | 295 | 3.0 | 7.0 | 0.00 | 0.00 | 0.00 | 70 | 1019.4 |
| 20260905190003 | 83 | 294 | 3.0 | 7.0 | 0.00 | 0.00 | 0.00 | 70 | 1019.4 |
| 20260905185903 | 83 | 295 | 3.0 | 7.0 | 0.00 | 0.00 | 0.00 | 70 | 1019.4 |
| 20260905185803 | 83 | 294 | 3.0 | 7.0 | 0.00 | 0.00 | 0.00 | 70 | 1019.3 |
| 20260905185703 | 83 | 295 | 3.0 | 7.0 | 0.00 | 0.00 | 0.00 | 70 | 1019.4 |
| 20260905185603 | 83 | 295 | 3.0 | 7.0 | 0.00 | 0.00 | 0.00 | 70 | 1019.3 |
| 20260905185503 | 83 | 294 | 3.0 | 7.0 | 0.00 | 0.00 | 0.00 | 70 | 1019.4 |
| 20260905185403 | 83 | 294 | 3.0 | 7.0 | 0.00 | 0.00 | 0.00 | 70 | 1019.3 |
| 20260905185305 | 83 | 294 | 3.0 | 7.0 | 0.00 | 0.00 | 0.00 | 70 | 1019.3 |
| 20260905185203 | 83 | 294 | 3.0 | 7.0 | 0.00 | 0.00 | 0.00 | 70 | 1019.3 |
| 20260905185103 | 83 | 294 | 3.0 | 7.0 | 0.00 | 0.00 | 0.00 | 70 | 1019.3 |
| 20260905185003 | 83 | 294 | 3.0 | 7.0 | 0.00 | 0.00 | 0.00 | 70 | 1019.2 |
| 20260905184903 | 83 | 294 | 2.0 | 7.0 | 0.00 | 0.00 | 0.00 | 70 | 1019.2 |
| 20260905184803 | 83 | 293 | 2.0 | 7.0 | 0.00 | 0.00 | 0.00 | 70 | 1019.3 |
| 20260905184703 | 83 | 293 | 2.0 | 7.0 | 0.00 | 0.00 | 0.00 | 70 | 1019.2 |
| 20260905184603 | 83 | 293 | 2.0 | 7.0 | 0.00 | 0.00 | 0.00 | 70 | 1019.2 |
| 20260905184503 | 83 | 294 | 2.0 | 7.0 | 0.00 | 0.00 | 0.00 | 70 | 1019.2 |
| 20260905184403 | 83 | 294 | 2.0 | 7.0 | 0.00 | 0.00 | 0.00 | 70 | 1019.3 |
| 20260905184303 | 83 | 296 | 3.0 | 7.0 | 0.00 | 0.00 | 0.00 | 70 | 1019.3 |
| 20260905184203 | 83 | 297 | 3.0 | 7.0 | 0.00 | 0.00 | 0.00 | 70 | 1019.4 |
| 20260905184103 | 83 | 297 | 3.0 | 7.0 | 0.00 | 0.00 | 0.00 | 70 | 1019.3 |
| 20260905184003 | 83 | 298 | 3.0 | 7.0 | 0.00 | 0.00 | 0.00 | 70 | 1019.4 |
| 20260905183903 | 83 | 298 | 3.0 | 7.0 | 0.00 | 0.00 | 0.00 | 70 | 1019.5 |
| 20260905183803 | 83 | 298 | 3.0 | 7.0 | 0.00 | 0.00 | 0.00 | 70 | 1019.4 |
| 20260905183703 | 83 | 298 | 3.0 | 7.0 | 0.00 | 0.00 | 0.00 | 70 | 1019.5 |
| 20260905183603 | 83 | 298 | 3.0 | 7.0 | 0.00 | 0.00 | 0.00 | 70 | 1019.5 |
| 20260905183503 | 83 | 298 | 3.0 | 7.0 | 0.00 | 0.00 | 0.00 | 70 | 1019.3 |
| 20260905183403 | 83 | 298 | 3.0 | 7.0 | 0.00 | 0.00 | 0.00 | 70 | 1019.3 |
| 20260905183303 | 83 | 297 | 3.0 | 7.0 | 0.00 | 0.00 | 0.00 | 70 | 1019.4 |
| 20260905183203 | 83 | 296 | 3.0 | 7.0 | 0.00 | 0.00 | 0.00 | 70 | 1019.4 |
| 20260905183103 | 83 | 297 | 3.0 | 7.0 | 0.00 | 0.00 | 0.00 | 70 | 1019.4 |
| 20260905183003 | 83 | 295 | 3.0 | 7.0 | 0.00 | 0.00 | 0.00 | 70 | 1019.4 |
| 20260905182903 | 83 | 296 | 3.0 | 7.0 | 0.00 | 0.00 | 0.00 | 70 | 1019.4 |
| 20260905182803 | 83 | 296 | 3.0 | 7.0 | 0.00 | 0.00 | 0.00 | 70 | 1019.3 |
| 20260905182703 | 83 | 299 | 3.0 | 7.0 | 0.00 | 0.00 | 0.00 | 70 | 1019.2 |
| 20260905182603 | 83 | 299 | 3.0 | 7.0 | 0.00 | 0.00 | 0.00 | 70 | 1019.3 |
| 20260905182503 | 83 | 300 | 4.0 | 7.0 | 0.00 | 0.00 | 0.00 | 70 | 1019.3 |
| 20260905182403 | 83 | 299 | 4.0 | 7.0 | 0.00 | 0.00 | 0.00 | 70 | 1019.2 |
| 20260905182305 | 83 | 299 | 4.0 | 7.0 | 0.00 | 0.00 | 0.00 | 70 | 1019.1 |
| 20260905182203 | 83 | 299 | 4.0 | 7.0 | 0.00 | 0.00 | 0.00 | 70 | 1019.2 |
| 20260905182103 | 83 | 298 | 4.0 | 7.0 | 0.00 | 0.00 | 0.00 | 70 | 1019.2 |
| 20260905182003 | 83 | 299 | 4.0 | 7.0 | 0.00 | 0.00 | 0.00 | 70 | 1019.1 |
| 20260905181903 | 83 | 298 | 4.0 | 7.0 | 0.00 | 0.00 | 0.00 | 70 | 1019.2 |
| 20260905181803 | 83 | 297 | 4.0 | 7.0 | 0.00 | 0.00 | 0.00 | 70 | 1019.1 |
| 20260905181703 | 83 | 297 | 4.0 | 7.0 | 0.00 | 0.00 | 0.00 | 70 | 1019.1 |
| 20260905181603 | 83 | 296 | 4.0 | 7.0 | 0.00 | 0.00 | 0.00 | 70 | 1019.2 |
| 20260905181503 | 83 | 295 | 4.0 | 8.0 | 0.00 | 0.00 | 0.00 | 70 | 1019.3 |
| 20260905181403 | 83 | 296 | 5.0 | 8.0 | 0.00 | 0.00 | 0.00 | 70 | 1019.2 |
| 20260905181303 | 83 | 296 | 4.0 | 8.0 | 0.00 | 0.00 | 0.00 | 70 | 1019.3 |
| 20260905181203 | 83 | 296 | 4.0 | 8.0 | 0.00 | 0.00 | 0.00 | 70 | 1019.2 |
| 20260905181103 | 83 | 297 | 4.0 | 8.0 | 0.00 | 0.00 | 0.00 | 69 | 1019.2 |
| 20260905181003 | 83 | 297 | 4.0 | 8.0 | 0.00 | 0.00 | 0.00 | 69 | 1019.1 |
| 20260905180903 | 83 | 298 | 4.0 | 8.0 | 0.00 | 0.00 | 0.00 | 69 | 1019.1 |
| 20260905180803 | 84 | 298 | 3.0 | 8.0 | 0.00 | 0.00 | 0.00 | 69 | 1019.0 |
| 20260905180703 | 84 | 297 | 3.0 | 8.0 | 0.00 | 0.00 | 0.00 | 69 | 1019.1 |
| 20260905180603 | 84 | 297 | 3.0 | 8.0 | 0.00 | 0.00 | 0.00 | 69 | 1019.1 |
| 20260905180503 | 84 | 297 | 3.0 | 7.0 | 0.00 | 0.00 | 0.00 | 68 | 1019.1 |
| 20260905180403 | 84 | 299 | 3.0 | 6.0 | 0.00 | 0.00 | 0.00 | 68 | 1019.0 |
| 20260905180303 | 84 | 298 | 3.0 | 6.0 | 0.00 | 0.00 | 0.00 | 68 | 1019.1 |
| 20260905180203 | 84 | 299 | 2.0 | 6.0 | 0.00 | 0.00 | 0.00 | 68 | 1019.0 |
| 20260905180104 | 84 | 298 | 2.0 | 6.0 | 0.00 | 0.00 | 0.00 | 68 | 1019.0 |
| 20260905180004 | 84 | 298 | 2.0 | 6.0 | 0.00 | 0.00 | 0.00 | 68 | 1019.0 |
| 20260905175904 | 84 | 298 | 2.0 | 6.0 | 0.00 | 0.00 | 0.00 | 68 | 1018.9 |
| 20260905175804 | 84 | 297 | 2.0 | 6.0 | 0.00 | 0.00 | 0.00 | 68 | 1019.0 |
| 20260905175704 | 84 | 297 | 2.0 | 6.0 | 0.00 | 0.00 | 0.00 | 68 | 1019.0 |
| 20260905175604 | 84 | 298 | 2.0 | 6.0 | 0.00 | 0.00 | 0.00 | 68 | 1019.0 |
| 20260905175504 | 84 | 298 | 2.0 | 6.0 | 0.00 | 0.00 | 0.00 | 68 | 1019.0 |
| 20260905175404 | 84 | 298 | 2.0 | 6.0 | 0.00 | 0.00 | 0.00 | 67 | 1019.0 |
| 20260905175306 | 84 | 300 | 2.0 | 6.0 | 0.00 | 0.00 | 0.00 | 67 | 1019.0 |
| 20260905175204 | 84 | 300 | 2.0 | 6.0 | 0.00 | 0.00 | 0.00 | 67 | 1018.9 |
| 20260905175104 | 84 | 300 | 3.0 | 6.0 | 0.00 | 0.00 | 0.00 | 67 | 1018.9 |
| 20260905175004 | 84 | 299 | 3.0 | 6.0 | 0.00 | 0.00 | 0.00 | 67 | 1018.9 |
| 20260905174904 | 84 | 299 | 3.0 | 6.0 | 0.00 | 0.00 | 0.00 | 67 | 1018.8 |
| 20260905174804 | 84 | 299 | 3.0 | 6.0 | 0.00 | 0.00 | 0.00 | 67 | 1018.9 |
| 20260905174704 | 84 | 299 | 3.0 | 6.0 | 0.00 | 0.00 | 0.00 | 67 | 1019.0 |
| 20260905174604 | 84 | 299 | 3.0 | 6.0 | 0.00 | 0.00 | 0.00 | 67 | 1018.9 |
| 20260905174504 | 84 | 299 | 2.0 | 6.0 | 0.00 | 0.00 | 0.00 | 66 | 1018.9 |
| 20260905174404 | 84 | 298 | 3.0 | 6.0 | 0.00 | 0.00 | 0.00 | 66 | 1018.9 |
| 20260905174304 | 84 | 296 | 3.0 | 6.0 | 0.00 | 0.00 | 0.00 | 66 | 1018.9 |
| 20260905174204 | 84 | 296 | 3.0 | 6.0 | 0.00 | 0.00 | 0.00 | 66 | 1018.9 |
| 20260905174104 | 84 | 296 | 3.0 | 6.0 | 0.00 | 0.00 | 0.00 | 66 | 1018.9 |
| 20260905174004 | 84 | 295 | 3.0 | 6.0 | 0.00 | 0.00 | 0.00 | 66 | 1019.0 |
| 20260905173904 | 84 | 296 | 3.0 | 6.0 | 0.00 | 0.00 | 0.00 | 66 | 1019.0 |
| 20260905173804 | 84 | 296 | 2.0 | 6.0 | 0.00 | 0.00 | 0.00 | 66 | 1019.0 |
| 20260905173704 | 84 | 296 | 2.0 | 6.0 | 0.00 | 0.00 | 0.00 | 66 | 1019.0 |
| 20260905173604 | 84 | 298 | 2.0 | 6.0 | 0.00 | 0.00 | 0.00 | 65 | 1018.9 |
| 20260905173504 | 84 | 299 | 3.0 | 8.0 | 0.00 | 0.00 | 0.00 | 65 | 1018.9 |
| 20260905173404 | 84 | 299 | 3.0 | 8.0 | 0.00 | 0.00 | 0.00 | 65 | 1018.9 |
| 20260905173304 | 84 | 300 | 3.0 | 8.0 | 0.00 | 0.00 | 0.00 | 65 | 1018.9 |
| 20260905173204 | 84 | 301 | 3.0 | 8.0 | 0.00 | 0.00 | 0.00 | 65 | 1018.9 |
| 20260905173104 | 84 | 300 | 3.0 | 8.0 | 0.00 | 0.00 | 0.00 | 65 | 1018.9 |
| 20260905173004 | 84 | 300 | 3.0 | 8.0 | 0.00 | 0.00 | 0.00 | 65 | 1018.9 |
| 20260905172904 | 85 | 300 | 3.0 | 8.0 | 0.00 | 0.00 | 0.00 | 65 | 1018.8 |
| 20260905172804 | 85 | 299 | 3.0 | 8.0 | 0.00 | 0.00 | 0.00 | 65 | 1018.9 |
| 20260905172704 | 85 | 299 | 3.0 | 8.0 | 0.00 | 0.00 | 0.00 | 65 | 1018.7 |
| 20260905172604 | 85 | 299 | 3.0 | 8.0 | 0.00 | 0.00 | 0.00 | 65 | 1018.8 |
| 20260905172504 | 85 | 299 | 3.0 | 7.0 | 0.00 | 0.00 | 0.00 | 64 | 1018.8 |
| 20260905172404 | 85 | 300 | 3.0 | 7.0 | 0.00 | 0.00 | 0.00 | 64 | 1018.7 |
| 20260905172305 | 85 | 300 | 3.0 | 7.0 | 0.00 | 0.00 | 0.00 | 64 | 1018.6 |
| 20260905172204 | 85 | 301 | 4.0 | 6.0 | 0.00 | 0.00 | 0.00 | 64 | 1018.6 |
| 20260905172104 | 85 | 301 | 4.0 | 6.0 | 0.00 | 0.00 | 0.00 | 63 | 1018.7 |
| 20260905172004 | 85 | 301 | 4.0 | 6.0 | 0.00 | 0.00 | 0.00 | 63 | 1018.8 |
| 20260905171904 | 85 | 300 | 4.0 | 7.0 | 0.00 | 0.00 | 0.00 | 63 | 1018.9 |
| 20260905171804 | 85 | 300 | 4.0 | 7.0 | 0.00 | 0.00 | 0.00 | 63 | 1018.9 |
| 20260905171704 | 85 | 300 | 4.0 | 7.0 | 0.00 | 0.00 | 0.00 | 63 | 1018.9 |
| 20260905171604 | 85 | 299 | 4.0 | 7.0 | 0.00 | 0.00 | 0.00 | 63 | 1018.9 |
| 20260905171504 | 85 | 298 | 4.0 | 7.0 | 0.00 | 0.00 | 0.00 | 63 | 1018.8 |
| 20260905171403 | 85 | 298 | 3.0 | 7.0 | 0.00 | 0.00 | 0.00 | 63 | 1018.8 |
| 20260905171304 | 85 | 299 | 3.0 | 7.0 | 0.00 | 0.00 | 0.00 | 63 | 1018.8 |
| 20260905171203 | 85 | 299 | 3.0 | 7.0 | 0.00 | 0.00 | 0.00 | 62 | 1018.9 |
| 20260905171103 | 85 | 298 | 3.0 | 7.0 | 0.00 | 0.00 | 0.00 | 62 | 1018.8 |
| 20260905171004 | 85 | 299 | 3.0 | 9.0 | 0.00 | 0.00 | 0.00 | 62 | 1018.8 |
| 20260905170903 | 85 | 300 | 3.0 | 10.0 | 0.00 | 0.00 | 0.00 | 62 | 1018.7 |
| 20260905170803 | 85 | 301 | 3.0 | 10.0 | 0.00 | 0.00 | 0.00 | 62 | 1018.7 |
| 20260905170704 | 85 | 301 | 4.0 | 10.0 | 0.00 | 0.00 | 0.00 | 62 | 1018.7 |
| 20260905170603 | 85 | 301 | 4.0 | 10.0 | 0.00 | 0.00 | 0.00 | 62 | 1018.6 |
| 20260905170503 | 85 | 302 | 4.0 | 10.0 | 0.00 | 0.00 | 0.00 | 62 | 1018.8 |
| 20260905170404 | 85 | 302 | 4.0 | 10.0 | 0.00 | 0.00 | 0.00 | 62 | 1018.8 |
| 20260905170303 | 85 | 300 | 4.0 | 10.0 | 0.00 | 0.00 | 0.00 | 62 | 1018.8 |
| 20260905170203 | 85 | 301 | 4.0 | 10.0 | 0.00 | 0.00 | 0.00 | 62 | 1018.8 |
| 20260905170104 | 85 | 302 | 4.0 | 10.0 | 0.00 | 0.00 | 0.00 | 62 | 1018.7 |
| 20260905170003 | 85 | 302 | 4.0 | 10.0 | 0.00 | 0.00 | 0.00 | 62 | 1018.8 |
| 20260905165904 | 86 | 302 | 4.0 | 8.0 | 0.00 | 0.00 | 0.00 | 61 | 1018.7 |
| 20260905165803 | 86 | 303 | 4.0 | 8.0 | 0.00 | 0.00 | 0.00 | 61 | 1018.7 |
| 20260905165703 | 86 | 304 | 4.0 | 8.0 | 0.00 | 0.00 | 0.00 | 61 | 1018.7 |
| 20260905165605 | 86 | 303 | 4.0 | 8.0 | 0.00 | 0.00 | 0.00 | 61 | 1018.6 |
| 20260905165503 | 86 | 302 | 4.0 | 8.0 | 0.00 | 0.00 | 0.00 | 61 | 1018.6 |
| 20260905165403 | 86 | 301 | 3.0 | 8.0 | 0.00 | 0.00 | 0.00 | 61 | 1018.6 |
| 20260905165306 | 86 | 302 | 3.0 | 8.0 | 0.00 | 0.00 | 0.00 | 61 | 1018.5 |
| 20260905165203 | 86 | 300 | 3.0 | 8.0 | 0.00 | 0.00 | 0.00 | 61 | 1018.6 |
| 20260905165103 | 86 | 299 | 3.0 | 8.0 | 0.00 | 0.00 | 0.00 | 61 | 1018.6 |
| 20260905165003 | 86 | 299 | 3.0 | 8.0 | 0.00 | 0.00 | 0.00 | 60 | 1018.6 |
| 20260905164903 | 86 | 298 | 3.0 | 8.0 | 0.00 | 0.00 | 0.00 | 60 | 1018.7 |
| 20260905164803 | 86 | 296 | 2.0 | 7.0 | 0.00 | 0.00 | 0.00 | 60 | 1018.7 |
| 20260905164703 | 86 | 294 | 2.0 | 6.0 | 0.00 | 0.00 | 0.00 | 60 | 1018.6 |
| 20260905164603 | 86 | 294 | 2.0 | 6.0 | 0.00 | 0.00 | 0.00 | 60 | 1018.7 |
| 20260905164503 | 86 | 297 | 2.0 | 7.0 | 0.00 | 0.00 | 0.00 | 60 | 1018.6 |
| 20260905164403 | 86 | 297 | 3.0 | 9.0 | 0.00 | 0.00 | 0.00 | 59 | 1018.7 |
| 20260905164303 | 86 | 297 | 3.0 | 9.0 | 0.00 | 0.00 | 0.00 | 59 | 1018.6 |
| 20260905164203 | 86 | 297 | 3.0 | 9.0 | 0.00 | 0.00 | 0.00 | 59 | 1018.6 |
| 20260905164103 | 86 | 297 | 3.0 | 9.0 | 0.00 | 0.00 | 0.00 | 59 | 1018.5 |
| 20260905164003 | 86 | 297 | 3.0 | 9.0 | 0.00 | 0.00 | 0.00 | 59 | 1018.6 |
| 20260905163903 | 86 | 298 | 3.0 | 9.0 | 0.00 | 0.00 | 0.00 | 59 | 1018.5 |
| 20260905163803 | 86 | 298 | 3.0 | 9.0 | 0.00 | 0.00 | 0.00 | 59 | 1018.6 |
| 20260905163703 | 87 | 299 | 3.0 | 9.0 | 0.00 | 0.00 | 0.00 | 59 | 1018.6 |
| 20260905163603 | 87 | 299 | 3.0 | 9.0 | 0.00 | 0.00 | 0.00 | 59 | 1018.6 |
| 20260905163503 | 87 | 300 | 3.0 | 9.0 | 0.00 | 0.00 | 0.00 | 58 | 1018.7 |
| 20260905163403 | 87 | 299 | 3.0 | 9.0 | 0.00 | 0.00 | 0.00 | 58 | 1018.6 |
| 20260905163303 | 87 | 300 | 3.0 | 7.0 | 0.00 | 0.00 | 0.00 | 58 | 1018.5 |
| 20260905163203 | 87 | 299 | 3.0 | 7.0 | 0.00 | 0.00 | 0.00 | 58 | 1018.5 |
| 20260905163103 | 87 | 300 | 3.0 | 7.0 | 0.00 | 0.00 | 0.00 | 58 | 1018.5 |
| 20260905163003 | 87 | 301 | 3.0 | 7.0 | 0.00 | 0.00 | 0.00 | 58 | 1018.6 |
| 20260905162903 | 87 | 301 | 3.0 | 7.0 | 0.00 | 0.00 | 0.00 | 58 | 1018.5 |
| 20260905162803 | 87 | 298 | 3.0 | 7.0 | 0.00 | 0.00 | 0.00 | 58 | 1018.9 |
| 20260905162703 | 87 | 299 | 2.0 | 7.0 | 0.00 | 0.00 | 0.00 | 57 | 1018.8 |
| 20260905162603 | 87 | 298 | 2.0 | 6.0 | 0.00 | 0.00 | 0.00 | 58 | 1018.9 |
| 20260905162503 | 87 | 297 | 2.0 | 6.0 | 0.00 | 0.00 | 0.00 | 58 | 1018.8 |
| 20260905162403 | 87 | 299 | 2.0 | 6.0 | 0.00 | 0.00 | 0.00 | 58 | 1018.7 |
| 20260905162305 | 87 | 299 | 2.0 | 6.0 | 0.00 | 0.00 | 0.00 | 58 | 1018.8 |
| 20260905162203 | 87 | 301 | 2.0 | 6.0 | 0.00 | 0.00 | 0.00 | 58 | 1018.8 |
| 20260905162103 | 87 | 300 | 2.0 | 6.0 | 0.00 | 0.00 | 0.00 | 57 | 1018.9 |
| 20260905162003 | 87 | 300 | 2.0 | 8.0 | 0.00 | 0.00 | 0.00 | 57 | 1018.8 |
| 20260905161903 | 87 | 301 | 2.0 | 8.0 | 0.00 | 0.00 | 0.00 | 57 | 1018.7 |
| 20260905161803 | 87 | 301 | 2.0 | 8.0 | 0.00 | 0.00 | 0.00 | 57 | 1018.9 |
| 20260905161703 | 87 | 301 | 2.0 | 8.0 | 0.00 | 0.00 | 0.00 | 57 | 1018.8 |
| 20260905161603 | 87 | 302 | 2.0 | 8.0 | 0.00 | 0.00 | 0.00 | 57 | 1018.8 |
| 20260905161503 | 87 | 303 | 2.0 | 8.0 | 0.00 | 0.00 | 0.00 | 57 | 1018.7 |
| 20260905161403 | 87 | 301 | 2.0 | 8.0 | 0.00 | 0.00 | 0.00 | 57 | 1018.8 |
| 20260905161303 | 87 | 301 | 2.0 | 8.0 | 0.00 | 0.00 | 0.00 | 57 | 1018.8 |
| 20260905161203 | 88 | 301 | 2.0 | 8.0 | 0.00 | 0.00 | 0.00 | 56 | 1018.9 |
| 20260905161103 | 88 | 297 | 2.0 | 9.0 | 0.00 | 0.00 | 0.00 | 56 | 1018.8 |
| 20260905161003 | 88 | 296 | 2.0 | 9.0 | 0.00 | 0.00 | 0.00 | 56 | 1018.8 |
| 20260905160903 | 88 | 297 | 2.0 | 9.0 | 0.00 | 0.00 | 0.00 | 56 | 1018.7 |
| 20260905160803 | 88 | 300 | 2.0 | 9.0 | 0.00 | 0.00 | 0.00 | 55 | 1018.7 |
| 20260905160703 | 88 | 304 | 2.0 | 9.0 | 0.00 | 0.00 | 0.00 | 55 | 1018.7 |
| 20260905160603 | 88 | 304 | 2.0 | 9.0 | 0.00 | 0.00 | 0.00 | 55 | 1018.7 |
| 20260905160503 | 88 | 303 | 2.0 | 9.0 | 0.00 | 0.00 | 0.00 | 55 | 1018.8 |
| 20260905160403 | 88 | 303 | 2.0 | 9.0 | 0.00 | 0.00 | 0.00 | 55 | 1018.9 |
| 20260905160303 | 88 | 303 | 2.0 | 9.0 | 0.00 | 0.00 | 0.00 | 55 | 1018.8 |
| 20260905160203 | 88 | 303 | 2.0 | 9.0 | 0.00 | 0.00 | 0.00 | 55 | 1018.9 |
| 20260905160003 | 88 | 309 | 1.0 | 5.0 | 0.00 | 0.00 | 0.00 | 55 | 1018.9 |
| 20260905155903 | 88 | 307 | 1.0 | 5.0 | 0.00 | 0.00 | 0.00 | 55 | 1018.9 |
| 20260905155803 | 88 | 304 | 1.0 | 5.0 | 0.00 | 0.00 | 0.00 | 54 | 1018.8 |
| 20260905155703 | 88 | 297 | 1.0 | 5.0 | 0.00 | 0.00 | 0.00 | 54 | 1018.7 |
| 20260905155603 | 88 | 296 | 1.0 | 5.0 | 0.00 | 0.00 | 0.00 | 54 | 1018.8 |
| 20260905155503 | 88 | 296 | 1.0 | 5.0 | 0.00 | 0.00 | 0.00 | 54 | 1018.8 |
| 20260905155403 | 88 | 292 | 1.0 | 6.0 | 0.00 | 0.00 | 0.00 | 53 | 1018.8 |
| 20260905155306 | 89 | 295 | 1.0 | 6.0 | 0.00 | 0.00 | 0.00 | 53 | 1018.8 |
| 20260905155203 | 89 | 298 | 1.0 | 7.0 | 0.00 | 0.00 | 0.00 | 53 | 1018.9 |
| 20260905155103 | 89 | 298 | 1.0 | 7.0 | 0.00 | 0.00 | 0.00 | 53 | 1018.8 |
| 20260905155003 | 89 | 298 | 2.0 | 7.0 | 0.00 | 0.00 | 0.00 | 53 | 1018.8 |
| 20260905154903 | 89 | 299 | 2.0 | 7.0 | 0.00 | 0.00 | 0.00 | 53 | 1018.8 |
| 20260905154803 | 89 | 298 | 2.0 | 7.0 | 0.00 | 0.00 | 0.00 | 53 | 1018.9 |
| 20260905154703 | 89 | 297 | 2.0 | 7.0 | 0.00 | 0.00 | 0.00 | 52 | 1018.8 |
| 20260905154603 | 89 | 298 | 2.0 | 7.0 | 0.00 | 0.00 | 0.00 | 52 | 1018.8 |
| 20260905154503 | 89 | 298 | 2.0 | 7.0 | 0.00 | 0.00 | 0.00 | 52 | 1018.8 |
| 20260905154403 | 89 | 298 | 2.0 | 7.0 | 0.00 | 0.00 | 0.00 | 52 | 1018.8 |
| 20260905154303 | 89 | 297 | 1.0 | 7.0 | 0.00 | 0.00 | 0.00 | 52 | 1018.7 |
| 20260905154203 | 89 | 297 | 1.0 | 7.0 | 0.00 | 0.00 | 0.00 | 51 | 1018.7 |
| 20260905154103 | 89 | 298 | 1.0 | 7.0 | 0.00 | 0.00 | 0.00 | 51 | 1018.7 |
| 20260905154003 | 89 | 298 | 1.0 | 7.0 | 0.00 | 0.00 | 0.00 | 52 | 1018.7 |
| 20260905153903 | 89 | 298 | 1.0 | 6.0 | 0.00 | 0.00 | 0.00 | 52 | 1018.8 |
| 20260905153803 | 89 | 304 | 0.0 | 5.0 | 0.00 | 0.00 | 0.00 | 52 | 1018.7 |
| 20260905153703 | 89 | 304 | 0.0 | 5.0 | 0.00 | 0.00 | 0.00 | 52 | 1018.7 |
| 20260905153604 | 89 | 304 | 0.0 | 5.0 | 0.00 | 0.00 | 0.00 | 51 | 1018.7 |
| 20260905153504 | 89 | 308 | 1.0 | 6.0 | 0.00 | 0.00 | 0.00 | 51 | 1018.8 |
| 20260905153404 | 89 | 305 | 1.0 | 6.0 | 0.00 | 0.00 | 0.00 | 50 | 1018.8 |
| 20260905153304 | 89 | 305 | 1.0 | 6.0 | 0.00 | 0.00 | 0.00 | 50 | 1018.7 |
| 20260905153204 | 89 | 304 | 2.0 | 8.0 | 0.00 | 0.00 | 0.00 | 50 | 1018.7 |
| 20260905153104 | 89 | 305 | 1.0 | 8.0 | 0.00 | 0.00 | 0.00 | 50 | 1018.8 |
| 20260905153004 | 89 | 305 | 1.0 | 8.0 | 0.00 | 0.00 | 0.00 | 50 | 1018.7 |
| 20260905152904 | 90 | 304 | 1.0 | 8.0 | 0.00 | 0.00 | 0.00 | 49 | 1018.7 |
| 20260905152804 | 90 | 305 | 1.0 | 8.0 | 0.00 | 0.00 | 0.00 | 49 | 1018.7 |
| 20260905152704 | 90 | 305 | 1.0 | 8.0 | 0.00 | 0.00 | 0.00 | 49 | 1018.6 |
| 20260905152604 | 90 | 306 | 1.0 | 8.0 | 0.00 | 0.00 | 0.00 | 49 | 1018.6 |
| 20260905152504 | 90 | 306 | 1.0 | 8.0 | 0.00 | 0.00 | 0.00 | 48 | 1018.7 |
| 20260905152404 | 90 | 306 | 1.0 | 8.0 | 0.00 | 0.00 | 0.00 | 48 | 1018.7 |
| 20260905152306 | 90 | 309 | 1.0 | 8.0 | 0.00 | 0.00 | 0.00 | 48 | 1018.6 |
| 20260905152204 | 90 | 310 | 1.0 | 6.0 | 0.00 | 0.00 | 0.00 | 47 | 1018.7 |
| 20260905152104 | 90 | 309 | 1.0 | 6.0 | 0.00 | 0.00 | 0.00 | 47 | 1018.6 |
| 20260905152004 | 90 | 311 | 1.0 | 6.0 | 0.00 | 0.00 | 0.00 | 47 | 1018.6 |
| 20260905151904 | 90 | 311 | 1.0 | 6.0 | 0.00 | 0.00 | 0.00 | 47 | 1018.6 |
| 20260905151804 | 90 | 314 | 1.0 | 6.0 | 0.00 | 0.00 | 0.00 | 47 | 1018.6 |
| 20260905151704 | 90 | 306 | 1.0 | 9.0 | 0.00 | 0.00 | 0.00 | 46 | 1018.6 |
| 20260905151604 | 90 | 303 | 2.0 | 9.0 | 0.00 | 0.00 | 0.00 | 46 | 1018.7 |
| 20260905151504 | 90 | 301 | 2.0 | 9.0 | 0.00 | 0.00 | 0.00 | 46 | 1018.7 |
| 20260905151404 | 90 | 301 | 1.0 | 9.0 | 0.00 | 0.00 | 0.00 | 46 | 1018.7 |
| 20260905151304 | 90 | 300 | 1.0 | 9.0 | 0.00 | 0.00 | 0.00 | 46 | 1018.7 |
| 20260905151204 | 90 | 301 | 1.0 | 9.0 | 0.00 | 0.00 | 0.00 | 46 | 1018.6 |
| 20260905151104 | 90 | 301 | 1.0 | 9.0 | 0.00 | 0.00 | 0.00 | 45 | 1018.6 |
| 20260905151004 | 90 | 301 | 1.0 | 9.0 | 0.00 | 0.00 | 0.00 | 45 | 1018.6 |